Date StartTime U_cm/s V_cm/s W_cm/s Ustd_cm/s Vstd_cm/s Wstd_cm/s Uvar_(cm/s)^2 Vvar_(cm/s)^2 Wvar_(cm/s)^2 KE_(m/s)^2 TurbulentKE_(m/s)^2 HorizWindSpeed_cm/s FrictionSpeec_cm/s DragCoef SpeedOfSound_m/s SonicTemperature_C Pressure_mb 
05/06/2013  00:00:00     -203.092      -57.872       -6.298       77.708       59.439       39.871     6038.484     3533.051     1589.685        2.790        0.558      211.176       21.440        0.010      338.974       11.988      855.131
05/06/2013  00:01:00     -274.999      -35.949      -13.622      114.250      123.904       55.157    13053.112    15352.092     3042.298        5.427        1.572      277.338       49.370        0.032      338.940       11.930      855.138
05/06/2013  00:02:00     -297.802      -22.968      -29.159       76.751       60.894       41.930     5890.769     3708.118     1758.112        5.071        0.568      298.686       25.125        0.007      338.930       11.911      855.144
05/06/2013  00:03:00     -230.196      -62.375       -7.942       61.405       66.189       36.590     3770.559     4381.032     1338.796        3.322        0.475      238.497       34.274        0.021      338.889       11.843      855.149
05/06/2013  00:04:00     -215.424      -32.495      -16.481       55.364       46.371       32.584     3065.150     2150.236     1061.720        2.700        0.314      217.861       32.247        0.022      338.908       11.876      855.146
05/06/2013  00:05:00     -169.318      -12.109      -13.690       66.315       36.791       31.958     4397.697     1353.576     1021.309        1.789        0.339      169.751       35.706        0.044      338.898       11.862      855.153
05/06/2013  00:06:00     -130.714      -19.724      -14.452       38.707       26.891       21.584     1498.270      723.142      465.865        1.019        0.134      132.194       21.227        0.026      338.913       11.888      855.159
05/06/2013  00:07:00     -133.993       55.946      -13.996       52.666       41.334       25.582     2773.732     1708.533      654.446        1.321        0.257      145.203       20.108        0.019      338.912       11.886      855.190
05/06/2013  00:08:00      -65.987       29.218       -9.800       24.863       29.401       16.013      618.173      864.403      256.411        0.352        0.087       72.166       15.305        0.045      338.932       11.920      855.209
05/06/2013  00:09:00      -70.444        9.639       -2.521       50.151       53.220       27.565     2515.117     2832.409      759.821        0.558        0.305       71.101       22.122        0.097      338.959       11.965      855.213
05/06/2013  00:10:00     -106.056       35.416      -11.527       49.498       63.688       29.798     2450.068     4056.169      887.950        1.001        0.370      111.813       27.807        0.062      338.920       11.899      855.223
05/06/2013  00:11:00     -107.090       68.575      -10.838       48.666       33.182       27.097     2368.372     1101.056      734.245        1.025        0.210      127.165       19.465        0.023      338.960       11.966      855.222
05/06/2013  00:12:00     -109.083       90.280      -19.160       33.749       40.320       24.304     1138.967     1625.714      590.668        1.189        0.168      141.597       26.577        0.035      338.947       11.944      855.233
05/06/2013  00:13:00     -143.461       36.716       -9.188       56.671       49.668       26.415     3211.614     2466.881      697.741        1.419        0.319      148.084       21.096        0.020      338.943       11.938      855.241
05/06/2013  00:14:00     -190.010      -12.769      -16.739       51.508       50.741       30.339     2653.121     2574.652      920.461        2.135        0.307      190.438       29.855        0.025      338.916       11.890      855.227
05/06/2013  00:15:00     -172.186      -12.066      -11.567       58.664       46.850       28.125     3441.450     2194.952      791.006        1.818        0.321      172.608       28.103        0.027      339.011       12.052      855.201
05/06/2013  00:16:00     -159.108      -63.653       -3.510       62.287       54.711       28.193     3879.637     2993.300      794.848        1.852        0.383      171.368       26.952        0.025      338.981       12.003      855.206
05/06/2013  00:17:00     -188.316      -13.570       -9.863       82.494       46.290       38.977     6805.270     2142.759     1519.207        2.310        0.523      188.804       42.487        0.051      338.928       11.912      855.211
05/06/2013  00:18:00     -193.377      -64.169      -11.744       44.594       63.251       31.533     1988.615     4000.640      994.343        2.432        0.349      203.746       18.721        0.008      338.894       11.854      855.205
05/06/2013  00:19:00     -155.970      -33.876        0.647       67.975       47.515       40.405     4620.634     2257.633     1632.589        1.699        0.426      159.606       41.854        0.069      338.919       11.897      855.201
05/06/2013  00:20:00     -128.106      -49.984       -6.120       72.264       48.929       28.298     5222.054     2394.069      800.785        1.368        0.421      137.512       21.913        0.025      338.960       11.966      855.190
05/06/2013  00:21:00     -191.787       -7.657      -22.091       58.100       44.628       21.707     3375.564     1991.653      471.195        2.158        0.292      191.940       18.708        0.009      338.941       11.933      855.202
05/06/2013  00:22:00     -100.556        4.386       -9.521       38.318       41.081       16.863     1468.239     1687.650      284.363        0.683        0.172      100.652       14.340        0.020      338.880       11.832      855.215
05/06/2013  00:23:00      -96.285        9.351       -1.155       32.029       35.900       20.004     1025.865     1288.828      400.162        0.604        0.136       96.738       16.839        0.030      338.883       11.837      855.214
05/06/2013  00:24:00     -107.245       36.024      -20.479       59.251       25.898       20.713     3510.693      670.705      429.017        0.891        0.231      113.134       20.544        0.033      338.809       11.711      855.232
05/06/2013  00:25:00      -80.728       -6.394      -15.460       34.990       34.970       26.269     1224.312     1222.888      690.067        0.497        0.157       80.981       26.583        0.108      338.816       11.725      855.214
05/06/2013  00:26:00      -76.913       -3.640       -1.835       25.854       34.958       17.694      668.444     1222.057      313.071        0.407        0.110       76.999        9.353        0.015      338.833       11.753      855.227
05/06/2013  00:27:00     -160.124       -0.902      -20.452       37.400       50.755       17.574     1398.745     2576.089      308.859        1.517        0.214      160.127       13.383        0.007      338.802       11.701      855.243
05/06/2013  00:28:00      -53.952      -69.846        0.666       58.688       31.494       28.441     3444.299      991.894      808.903        0.652        0.262       88.257       26.570        0.091      338.793       11.687      855.207
05/06/2013  00:29:00      -49.151      -33.172        8.175       56.984       38.397       25.977     3247.120     1474.310      674.784        0.449        0.270       59.297       31.369        0.280      338.774       11.655      855.201
05/06/2013  00:30:00      -52.730       -6.088        3.286       20.319       18.450       12.407      412.844      340.403      153.929        0.187        0.045       53.080       13.217        0.062      338.704       11.537      855.218
05/06/2013  00:31:00      -59.117      -17.193       -6.204       18.015       19.144       13.838      324.551      366.483      191.496        0.236        0.044       61.567        9.271        0.023      338.768       11.643      855.208
05/06/2013  00:32:00      -56.246       11.019       -4.730       27.076       37.999       14.783      733.104     1443.900      218.529        0.285        0.120       57.316        9.603        0.028      338.785       11.672      855.215
05/06/2013  00:33:00       29.141       41.348        7.913       19.133       12.073       12.435      366.074      145.758      154.626        0.164        0.033       50.585        6.544        0.017      338.742       11.600      855.205
05/06/2013  00:34:00        7.635       41.685      -12.201       38.653       14.131       15.639     1494.060      199.692      244.584        0.194        0.097       42.378       18.890        0.199      338.832       11.751      855.203
05/06/2013  00:35:00      -54.597      -10.038       -3.442       22.953       27.501       10.318      526.827      756.324      106.463        0.224        0.069       55.512        6.795        0.015      338.817       11.725      855.218
05/06/2013  00:36:00      -28.887      -40.058       11.892       63.224       29.373       25.766     3997.249      862.785      663.870        0.405        0.276       49.387       22.913        0.215      338.873       11.821      855.200
05/06/2013  00:37:00       -5.057      -50.432       25.545       67.516       30.681       33.391     4558.417      941.346     1114.962        0.492        0.331       50.685       39.048        0.594      338.933       11.922      855.143
05/06/2013  00:38:00      -82.178      -65.063       -5.736       25.806       31.522       16.755      665.945      993.652      280.724        0.648        0.097      104.817       11.655        0.012      338.993       12.022      855.102
05/06/2013  00:39:00     -219.126      -49.932      -12.133       67.112       37.768       27.274     4503.978     1426.428      743.870        2.866        0.334      224.743       33.751        0.023      338.924       11.904      855.119
05/06/2013  00:40:00     -202.336      -40.369      -12.725       65.396       61.262       34.201     4276.690     3753.084     1169.676        2.596        0.460      206.324       33.504        0.026      338.814       11.717      855.138
05/06/2013  00:41:00     -193.482     -108.023       -5.186       66.323       50.687       33.360     4398.726     2569.206     1112.892        2.860        0.404      221.595       24.597        0.012      338.789       11.676      855.118
05/06/2013  00:42:00     -222.697      -81.332       -3.242       57.894       61.249       36.015     3351.732     3751.442     1297.082        3.231        0.420      237.084       37.393        0.025      338.806       11.703      855.096
05/06/2013  00:43:00     -149.077      -59.154        3.836       89.930       66.070       30.343     8087.493     4365.280      920.698        1.955        0.669      160.384       36.960        0.053      338.794       11.685      855.091
05/06/2013  00:44:00     -176.919      -48.805       -0.683       40.721       33.593       20.764     1658.165     1128.461      431.154        1.845        0.161      183.528       20.582        0.013      338.753       11.620      855.082
05/06/2013  00:45:00     -134.138      -21.524       -2.073       53.046       45.779       28.022     2813.870     2095.688      785.246        1.208        0.285      135.854       30.626        0.051      338.744       11.604      855.084
05/06/2013  00:46:00     -171.178      -35.153       -6.060       53.661       40.258       27.407     2879.469     1620.713      751.116        1.791        0.263      174.751       25.857        0.022      338.763       11.634      855.084
05/06/2013  00:47:00     -171.473      -20.172       -9.182       48.097       33.047       33.115     2313.285     1092.092     1096.636        1.720        0.225      172.655       33.665        0.038      338.785       11.673      855.085
05/06/2013  00:48:00     -129.819      -61.877       -8.303       35.701       26.675       23.285     1274.567      711.573      542.169        1.164        0.126      143.812       17.454        0.015      338.794       11.687      855.075
05/06/2013  00:49:00     -142.648      -20.722       -8.453       39.667       29.268       16.894     1573.500      856.632      285.394        1.178        0.136      144.145       19.639        0.019      338.792       11.684      855.068
05/06/2013  00:50:00     -107.379      -23.838       -2.594       31.375       25.306       19.828      984.408      640.397      393.152        0.706        0.101      109.993       20.091        0.033      338.789       11.680      855.074
05/06/2013  00:51:00     -139.108      -54.457      -10.123       43.869       34.154       18.965     1924.522     1166.529      359.653        1.293        0.173      149.387       18.106        0.015      338.795       11.689      855.074
05/06/2013  00:52:00      -75.964      -19.307       -0.448       28.715       21.317       19.450      824.554      454.411      378.287        0.390        0.083       78.379       14.866        0.036      338.826       11.740      855.069
05/06/2013  00:53:00      -87.347       -6.799       -3.485       42.676       33.854       23.946     1821.257     1146.110      573.412        0.561        0.177       87.611       24.273        0.077      338.810       11.715      855.086
05/06/2013  00:54:00     -147.332      -14.958      -16.681       36.011       44.022       17.084     1296.760     1937.963      291.848        1.287        0.176      148.089       14.984        0.010      338.846       11.775      855.108
05/06/2013  00:55:00      -85.933      -19.533       -5.858       32.176       29.907       21.112     1035.313      894.406      445.715        0.509        0.119       88.125       14.768        0.028      338.842       11.769      855.112
05/06/2013  00:56:00      -70.331      -14.893       -7.845       21.615       16.313       17.129      467.188      266.115      293.407        0.313        0.051       71.891       12.406        0.030      338.876       11.825      855.104
05/06/2013  00:57:00      -59.462       32.626      -13.481       28.213       31.753       15.580      795.984     1008.222      242.737        0.341        0.102       67.825       16.265        0.058      338.871       11.818      855.121
05/06/2013  00:58:00      -32.359       50.877       -1.440       21.130       18.676       16.261      446.466      348.796      264.432        0.235        0.053       60.296       11.419        0.036      338.849       11.779      855.128
05/06/2013  00:59:00       23.680       61.195       -8.127       29.069       35.513       19.351      845.015     1261.166      374.452        0.343        0.124       65.617       20.186        0.095      338.802       11.702      855.127
05/06/2013  01:00:00       31.334       54.725      -12.516       18.613       23.231       13.958      346.453      539.690      194.837        0.261        0.054       63.061       13.298        0.044      338.727       11.576      855.127
05/06/2013  01:01:00       24.275       52.827       -3.573       29.888       26.545       16.399      893.277      704.657      268.916        0.263        0.093       58.137        9.783        0.028      338.680       11.495      855.132
05/06/2013  01:02:00       27.679       73.593       -9.187       18.333       16.646       15.173      336.082      277.083      230.212        0.355        0.042       78.626       11.517        0.021      338.703       11.533      855.147
05/06/2013  01:03:00       13.802       71.814       -9.701       20.145       24.214       12.456      405.823      586.327      155.164        0.329        0.057       73.128       12.018        0.027      338.735       11.588      855.157
05/06/2013  01:04:00        5.599        8.794       -0.850       12.675       25.677       14.058      160.650      659.294      197.636        0.056        0.051       10.425        6.746        0.419      338.907       11.877      855.166
05/06/2013  01:05:00       12.498       35.940       -1.793       13.315       24.913       10.008      177.277      620.633      100.165        0.117        0.045       38.051       12.323        0.105      338.836       11.759      855.164
05/06/2013  01:06:00       16.033       84.811      -15.323       16.980       13.187        7.704      288.308      173.903       59.359        0.410        0.026       86.314        8.568        0.010      338.934       11.924      855.166
05/06/2013  01:07:00       45.088       42.624        1.799       15.993       12.992       11.237      255.771      168.792      126.262        0.220        0.028       62.046        8.366        0.018      338.869       11.815      855.162
05/06/2013  01:08:00       22.209       78.899      -17.937       14.036       16.372        6.803      197.023      268.051       46.282        0.378        0.026       81.965        7.162        0.008      338.855       11.790      855.188
05/06/2013  01:09:00        0.698       63.299      -12.206        5.922       10.139        5.354       35.065      102.807       28.661        0.216        0.008       63.303        3.190        0.003      339.016       12.061      855.197
05/06/2013  01:10:00       14.701       59.399      -10.202       11.701       11.701        7.706      136.907      136.924       59.388        0.209        0.017       61.191        4.867        0.006      338.929       11.916      855.197
05/06/2013  01:11:00       20.816       57.968      -10.795       18.671       22.375       12.204      348.606      500.620      148.950        0.245        0.050       61.592       14.108        0.052      338.788       11.678      855.202
05/06/2013  01:12:00       29.380       95.076      -12.312       29.956       40.266       24.321      897.351     1621.337      591.528        0.658        0.156       99.511       25.134        0.064      338.832       11.751      855.217
05/06/2013  01:13:00       28.600      111.615      -17.910       31.083       48.942       27.851      966.133     2395.300      775.699        0.887        0.207      115.221       27.311        0.056      338.842       11.769      855.223
05/06/2013  01:14:00       -2.129      152.693      -19.126       21.954       43.111       22.212      481.971     1858.593      493.385        1.326        0.142      152.708       24.409        0.026      338.848       11.779      855.226
05/06/2013  01:15:00       -9.871      168.567      -19.494       18.159       31.811       16.311      329.752     1011.926      266.041        1.525        0.080      168.856        8.469        0.003      338.887       11.844      855.229
05/06/2013  01:16:00      -21.271      127.906      -14.923       31.203       26.879       16.449      973.598      722.474      270.576        0.950        0.098      129.663       12.405        0.009      338.969       11.982      855.231
05/06/2013  01:17:00      -50.299      168.753      -16.031       27.857       60.573       20.351      775.993     3669.036      414.180        1.806        0.243      176.090       17.908        0.010      338.954       11.955      855.255
05/06/2013  01:18:00        3.886       43.172       -2.964       22.598       28.911       17.369      510.668      835.828      301.668        0.177        0.082       43.346       13.570        0.098      338.920       11.899      855.248
05/06/2013  01:19:00       -5.046      128.202      -15.906       28.700       52.195       15.278      823.704     2724.345      233.431        1.025        0.189      128.301       17.449        0.018      338.919       11.898      855.250
05/06/2013  01:20:00      -46.456      138.523      -14.714       32.623       48.490       25.675     1064.275     2351.298      659.188        1.282        0.204      146.105       20.440        0.020      338.979       11.998      855.259
05/06/2013  01:21:00      -68.320       93.562      -12.614       34.090       41.375       23.165     1162.158     1711.930      536.621        0.850        0.171      115.851       17.059        0.022      338.944       11.941      855.257
05/06/2013  01:22:00      -38.457       30.783       -9.692       38.432       29.558       17.025     1477.038      873.651      289.845        0.258        0.132       49.260       16.541        0.113      338.966       11.977      855.248
05/06/2013  01:23:00      -67.105      142.235       -8.148       58.758       84.355       36.423     3452.497     7115.739     1326.664        1.835        0.595      157.270       39.152        0.062      338.951       11.952      855.241
05/06/2013  01:24:00      -68.062      198.482      -17.643       43.261       65.290       30.976     1871.530     4262.784      959.490        2.572        0.355      209.827       28.323        0.018      338.938       11.927      855.239
05/06/2013  01:25:00      -67.347       63.105        8.820       57.960       49.260       36.904     3359.348     2426.499     1361.919        0.787        0.357       92.292       36.520        0.157      338.937       11.928      855.243
05/06/2013  01:26:00      -65.538      108.818      -14.183       39.923       66.518       27.612     1593.847     4424.614      762.449        1.156        0.339      127.030       33.136        0.068      338.910       11.882      855.241
05/06/2013  01:27:00      -43.728      229.624      -24.667       58.258       65.087       34.345     3394.050     4236.375     1179.576        3.203        0.441      233.751       31.091        0.018      338.871       11.813      855.232
05/06/2013  01:28:00     -105.152      222.900      -24.381       60.239       73.731       33.836     3628.796     5436.216     1144.886        3.577        0.510      246.458       32.876        0.018      338.846       11.773      855.229
05/06/2013  01:29:00     -108.476      151.432      -31.437       61.515       57.374       33.211     3784.045     3291.775     1103.003        2.193        0.409      186.275       24.109        0.017      338.813       11.718      855.224
05/06/2013  01:30:00     -102.294      106.524      -20.505       53.399       57.216       38.505     2851.456     3273.668     1482.645        1.492        0.380      147.687       30.352        0.042      338.857       11.794      855.225
05/06/2013  01:31:00      -65.864      157.092       -9.293       64.674       68.928       37.656     4182.683     4751.038     1417.947        1.973        0.518      170.340       37.282        0.048      338.919       11.896      855.218
05/06/2013  01:32:00      -54.771       99.795        3.858       50.408       85.840       37.533     2540.951     7368.527     1408.746        1.214        0.566      113.837       36.843        0.105      338.965       11.972      855.218
05/06/2013  01:33:00      -73.221      126.520      -12.521       42.657       47.368       34.673     1819.628     2243.737     1202.208        1.339        0.263      146.180       32.493        0.049      338.973       11.988      855.231
05/06/2013  01:34:00      -50.711      197.662       -9.475       38.421       52.095       28.208     1476.183     2713.874      795.711        2.336        0.249      204.063       24.096        0.014      338.893       11.850      855.222
05/06/2013  01:35:00     -101.334      160.401      -25.771       69.541       73.342       37.922     4836.000     5379.120     1438.071        2.416        0.583      189.729       33.899        0.032      338.875       11.821      855.231
05/06/2013  01:36:00      -74.954      227.934      -19.955       63.605       80.146       41.267     4045.649     6423.346     1702.925        3.507        0.609      239.942       45.379        0.036      338.893       11.851      855.222
05/06/2013  01:37:00     -106.985      134.332      -13.863       63.558       67.096       41.225     4039.571     4501.902     1699.522        1.996        0.512      171.729       37.859        0.049      338.850       11.779      855.222
05/06/2013  01:38:00      -27.363      264.770      -27.527       51.163       73.222       31.508     2617.666     5361.406      992.729        4.029        0.449      266.180       17.606        0.004      338.773       11.651      855.198
05/06/2013  01:39:00      -78.542      159.717      -25.423       45.935       58.828       32.624     2110.065     3460.709     1064.301        1.948        0.332      177.984       21.128        0.014      338.842       11.767      855.185
05/06/2013  01:40:00      -94.305      122.194      -19.521       53.265       58.355       28.367     2837.177     3405.307      804.715        1.563        0.352      154.353       24.532        0.025      338.859       11.797      855.180
05/06/2013  01:41:00     -175.023      133.446      -35.874       87.779       74.762       43.260     7705.109     5589.354     1871.462        3.244        0.758      220.093       46.931        0.045      338.839       11.759      855.176
05/06/2013  01:42:00      -98.884       94.737      -25.811       57.892       48.982       29.078     3351.476     2399.272      845.541        1.301        0.330      136.942       27.180        0.039      338.853       11.785      855.168
05/06/2013  01:43:00      -44.602      117.993      -15.259       43.416       37.074       27.446     1884.907     1374.469      753.273        1.008        0.201      126.142       17.671        0.020      338.861       11.801      855.161
05/06/2013  01:44:00     -104.147      146.293      -19.272       61.956       66.719       51.211     3838.497     4451.393     2622.516        2.176        0.546      179.578       44.800        0.062      338.824       11.737      855.153
05/06/2013  01:45:00     -176.281       86.840      -26.586       71.913       85.652       32.313     5171.514     7336.242     1044.149        2.644        0.678      196.510       31.097        0.025      338.820       11.728      855.153
05/06/2013  01:46:00     -147.918       39.164      -23.868      100.833       55.181       32.772    10167.252     3044.944     1074.010        1.913        0.714      153.015       28.916        0.036      338.822       11.733      855.153
05/06/2013  01:47:00      -76.648        1.439       -6.728       39.839       47.807       29.940     1587.145     2285.545      896.423        0.534        0.238       76.662       19.944        0.068      338.843       11.771      855.161
05/06/2013  01:48:00     -125.024       41.457      -19.955       82.579       72.537       37.675     6819.353     5261.641     1419.402        1.562        0.675      131.718       30.618        0.054      338.956       11.959      855.148
05/06/2013  01:49:00      -82.920      -47.202        9.603       76.263       59.006       44.908     5816.010     3481.763     2016.739        1.025        0.566       95.413       43.666        0.209      339.007       12.045      855.153
05/06/2013  01:50:00     -126.243      -11.040      -13.783       69.315       42.222       22.419     4804.514     1782.696      502.621        1.167        0.354      126.725       22.387        0.031      339.024       12.074      855.162
05/06/2013  01:51:00      -47.482       52.260       -8.381       38.678       38.834       19.437     1496.013     1508.085      377.813        0.422        0.169       70.609       19.725        0.078      338.999       12.033      855.172
05/06/2013  01:52:00      -99.219       28.865      -21.645       38.371       58.395       28.643     1472.310     3409.989      820.430        0.842        0.285      103.332       31.183        0.091      338.927       11.911      855.168
05/06/2013  01:53:00      -69.068       62.657      -25.904       29.323       32.461       22.129      859.848     1053.745      489.696        0.588        0.120       93.254       20.609        0.049      338.877       11.826      855.151
05/06/2013  01:54:00      -83.947      -36.708       -1.592       55.342       64.483       31.590     3062.784     4158.071      997.902        0.831        0.411       91.622       27.473        0.090      338.906       11.875      855.141
05/06/2013  01:55:00      -57.041       28.865       -2.025       58.285       66.364       24.223     3397.095     4404.203      586.734        0.624        0.419       63.929       23.200        0.132      338.902       11.868      855.125
05/06/2013  01:56:00      -62.843      107.916      -15.599       49.540       49.310       38.833     2454.179     2431.453     1508.023        1.111        0.320      124.880       30.456        0.059      339.006       12.044      855.116
05/06/2013  01:57:00      -76.737       78.013      -16.778       23.761       42.435       21.198      564.600     1800.739      449.343        0.753        0.141      109.428       22.550        0.042      338.980       11.999      855.107
05/06/2013  01:58:00      -25.123      103.163       -3.448       25.603       52.233       24.477      655.490     2728.271      599.100        0.763        0.199      106.178       15.126        0.020      338.984       12.006      855.098
05/06/2013  01:59:00      -44.054      135.841      -15.845       36.851       48.654       22.709     1358.031     2367.215      515.689        1.244        0.212      142.806       17.555        0.015      338.938       11.929      855.084
05/06/2013  02:00:00      -52.964      158.138       -4.362       46.229       51.900       29.861     2137.089     2693.565      891.663        1.678        0.286      166.772       26.920        0.026      338.913       11.885      855.075
05/06/2013  02:01:00      -56.450      179.367      -15.003       31.702       53.552       24.908     1004.991     2867.804      620.417        2.004        0.225      188.040       21.179        0.013      338.893       11.852      855.069
05/06/2013  02:02:00      -34.058      166.844      -16.354       38.870       62.778       24.901     1510.889     3941.056      620.039        1.767        0.304      170.285       28.301        0.028      338.929       11.914      855.065
05/06/2013  02:03:00      -36.567      191.851      -22.021       29.983       53.168       26.671      898.982     2826.857      711.334        2.153        0.222      195.305       25.564        0.017      338.927       11.910      855.053
05/06/2013  02:04:00      -30.374      144.006      -17.514       42.586       38.059       24.167     1813.535     1448.524      584.040        1.291        0.192      147.174       20.137        0.019      338.909       11.881      855.060
05/06/2013  02:05:00      -79.078      209.786      -27.261       38.095       62.967       25.979     1451.266     3964.874      674.899        2.855        0.305      224.196       28.372        0.016      338.851       11.780      855.067
05/06/2013  02:06:00      -84.271       96.839      -16.525       55.529       53.851       26.206     3083.463     2899.975      686.736        1.171        0.334      128.372       17.495        0.019      338.911       11.884      855.067
05/06/2013  02:07:00      -72.666       53.480      -18.428       37.015       51.881       29.889     1370.132     2691.593      893.375        0.672        0.248       90.225       19.891        0.049      338.867       11.810      855.078
05/06/2013  02:08:00     -102.228       73.392      -17.188       52.043       36.298       28.765     2708.517     1317.512      827.423        1.049        0.243      125.845       18.036        0.021      338.873       11.819      855.075
05/06/2013  02:09:00      -87.463       21.011       -9.509       56.456       39.194       29.555     3187.287     1536.147      873.526        0.689        0.280       89.951       27.034        0.090      338.875       11.823      855.061
05/06/2013  02:10:00     -134.196       19.881      -13.217       59.832       33.258       25.045     3579.831     1106.116      627.240        1.194        0.266      135.661       24.690        0.033      338.865       11.806      855.062
05/06/2013  02:11:00      -91.498      -36.565       -7.963       50.454       31.490       17.754     2545.616      991.629      315.214        0.681        0.193       98.534       19.135        0.038      338.883       11.835      855.060
05/06/2013  02:12:00      -28.912        5.930       -1.771       33.404       40.630       19.791     1115.797     1650.822      391.694        0.202        0.158       29.514       18.403        0.389      338.899       11.864      855.051
05/06/2013  02:13:00      -83.914      -27.800       -4.890       27.086       19.458       18.599      733.665      378.626      345.925        0.465        0.073       88.399       15.049        0.029      338.879       11.829      855.041
05/06/2013  02:14:00      -71.251       -7.538       -4.752       18.108       23.240       14.074      327.895      540.078      198.079        0.311        0.053       71.649        9.837        0.019      338.845       11.774      855.049
05/06/2013  02:15:00      -70.543       41.537      -16.327       15.815       43.333       13.351      250.119     1877.734      178.248        0.464        0.115       81.863       15.807        0.037      338.860       11.800      855.054
05/06/2013  02:16:00      -77.270      115.251      -15.264       27.257       35.530       20.568      742.949     1262.407      423.035        1.096        0.121      138.756       15.258        0.012      338.861       11.798      855.049
05/06/2013  02:17:00      -92.815      146.059      -20.122       33.404       24.991       19.859     1115.816      624.557      394.384        1.624        0.107      173.054       18.968        0.012      338.869       11.814      855.045
05/06/2013  02:18:00      -75.164       72.152      -18.193       27.867       37.121       12.403      776.597     1377.999      153.828        0.675        0.115      104.190       15.215        0.021      338.943       11.937      855.045
05/06/2013  02:19:00      -42.113       52.888       -5.915       36.062       27.175       19.219     1300.433      738.469      369.359        0.351        0.120       67.606       16.566        0.060      338.875       11.824      855.049
05/06/2013  02:20:00      -61.943      154.555      -12.789       40.534       52.575       28.387     1643.000     2764.167      805.794        1.655        0.261      166.506       19.656        0.014      338.825       11.738      855.043
05/06/2013  02:21:00      -98.194       52.799       -0.567       41.396       56.630       30.779     1713.660     3206.972      947.323        0.915        0.293      111.489       30.797        0.076      338.867       11.810      855.032
05/06/2013  02:22:00     -173.528        9.417      -17.534       44.412       38.180       22.045     1972.417     1457.705      485.986        1.721        0.196      173.784       13.761        0.006      338.838       11.759      855.024
05/06/2013  02:23:00     -129.690      -39.148      -15.670       47.726       34.696       23.160     2277.771     1203.816      536.367        1.131        0.201      135.470       14.701        0.012      338.884       11.837      854.980
05/06/2013  02:24:00      -84.154       27.347      -12.596       27.202       28.817       16.581      739.937      830.447      274.939        0.492        0.092       88.486       15.444        0.030      338.867       11.812      854.960
05/06/2013  02:25:00     -100.867      -32.473      -10.346       21.734       25.487       15.928      472.369      649.576      253.705        0.636        0.069      105.965       10.256        0.009      338.838       11.763      854.942
05/06/2013  02:26:00     -120.181      -40.899       -7.170       32.962       30.848       21.940     1086.502      951.589      481.359        0.934        0.126      126.949       15.751        0.015      338.876       11.827      854.912
05/06/2013  02:27:00     -106.099      -42.580       -7.467       40.815       35.742       22.061     1665.838     1277.494      486.679        0.828        0.172      114.324       11.000        0.009      338.909       11.881      854.892
05/06/2013  02:28:00     -100.134      -24.115       -6.183       32.444       36.788       14.203     1052.611     1353.371      201.724        0.663        0.130      102.997       12.364        0.014      338.833       11.753      854.888
05/06/2013  02:29:00      -99.106      -11.425       -6.800       27.545       21.519       16.938      758.742      463.062      286.912        0.575        0.075       99.763       13.892        0.019      338.815       11.721      854.876
05/06/2013  02:30:00      -92.714      -34.154       -7.111       31.303       27.760       14.472      979.861      770.601      209.435        0.589        0.098       98.805       15.239        0.024      338.800       11.697      854.871
05/06/2013  02:31:00     -102.458      -59.454      -10.035       43.953       22.792       18.222     1931.824      519.467      332.050        0.846        0.139      118.458       19.997        0.028      338.859       11.797      854.857
05/06/2013  02:32:00      -65.797      -38.276        2.749       36.072       20.405       20.635     1301.181      416.346      425.802        0.397        0.107       76.120       17.209        0.051      338.859       11.797      854.848
05/06/2013  02:33:00      -67.244      -35.766        0.668       31.973       32.338       17.372     1022.286     1045.751      301.795        0.409        0.118       76.164        7.166        0.009      338.863       11.804      854.854
05/06/2013  02:34:00      -62.362      -56.276       -4.824       27.336       30.029       21.280      747.272      901.738      452.823        0.459        0.105       84.000        9.829        0.014      338.869       11.813      854.862
05/06/2013  02:35:00      -60.397      -26.727        2.116       35.572       34.875       21.849     1265.398     1216.280      477.380        0.366        0.148       66.047       16.463        0.062      338.863       11.802      854.863
05/06/2013  02:36:00      -77.537      -41.802       -5.967       42.086       21.363       20.128     1771.248      456.361      405.150        0.521        0.132       88.087       18.935        0.046      338.822       11.735      854.866
05/06/2013  02:37:00     -122.343      -30.428       -5.494       40.983       29.761       19.478     1679.619      885.729      379.409        0.943        0.147      126.070       22.731        0.033      338.763       11.635      854.877
05/06/2013  02:38:00      -55.010      -22.533        6.202       30.321       27.384       15.261      919.384      749.873      232.904        0.274        0.095       59.446       14.228        0.057      338.740       11.598      854.886
05/06/2013  02:39:00      -88.641      -23.824       -3.613       21.606       24.045       17.715      466.802      578.155      313.830        0.490        0.068       91.787       10.554        0.013      338.807       11.709      854.885
05/06/2013  02:40:00      -86.369      -38.735      -16.952       33.142       29.487       15.921     1098.388      869.454      253.474        0.573        0.111       94.657       11.502        0.015      338.793       11.686      854.881
05/06/2013  02:41:00      -81.225      -19.303       -9.481       28.455       20.733       14.891      809.681      429.869      221.740        0.426        0.073       83.487       14.763        0.031      338.776       11.657      854.875
05/06/2013  02:42:00     -104.977      -11.801      -10.068       29.315       27.139       16.007      859.341      736.542      256.226        0.656        0.093      105.638       14.594        0.019      338.770       11.646      854.864
05/06/2013  02:43:00     -100.736      -47.324       -8.462       30.854       27.663       15.663      951.967      765.261      245.316        0.721        0.098      111.298       14.837        0.018      338.715       11.553      854.857
05/06/2013  02:44:00      -74.437      -17.808       -4.536       21.891       23.372       13.245      479.230      546.266      175.418        0.354        0.060       76.538        6.976        0.008      338.789       11.679      854.859
05/06/2013  02:45:00      -69.269       -4.088       -7.734       24.074       19.547       13.306      579.546      382.079      177.046        0.301        0.057       69.390        5.490        0.006      338.803       11.701      854.860
05/06/2013  02:46:00      -85.403      -13.326      -12.469       13.531       18.196       11.113      183.086      331.109      123.488        0.413        0.032       86.436        5.650        0.004      338.772       11.651      854.864
05/06/2013  02:47:00      -42.846       -7.767        2.434       35.176       28.555       16.830     1237.332      815.389      283.244        0.212        0.117       43.544        9.054        0.043      338.762       11.633      854.870
05/06/2013  02:48:00      -57.170       10.351       -5.620       23.640       21.713       11.528      558.855      471.464      132.886        0.228        0.058       58.099        2.564        0.002      338.740       11.597      854.873
05/06/2013  02:49:00      -78.691       14.063      -10.629       27.891       17.213       12.445      777.884      296.290      154.876        0.387        0.061       79.938       10.150        0.016      338.727       11.573      854.879
05/06/2013  02:50:00     -110.998      -16.883       -9.462       24.355       37.546       11.859      593.155     1409.720      140.644        0.742        0.107      112.274       10.655        0.009      338.765       11.640      854.869
05/06/2013  02:51:00     -114.565      -49.781       -3.193       40.369       34.248       20.498     1629.651     1172.936      420.184        0.942        0.161      124.913       19.483        0.024      338.674       11.484      854.864
05/06/2013  02:52:00     -148.454      -19.081       -4.382       68.668       41.551       22.421     4715.341     1726.500      502.681        1.468        0.347      149.675       29.831        0.040      338.656       11.454      854.855
05/06/2013  02:53:00     -129.636      -37.308      -13.438       48.164       44.511       21.442     2319.725     1981.243      459.757        1.157        0.238      134.898       22.524        0.028      338.641       11.431      854.857
05/06/2013  02:54:00     -152.961      -28.760       -5.399       43.668       31.664       26.044     1906.928     1002.580      678.296        1.392        0.179      155.641       22.898        0.022      338.608       11.374      854.850
05/06/2013  02:55:00     -150.406      -14.088      -10.713       39.196       30.251       22.325     1536.344      915.151      498.389        1.294        0.147      151.065       23.172        0.024      338.599       11.360      854.855
05/06/2013  02:56:00     -122.942      -40.287        3.623       52.429       35.790       26.929     2748.846     1280.897      725.168        1.075        0.238      129.375       27.908        0.047      338.585       11.336      854.852
05/06/2013  02:57:00      -89.951      -29.173        1.144       35.671       28.057       20.129     1272.439      787.218      405.191        0.570        0.123       94.564       18.118        0.037      338.588       11.342      854.844
05/06/2013  02:58:00      -96.417      -37.563      -12.796       28.495       32.294       17.372      811.991     1042.907      301.787        0.651        0.108      103.476       12.772        0.015      338.593       11.352      854.843
05/06/2013  02:59:00      -68.012       -2.081       -7.684       16.801       22.466       13.674      282.267      504.708      186.976        0.283        0.049       68.044       11.240        0.027      338.577       11.323      854.841
05/06/2013  03:00:00      -58.182       18.484      -11.510       17.462       13.223        8.852      304.904      174.861       78.353        0.221        0.028       61.047        5.227        0.007      338.574       11.320      854.839
05/06/2013  03:01:00      -71.022       28.958       -7.041       23.294       16.982       14.244      542.613      288.394      202.904        0.348        0.052       76.699       15.247        0.040      338.544       11.270      854.849
05/06/2013  03:02:00      -46.925       -0.007       -0.896       10.660       15.086        8.594      113.645      227.588       73.864        0.131        0.021       46.925        5.036        0.012      338.575       11.322      854.842
05/06/2013  03:03:00      -40.857        5.140        1.830       17.797       14.842        9.019      316.744      220.285       81.351        0.116        0.031       41.179        8.119        0.039      338.591       11.347      854.828
05/06/2013  03:04:00      -42.819       10.755        0.069       13.068       12.992        9.555      170.765      168.788       91.294        0.119        0.022       44.149        4.051        0.008      338.616       11.389      854.822
05/06/2013  03:05:00      -50.031       20.058       -7.593       30.096       15.853       13.905      905.758      251.311      193.359        0.216        0.068       53.902       14.106        0.068      338.642       11.431      854.812
05/06/2013  03:06:00     -108.223      -17.359      -15.600       16.193       21.724       11.464      262.204      471.925      131.423        0.656        0.043      109.606        6.783        0.004      338.622       11.398      854.802
05/06/2013  03:07:00     -108.476      -62.362       -6.247       35.092       26.829       17.324     1231.414      719.820      300.111        0.897        0.113      125.125       14.560        0.014      338.563       11.302      854.782
05/06/2013  03:08:00      -82.831      -23.925       -3.075       13.403       12.865       10.801      179.628      165.502      116.667        0.395        0.023       86.218        7.549        0.008      338.552       11.282      854.781
05/06/2013  03:09:00      -25.835        1.828       12.974       29.506       31.364       22.258      870.606      983.728      495.409        0.159        0.117       25.899       26.417        1.040      338.564       11.302      854.771
05/06/2013  03:10:00      -68.420      133.783      -22.653       33.851       77.531       26.004     1145.860     6010.997      676.206        1.546        0.392      150.263       21.378        0.020      338.622       11.397      854.770
05/06/2013  03:11:00     -131.312       37.481      -20.233       36.660       41.215       25.507     1343.965     1698.646      650.585        1.137        0.185      136.556        9.201        0.005      338.605       11.370      854.750
05/06/2013  03:12:00      -70.849       74.425      -14.628       46.306       39.700       27.970     2144.201     1576.124      782.345        0.764        0.225      102.755       27.261        0.070      338.596       11.355      854.739
05/06/2013  03:13:00      -52.147       73.270      -10.796       35.855       39.774       17.400     1285.572     1581.938      302.751        0.569        0.159       89.932       15.645        0.030      338.631       11.414      854.732
05/06/2013  03:14:00      -42.273       87.428       -2.765       51.743       42.363       31.402     2677.332     1794.583      986.060        0.745        0.273       97.111       22.737        0.055      338.640       11.430      854.708
05/06/2013  03:15:00     -193.138      156.387      -37.814       87.615       77.050       43.970     7676.468     5936.716     1933.404        3.937        0.777      248.514       44.297        0.032      338.500       11.188      854.685
05/06/2013  03:16:00     -144.602      155.105      -36.964       51.656       81.008       41.567     2668.349     6562.237     1727.817        2.864        0.548      212.054       31.589        0.022      338.452       11.109      854.668
05/06/2013  03:17:00     -177.179      201.970      -49.583       61.764       74.019       47.193     3814.847     5478.874     2227.218        4.308        0.576      268.672       46.055        0.029      338.424       11.062      854.642
05/06/2013  03:18:00     -216.576      217.325      -49.047       80.744       82.403       43.422     6519.622     6790.252     1885.427        5.587        0.760      306.815       44.682        0.021      338.411       11.041      854.624
05/06/2013  03:19:00     -127.003      229.511      -34.484       62.801      103.793       49.234     3943.958    10772.993     2423.961        4.356        0.857      262.307       51.012        0.038      338.393       11.012      854.608
05/06/2013  03:20:00      -80.686      113.351       -7.599       53.775       70.407       38.152     2891.718     4957.151     1455.539        1.436        0.465      139.136       30.030        0.047      338.425       11.069      854.590
05/06/2013  03:21:00     -124.789      156.016      -18.087       60.523       82.938       40.233     3663.025     6878.723     1618.656        2.620        0.608      199.784       38.468        0.037      338.418       11.052      854.585
05/06/2013  03:22:00     -129.343       82.946      -25.799       74.433       72.141       34.156     5540.252     5204.320     1166.610        1.809        0.596      153.655       27.615        0.032      338.450       11.110      854.585
05/06/2013  03:23:00      -89.701       79.386       -7.231       49.499       41.474       36.635     2450.145     1720.065     1342.093        0.996        0.276      119.785       31.230        0.068      338.432       11.079      854.588
05/06/2013  03:24:00      -45.003       59.037      -11.136       43.588       39.056       24.794     1899.956     1525.371      614.758        0.484        0.202       74.234       23.375        0.099      338.511       11.212      854.575
05/06/2013  03:25:00     -141.340      241.288      -43.769       65.748      112.620       43.807     4322.737    12683.203     1919.044        4.952        0.946      279.638       43.119        0.024      338.439       11.087      854.562
05/06/2013  03:26:00      -98.891      141.888      -26.379       50.006       60.502       36.544     2500.644     3660.462     1335.447        1.905        0.375      172.950       32.068        0.034      338.427       11.069      854.547
05/06/2013  03:27:00     -132.375      159.201      -21.079       88.195       66.282       41.111     7778.370     4393.319     1690.081        2.858        0.693      207.046       36.352        0.031      338.449       11.104      854.542
05/06/2013  03:28:00     -128.388      180.518      -32.777      107.164       74.325       46.659    11484.178     5524.140     2177.100        3.466        0.959      221.518       56.329        0.065      338.462       11.127      854.503
05/06/2013  03:29:00      -99.634      145.967      -21.883       41.312       55.545       34.029     1706.720     3085.262     1157.975        1.883        0.297      176.729       27.611        0.024      338.459       11.122      854.502
05/06/2013  03:30:00     -113.428       89.545       -6.949      102.991       88.267       47.882    10607.121     7791.050     2292.718        2.081        1.035      144.514       51.657        0.128      338.487       11.170      854.503
05/06/2013  03:31:00     -106.486      182.586      -23.282       53.804       98.252       41.448     2894.890     9653.495     1717.978        2.974        0.713      211.369       39.531        0.035      338.510       11.207      854.500
05/06/2013  03:32:00     -136.699      140.203      -38.759       82.337       97.066       40.230     6779.424     9421.883     1618.432        2.883        0.891      195.815       33.494        0.029      338.537       11.253      854.503
05/06/2013  03:33:00     -103.535      216.015      -28.240       72.672       86.882       40.871     5281.289     7548.545     1670.476        3.634        0.725      239.545       48.552        0.041      338.549       11.273      854.520
05/06/2013  03:34:00     -143.930      165.620      -20.457       67.123       78.970       41.280     4505.528     6236.295     1704.078        3.050        0.622      219.421       41.354        0.036      338.594       11.349      854.528
05/06/2013  03:35:00     -107.556      127.229      -12.424       71.304       80.135       46.368     5084.322     6421.696     2149.977        2.078        0.683      166.600       47.311        0.081      338.605       11.368      854.545
05/06/2013  03:36:00      -86.973      135.294       -9.578       57.346       81.503       32.680     3288.578     6642.817     1068.009        1.848        0.550      160.837       32.886        0.042      338.628       11.407      854.552
05/06/2013  03:37:00     -160.512      100.508      -23.294       68.849       88.015       41.663     4740.192     7746.559     1735.786        2.531        0.711      189.383       31.892        0.028      338.650       11.443      854.565
05/06/2013  03:38:00      -91.347      138.072      -20.605       84.006       87.741       40.579     7057.038     7698.440     1646.684        2.211        0.820      165.554       44.278        0.072      338.649       11.443      854.561
05/06/2013  03:39:00     -217.339       85.217      -39.407       90.343       87.103       51.787     8161.849     7587.009     2681.870        3.724        0.922      233.448       58.829        0.064      338.684       11.498      854.560
05/06/2013  03:40:00     -164.838      146.594      -35.536       77.288       77.503       42.148     5973.436     6006.718     1776.435        3.184        0.688      220.593       39.822        0.033      338.662       11.461      854.562
05/06/2013  03:41:00     -183.401       93.453      -13.927       80.642       56.570       47.416     6503.149     3200.147     2248.297        2.726        0.598      205.839       42.917        0.043      338.663       11.466      854.577
05/06/2013  03:42:00      -93.997       84.529      -17.100       45.726       64.458       32.457     2090.857     4154.790     1053.486        1.178        0.365      126.414       24.299        0.037      338.679       11.493      854.598
05/06/2013  03:43:00      -61.005       41.624      -12.823       49.036       67.115       30.888     2404.563     4504.371      954.094        0.674        0.393       73.853       13.488        0.033      338.729       11.578      854.597
05/06/2013  03:44:00      -59.649       51.159      -11.199       39.138       63.823       39.005     1531.804     4073.433     1521.369        0.671        0.356       78.583       31.857        0.164      338.684       11.502      854.615
05/06/2013  03:45:00     -145.578      -53.468      -11.607       90.294       52.517       34.871     8153.053     2757.991     1215.999        1.815        0.606      155.087       35.544        0.053      338.696       11.520      854.624
05/06/2013  03:46:00     -128.562       27.007      -21.912       80.761       72.451       43.343     6522.316     5249.113     1878.652        1.569        0.683      131.368       40.526        0.095      338.668       11.474      854.641
05/06/2013  03:47:00     -175.369       -7.789       -7.091       90.009       69.908       39.771     8101.674     4887.085     1581.694        2.272        0.729      175.542       42.131        0.058      338.642       11.430      854.666
05/06/2013  03:48:00     -180.134       -3.890      -17.709       89.692       77.748       50.241     8044.565     6044.751     2524.188        2.469        0.831      180.176       50.479        0.078      338.674       11.482      854.670
05/06/2013  03:49:00      -92.790      -29.246       -6.811       89.496       61.210       40.053     8009.555     3746.707     1604.215        1.143        0.668       97.290       40.055        0.170      338.684       11.499      854.680
05/06/2013  03:50:00      -87.009       -1.522       -9.856       51.218       47.057       33.011     2623.262     2214.393     1089.745        0.680        0.296       87.022       29.313        0.113      338.684       11.503      854.695
05/06/2013  03:51:00     -108.201       -5.483      -16.642       45.119       65.417       27.498     2035.700     4279.376      756.142        0.954        0.354      108.340       19.989        0.034      338.678       11.491      854.706
05/06/2013  03:52:00      -92.142      -24.604        1.072       40.283       44.340       26.078     1622.699     1965.994      680.058        0.668        0.213       95.370       16.900        0.031      338.656       11.455      854.717
05/06/2013  03:53:00      -93.889      -42.199        1.181       55.686       35.265       27.922     3100.963     1243.635      779.663        0.786        0.256      102.937       23.892        0.054      338.672       11.482      854.722
05/06/2013  03:54:00      -60.165       51.680       -4.431       37.268       62.836       37.650     1388.900     3948.316     1417.512        0.653        0.338       79.314       29.749        0.141      338.670       11.477      854.724
05/06/2013  03:55:00      -58.501        3.311       12.972       29.729       48.568       24.048      883.837     2358.827      578.294        0.371        0.191       58.594       18.068        0.095      338.653       11.450      854.722
05/06/2013  03:56:00      -51.117      -24.962       -2.913       40.658       26.008       25.225     1653.103      676.402      636.280        0.310        0.148       56.886        8.836        0.024      338.765       11.637      854.722
05/06/2013  03:57:00      -34.135      -20.427       -2.748       31.271       22.748       16.012      977.895      517.460      256.387        0.167        0.088       39.780       11.759        0.087      338.669       11.478      854.726
05/06/2013  03:58:00      -15.061       -4.594       -5.816       34.581       21.991       20.853     1195.871      483.613      434.838        0.120        0.106       15.746        8.974        0.325      338.671       11.481      854.732
05/06/2013  03:59:00      -25.926       15.861        5.604       26.428       22.148       14.731      698.458      490.552      216.989        0.118        0.070       30.392        9.493        0.098      338.680       11.496      854.739
05/06/2013  04:00:00      -44.955        0.436       -0.313       26.871       34.473       14.314      722.026     1188.369      204.881        0.207        0.106       44.958       15.111        0.113      338.696       11.524      854.740
05/06/2013  04:01:00      -70.058      -44.721      -12.341       29.203       24.997       19.221      852.793      624.864      369.429        0.445        0.092       83.115       18.493        0.050      338.677       11.486      854.738
05/06/2013  04:02:00      -48.129      -19.177        4.574       38.353       16.917       16.031     1470.919      286.184      256.985        0.236        0.101       51.809       18.988        0.134      338.704       11.537      854.726
05/06/2013  04:03:00      -14.941      -19.440       12.667       30.210       21.537       14.928      912.643      463.856      222.839        0.118        0.080       24.518       13.411        0.299      338.785       11.672      854.718
05/06/2013  04:04:00        2.944       -4.701       11.784        7.649       10.878       10.802       58.503      118.323      116.686        0.023        0.015        5.547        5.392        0.945      338.875       11.824      854.710
05/06/2013  04:05:00       11.711       17.229        9.382       11.825       12.346       10.883      139.823      152.427      118.446        0.047        0.021       20.833        8.985        0.186      338.737       11.593      854.713
05/06/2013  04:06:00       14.269       37.943       -2.805        9.263       11.174        9.813       85.807      124.856       96.292        0.098        0.015       40.538        5.761        0.020      338.679       11.491      854.716
05/06/2013  04:07:00      -37.064       42.031      -13.883       38.904       25.378       11.605     1513.535      644.053      134.676        0.281        0.115       56.039       10.241        0.033      338.678       11.490      854.729
05/06/2013  04:08:00      -59.119        1.565       -9.827       44.107       27.388       15.437     1945.437      750.118      238.296        0.326        0.147       59.140       10.556        0.032      338.672       11.481      854.717
05/06/2013  04:09:00      -34.718      -31.765        0.806       26.948       17.197       18.136      726.176      295.722      328.930        0.178        0.068       47.057       20.252        0.185      338.657       11.457      854.710
05/06/2013  04:10:00       35.181       55.166        5.478       18.767       33.782       24.910      352.185     1141.253      620.519        0.321        0.106       65.430       24.295        0.138      338.646       11.440      854.695
05/06/2013  04:11:00       30.225       44.633       -0.768       32.187       31.316       22.485     1035.996      980.708      505.588        0.271        0.126       53.904       19.974        0.137      338.649       11.445      854.686
05/06/2013  04:12:00      -16.010       48.621        5.688       35.195       35.118       23.000     1238.664     1233.303      529.001        0.283        0.150       51.189       14.162        0.077      338.743       11.602      854.685
05/06/2013  04:13:00       -8.608       44.226        4.201       20.499       27.846       21.545      420.222      775.394      464.178        0.185        0.083       45.056       16.437        0.133      338.688       11.510      854.681
05/06/2013  04:14:00       48.122       23.451       12.030       23.523       16.150       16.692      553.320      260.827      278.631        0.205        0.055       53.532       12.647        0.056      338.648       11.442      854.664
05/06/2013  04:15:00       65.255       45.407        8.733       25.826       18.296       16.604      666.997      334.741      275.703        0.384        0.064       79.498       11.795        0.022      338.595       11.352      854.654
05/06/2013  04:16:00       63.502       51.254        4.996       17.297       26.144       24.875      299.188      683.526      618.774        0.414        0.080       81.606       20.548        0.063      338.568       11.308      854.638
05/06/2013  04:17:00       49.077       40.632       10.222       30.781       30.951       21.560      947.467      957.942      464.842        0.327        0.119       63.714       17.316        0.074      338.549       11.274      854.626
05/06/2013  04:18:00       58.046       25.184        9.074       40.568       25.115       21.714     1645.771      630.771      471.485        0.342        0.137       63.274       10.632        0.028      338.524       11.233      854.618
05/06/2013  04:19:00       16.114        7.953        0.317       22.529       17.639       12.082      507.558      311.126      145.971        0.064        0.048       17.970        7.627        0.180      338.507       11.206      854.616
05/06/2013  04:20:00       18.502       31.047       -4.337       17.802       18.992       11.669      316.900      360.694      136.162        0.107        0.041       36.142       10.377        0.082      338.527       11.240      854.609
05/06/2013  04:21:00        3.378       82.835       -8.205       21.788       37.132       17.646      474.709     1378.769      311.393        0.455        0.108       82.904       17.528        0.045      338.652       11.450      854.599
05/06/2013  04:22:00       17.434       53.228        7.158       32.038       25.224       15.937     1026.429      636.256      253.991        0.255        0.096       56.011       15.075        0.072      338.623       11.402      854.591
05/06/2013  04:23:00       69.275       43.346        5.244       18.667       17.504       18.150      348.463      306.390      329.431        0.384        0.049       81.718       11.518        0.020      338.539       11.261      854.588
05/06/2013  04:24:00       72.468       44.271        3.543       39.945       33.889       29.391     1595.635     1148.489      863.834        0.542        0.180       84.921       23.366        0.076      338.490       11.175      854.585
05/06/2013  04:25:00       76.910       84.264       -0.311       39.759       34.058       32.308     1580.756     1159.944     1043.817        0.840        0.189      114.085       26.369        0.053      338.439       11.093      854.600
05/06/2013  04:26:00       94.194       61.117       12.222       39.865       31.821       31.500     1589.203     1012.588      992.273        0.817        0.180      112.284       23.450        0.044      338.437       11.089      854.599
05/06/2013  04:27:00       19.438       73.070        4.108       55.296       61.561       33.996     3057.601     3789.737     1155.714        0.687        0.400       75.611       31.655        0.175      338.437       11.089      854.606
05/06/2013  04:28:00       43.581       69.142        4.818       37.754       50.825       37.583     1425.386     2583.154     1412.502        0.606        0.271       81.731       33.101        0.164      338.418       11.056      854.609
05/06/2013  04:29:00       45.578       67.841       -1.940       31.204       34.025       28.678      973.695     1157.684      822.414        0.482        0.148       81.730       22.566        0.076      338.394       11.013      854.609
05/06/2013  04:30:00       50.759       92.504       -5.263       40.876       45.399       30.593     1670.885     2061.076      935.931        0.791        0.233      105.515       27.986        0.070      338.405       11.032      854.603
05/06/2013  04:31:00       28.858       84.181       -2.030       41.018       64.050       31.124     1682.469     4102.464      968.700        0.734        0.338       88.991       32.639        0.135      338.401       11.026      854.593
05/06/2013  04:32:00       23.245       64.099        1.828       29.282       50.756       24.199      857.452     2576.165      585.582        0.434        0.201       68.183       22.286        0.107      338.378       10.989      854.582
05/06/2013  04:33:00       35.310       35.283       14.890       59.017       37.705       34.829     3483.004     1421.632     1213.072        0.441        0.306       49.916       28.827        0.334      338.377       10.987      854.578
05/06/2013  04:34:00       19.529       69.695       -0.290       32.398       52.468       27.630     1049.606     2752.930      763.405        0.490        0.228       72.379       29.509        0.166      338.390       11.010      854.574
05/06/2013  04:35:00      -11.294       40.068       -2.575       31.314       32.847       19.391      980.575     1078.911      376.016        0.209        0.122       41.629       20.515        0.243      338.417       11.052      854.571
05/06/2013  04:36:00        7.734       40.036        6.100       20.732       29.948       14.833      429.835      896.856      220.022        0.162        0.077       40.776       15.479        0.144      338.420       11.059      854.576
05/06/2013  04:37:00       12.449       37.003        1.137       17.499       30.699       18.066      306.206      942.453      326.368        0.155        0.079       39.041       18.437        0.223      338.468       11.140      854.575
05/06/2013  04:38:00        4.271       53.631       -9.226       21.212       22.496       13.850      449.960      506.086      191.811        0.206        0.057       53.800        6.056        0.013      338.472       11.147      854.570
05/06/2013  04:39:00        0.255        8.931        0.147       14.581       25.079       12.257      212.595      628.945      150.242        0.054        0.050        8.935       15.102        2.857      338.481       11.161      854.566
05/06/2013  04:40:00      -15.106       82.239      -13.992       15.263       47.797       16.654      232.970     2284.543      277.348        0.499        0.140       83.615       21.768        0.068      338.475       11.151      854.574
05/06/2013  04:41:00       -2.699       22.420      -14.257       26.919       44.885       13.810      724.623     2014.681      190.729        0.182        0.147       22.582       13.714        0.369      338.526       11.238      854.583
05/06/2013  04:42:00       -1.636       -4.617       10.447        9.120       16.965       20.662       83.181      287.815      426.910        0.047        0.040        4.898       13.218        7.282      338.581       11.330      854.568
05/06/2013  04:43:00      -13.982       13.209       15.726       18.340       27.350       13.150      336.364      748.026      172.910        0.094        0.063       19.235        4.852        0.064      338.567       11.306      854.591
05/06/2013  04:44:00        0.645       -9.225        4.999        8.896       12.391       12.807       79.143      153.537      164.022        0.025        0.020        9.247        7.759        0.704      338.563       11.298      854.623
05/06/2013  04:45:00        3.060       -7.401       -4.635        9.064        9.731        5.513       82.163       94.700       30.395        0.015        0.010        8.008        5.990        0.559      338.616       11.390      854.650
05/06/2013  04:46:00      -15.211      -17.338        2.020       15.724       18.700       14.213      247.251      349.683      202.013        0.067        0.040       23.064       11.527        0.250      338.652       11.450      854.662
05/06/2013  04:47:00      -30.305       -9.827       -3.166       17.277       13.689       11.596      298.486      187.383      134.476        0.082        0.031       31.858        6.614        0.043      338.632       11.414      854.682
05/06/2013  04:48:00      -21.260       -7.919        3.633       12.087       10.368        8.232      146.091      107.492       67.764        0.042        0.016       22.687        2.601        0.013      338.633       11.418      854.686
05/06/2013  04:49:00      -15.204       -2.914        1.210       13.165        8.307       10.572      173.330       69.012      111.760        0.030        0.018       15.481        8.209        0.281      338.627       11.405      854.694
05/06/2013  04:50:00      -35.076        2.295       -7.733       17.537       16.546        8.675      307.547      273.777       75.262        0.098        0.033       35.151        7.008        0.040      338.605       11.369      854.716
05/06/2013  04:51:00      -15.033        0.123        2.165       14.814        5.474        5.239      219.440       29.966       27.444        0.025        0.014       15.033        7.396        0.242      338.636       11.420      854.731
05/06/2013  04:52:00       -5.480       -1.499        2.327       12.008        5.599        6.010      144.200       31.348       36.119        0.012        0.011        5.681        3.923        0.477      338.627       11.405      854.744
05/06/2013  04:53:00      -24.771       -7.235        3.444       21.222       11.878       11.091      450.385      141.087      123.019        0.070        0.036       25.806        6.865        0.071      338.653       11.451      854.741
05/06/2013  04:54:00      -25.682       21.823        0.899       17.586       22.916       15.930      309.268      525.140      253.760        0.111        0.054       33.702        6.641        0.039      338.659       11.459      854.738
05/06/2013  04:55:00        7.489      -93.820        4.276       49.585       40.590       35.260     2458.703     1647.563     1243.272        0.711        0.267       94.118       23.731        0.064      338.680       11.496      854.731
05/06/2013  04:56:00       -5.851      -54.946        6.774       48.860       49.560       32.261     2387.332     2456.174     1040.746        0.449        0.294       55.257       22.422        0.165      338.726       11.575      854.726
05/06/2013  04:57:00       -8.519      -27.146       16.377       27.500       28.979       21.842      756.251      839.779      477.090        0.158        0.104       28.451        8.328        0.086      338.739       11.595      854.738
05/06/2013  04:58:00       -8.555      -15.852       13.403       13.476       33.783       21.453      181.592     1141.285      460.215        0.114        0.089       18.013       16.992        0.890      338.728       11.576      854.740
05/06/2013  04:59:00      -13.626       24.156       46.171       14.665       26.175       16.452      215.058      685.110      270.665        0.204        0.059       27.734       17.438        0.395      338.633       11.415      854.750
05/06/2013  05:00:00       -7.263       42.861       74.459       15.937       27.880       18.605      253.994      777.283      346.163        0.441        0.069       43.472       19.171        0.194      338.621       11.397      854.753
05/06/2013  05:01:00       35.966       51.962       37.320       29.069       27.827       29.371      844.992      774.367      862.667        0.393        0.124       63.195       22.350        0.125      338.600       11.361      854.755
05/06/2013  05:02:00       15.054       55.906       51.097       27.584       27.637       20.789      760.872      763.788      432.192        0.396        0.098       57.897       14.265        0.061      338.595       11.353      854.763
05/06/2013  05:03:00       11.344       90.051       92.559       27.763       34.439       22.863      770.762     1186.056      522.705        0.964        0.124       90.762       21.674        0.057      338.561       11.297      854.767
05/06/2013  05:04:00       17.407       36.004       59.659       24.576       51.842       30.574      603.969     2687.597      934.748        0.469        0.211       39.992       31.820        0.633      338.537       11.256      854.788
05/06/2013  05:05:00       36.395       47.876       42.073       25.854       29.142       16.508      668.433      849.269      272.524        0.359        0.090       60.139       11.383        0.036      338.504       11.199      854.797
05/06/2013  05:06:00       68.810       33.771       17.881       25.979       25.774       17.687      674.889      664.316      312.814        0.392        0.083       76.650        9.717        0.016      338.444       11.100      854.807
05/06/2013  05:07:00       65.689       54.909       -0.153       24.390       15.825       15.105      594.878      250.433      228.176        0.420        0.054       85.615        9.131        0.011      338.419       11.059      854.816
05/06/2013  05:08:00       18.396       40.922        1.762       14.068       15.212       14.154      197.899      231.402      200.341        0.132        0.031       44.867        7.488        0.028      338.442       11.095      854.822
05/06/2013  05:09:00       25.727       42.853       -4.385       13.096       15.942        8.500      171.501      254.133       72.252        0.151        0.025       49.982        7.899        0.025      338.460       11.126      854.826
05/06/2013  05:10:00       38.230       35.062        1.224       14.360       20.613        6.820      206.211      424.887       46.506        0.168        0.034       51.873        6.448        0.015      338.463       11.131      854.818
05/06/2013  05:11:00       43.073       49.132        0.096       14.555       12.838        9.621      211.861      164.821       92.570        0.237        0.023       65.340        7.348        0.013      338.504       11.204      854.811
05/06/2013  05:12:00       45.316       39.382        7.984       10.004        8.627       10.360      100.081       74.428      107.335        0.198        0.014       60.038        7.348        0.015      338.513       11.217      854.810
05/06/2013  05:13:00       37.746       39.323       14.836       13.761        9.246       12.980      189.361       85.497      168.478        0.182        0.022       54.507        8.286        0.023      338.516       11.220      854.804
05/06/2013  05:14:00       47.098       50.926       11.479       18.743       18.926       16.992      351.315      358.175      288.744        0.297        0.050       69.367        9.183        0.018      338.532       11.249      854.797
05/06/2013  05:15:00       70.919       54.100       30.197       17.703       12.451       17.250      313.401      155.015      297.555        0.482        0.038       89.198        4.925        0.003      338.515       11.219      854.790
05/06/2013  05:16:00       78.300       57.202       18.840       21.515       15.171       14.282      462.906      230.173      203.982        0.533        0.045       96.969        8.381        0.007      338.518       11.222      854.800
05/06/2013  05:17:00      107.842       61.531        2.975       22.738       29.613       23.335      517.024      876.932      544.517        0.868        0.097      124.161       19.291        0.024      338.544       11.265      854.806
05/06/2013  05:18:00       31.992       84.446      -10.816       27.622       45.375       26.352      762.979     2058.895      694.404        0.589        0.176       90.303       17.906        0.039      338.589       11.341      854.814
05/06/2013  05:19:00       15.631       81.467       -5.236       27.950       48.530       16.932      781.227     2355.186      286.694        0.517        0.171       82.953       20.920        0.064      338.595       11.353      854.813
05/06/2013  05:20:00       -6.268       55.258       -0.208       13.713       25.774       16.554      188.049      664.309      274.050        0.211        0.056       55.612        8.027        0.021      338.594       11.350      854.825
05/06/2013  05:21:00        5.932       18.292      -11.754       13.461       11.007        7.555      181.186      121.158       57.071        0.043        0.018       19.229        5.077        0.070      338.610       11.382      854.827
05/06/2013  05:22:00      -20.864       72.697      -10.409       42.072       36.688       18.978     1770.041     1346.027      360.162        0.465        0.174       75.632       16.396        0.047      338.617       11.392      854.830
05/06/2013  05:23:00      -13.235        6.554        4.554       31.076       16.660       12.351      965.697      277.541      152.542        0.082        0.070       14.769       17.561        1.414      338.618       11.390      854.827
05/06/2013  05:24:00       19.655       22.087        2.389       14.196       19.500       14.661      201.540      380.255      214.957        0.084        0.040       29.566       14.191        0.230      338.596       11.354      854.822
05/06/2013  05:25:00       13.992       63.162       -0.104       25.340       38.051       18.719      642.126     1447.906      350.406        0.331        0.122       64.693       20.963        0.105      338.565       11.305      854.830
05/06/2013  05:26:00      -26.082      105.459        4.030       36.369       43.539       21.478     1322.738     1895.611      461.323        0.775        0.184      108.636       19.375        0.032      338.625       11.403      854.846
05/06/2013  05:27:00      -26.917       68.001       -0.394       26.985       27.732       14.112      728.215      769.042      199.143        0.352        0.085       73.135       14.980        0.042      338.642       11.431      854.846
05/06/2013  05:28:00      -27.357       51.451       -2.981       25.908       31.062       18.189      671.205      964.876      330.824        0.269        0.098       58.272       12.241        0.044      338.607       11.373      854.848
05/06/2013  05:29:00      -40.163       12.949       -8.324       27.658       22.283       17.150      764.964      496.519      294.137        0.170        0.078       42.198       14.735        0.122      338.597       11.355      854.853
05/06/2013  05:30:00      -61.755       30.106       -8.669       29.610       19.583       16.476      876.771      383.511      271.463        0.316        0.077       68.702       19.796        0.083      338.571       11.314      854.860
05/06/2013  05:31:00      -74.417       19.569      -14.488       19.673       15.352       12.559      387.025      235.699      157.741        0.346        0.039       76.947        8.049        0.011      338.571       11.313      854.860
05/06/2013  05:32:00      -26.092       -0.723        4.167       12.007       10.562       10.354      144.167      111.566      107.214        0.053        0.018       26.102        7.131        0.075      338.559       11.294      854.852
05/06/2013  05:33:00      -56.550       -8.505       -6.428       18.915       20.736       12.565      357.785      429.984      157.869        0.213        0.047       57.186       11.689        0.042      338.623       11.400      854.847
05/06/2013  05:34:00      -37.075      -23.937       -2.351       18.791       15.211       10.850      353.114      231.378      117.731        0.133        0.035       44.131        9.193        0.043      338.627       11.408      854.849
05/06/2013  05:35:00      -81.383      -46.565       -8.814       40.140       29.755       14.248     1611.205      885.335      202.992        0.578        0.135       93.763        9.660        0.011      338.601       11.362      854.852
05/06/2013  05:36:00     -129.437      -28.547       -3.148       50.955       30.200       25.083     2596.398      912.042      629.147        1.086        0.207      132.547       26.428        0.040      338.457       11.120      854.856
05/06/2013  05:37:00      -81.222       -0.734       -1.427       30.140       31.343       16.772      908.435      982.398      281.312        0.439        0.109       81.225       15.017        0.034      338.433       11.082      854.869
05/06/2013  05:38:00      -25.436      -61.351       -8.558       16.549       28.646       13.928      273.872      820.574      193.993        0.289        0.064       66.415       11.688        0.031      338.498       11.190      854.868
05/06/2013  05:39:00      -66.980      -29.064       -3.432       30.791       27.200       14.031      948.083      739.832      196.872        0.361        0.094       73.014        6.808        0.009      338.515       11.219      854.877
05/06/2013  05:40:00      -16.690      -59.685      -14.807       27.613       34.142       23.812      762.494     1165.655      567.010        0.328        0.125       61.975       10.886        0.031      338.670       11.480      854.889
05/06/2013  05:41:00      -42.610      -68.862       -2.605       32.551       27.156       18.386     1059.558      737.460      338.047        0.435        0.107       80.979        7.803        0.009      338.615       11.387      854.889
05/06/2013  05:42:00      -73.603      -87.511       -4.942       50.993       42.251       26.251     2600.285     1785.153      689.102        0.909        0.254      114.349       29.476        0.066      338.553       11.282      854.900
05/06/2013  05:43:00      -59.778      -85.346       -4.364       48.975       49.333       25.502     2398.569     2433.724      650.357        0.818        0.274      104.198       19.237        0.034      338.471       11.145      854.915
05/06/2013  05:44:00     -110.184     -123.789      -13.930       29.650       36.157       20.194      879.113     1307.319      407.799        1.513        0.130      165.723       16.807        0.010      338.404       11.031      854.945
05/06/2013  05:45:00      -86.532      -58.479        2.705       23.914       40.999       24.394      571.878     1680.934      595.057        0.688        0.142      104.439       12.035        0.013      338.426       11.068      854.946
05/06/2013  05:46:00      -68.203      -50.915        7.183       57.487       33.831       26.529     3304.755     1144.569      703.797        0.622        0.258       85.112       21.574        0.064      338.486       11.171      854.955
05/06/2013  05:47:00     -121.737     -105.896       -3.751       52.008       30.862       29.800     2704.790      952.452      888.021        1.530        0.227      161.350       30.419        0.036      338.352       10.946      854.958
05/06/2013  05:48:00     -116.663      -82.483        3.690       67.280       46.083       38.144     4526.585     2123.654     1454.972        1.426        0.405      142.876       40.736        0.081      338.395       11.016      854.974
05/06/2013  05:49:00     -107.212      -81.772        2.200       74.196       47.282       35.371     5505.059     2235.629     1251.083        1.359        0.450      134.837       30.084        0.050      338.394       11.014      854.985
05/06/2013  05:50:00     -111.197      -85.345       -1.493       57.332       61.005       24.935     3286.951     3721.606      621.772        1.364        0.382      140.173       21.842        0.024      338.369       10.972      854.990
05/06/2013  05:51:00     -131.446     -125.896       -1.636       72.742       72.670       44.111     5291.337     5280.971     1945.798        2.282        0.626      182.010       45.153        0.062      338.392       11.008      854.987
05/06/2013  05:52:00     -176.386     -103.643      -12.406       54.340       47.180       29.048     2952.845     2225.922      843.808        2.401        0.301      204.582       25.119        0.015      338.345       10.931      855.002
05/06/2013  05:53:00     -151.074      -88.197       -2.716       67.574       59.536       37.109     4566.192     3544.553     1377.063        2.005        0.474      174.934       27.902        0.025      338.323       10.896      855.005
05/06/2013  05:54:00     -135.773      -75.977       -3.932       69.053       45.456       28.789     4768.249     2066.239      828.796        1.594        0.383      155.585       31.215        0.040      338.309       10.872      855.005
05/06/2013  05:55:00     -109.746      -86.203       -5.982       54.533       46.165       25.503     2973.832     2131.241      650.425        1.263        0.288      139.553       19.323        0.019      338.310       10.875      855.002
05/06/2013  05:56:00     -170.172      -62.997       -2.363       75.294       63.051       42.253     5669.177     3975.466     1785.350        2.218        0.571      181.458       43.923        0.059      338.276       10.815      854.998
05/06/2013  05:57:00     -127.504      -81.584       -6.490       78.343       69.469       38.653     6137.646     4825.941     1494.076        1.770        0.623      151.372       40.470        0.071      338.297       10.852      855.000
05/06/2013  05:58:00     -129.933      -14.820       -4.035       53.374       41.928       27.423     2848.803     1757.915      752.024        1.124        0.268      130.775       29.824        0.052      338.251       10.776      855.008
05/06/2013  05:59:00     -127.542      -46.710        0.895       74.241       46.182       32.575     5511.742     2132.748     1061.134        1.358        0.435      135.827       40.039        0.087      338.249       10.772      855.010
05/06/2013  06:00:00      -53.565      -54.335       10.365       35.475       29.859       25.141     1258.455      891.559      632.051        0.436        0.139       76.299       15.463        0.041      338.283       10.828      855.015
05/06/2013  06:01:00      -67.298      -43.647       14.454       47.636       35.121       27.676     2269.172     1233.462      765.938        0.546        0.213       80.213       26.294        0.107      338.336       10.919      855.016
05/06/2013  06:02:00      -62.885      -44.094        9.026       61.306       52.727       39.474     3758.455     2780.103     1558.167        0.704        0.405       76.804       46.418        0.365      338.294       10.847      855.027
05/06/2013  06:03:00      -74.258      -53.177        5.741       69.954       54.078       41.185     4893.566     2924.436     1696.216        0.894        0.476       91.334       48.296        0.280      338.236       10.751      855.044
05/06/2013  06:04:00     -127.473     -116.278        4.247       68.307       49.144       37.826     4665.903     2415.138     1430.801        1.915        0.426      172.540       39.762        0.053      338.188       10.669      855.056
05/06/2013  06:05:00     -122.281      -74.952       -3.781       56.092       53.924       30.753     3146.267     2907.821      945.738        1.379        0.350      143.424       30.828        0.046      338.207       10.700      855.062
05/06/2013  06:06:00     -143.652      -94.101       -8.327       51.205       56.604       25.834     2621.985     3204.032      667.399        1.803        0.325      171.730       12.844        0.006      338.189       10.670      855.077
05/06/2013  06:07:00     -119.892      -58.418       -5.970       40.179       57.131       27.663     1614.389     3263.995      765.220        1.173        0.282      133.367       28.542        0.046      338.198       10.687      855.081
05/06/2013  06:08:00      -89.953      -39.951        5.864       40.716       43.562       26.775     1657.778     1897.665      716.923        0.700        0.214       98.426       27.897        0.080      338.240       10.756      855.089
05/06/2013  06:09:00     -108.255      -45.061        4.814      101.582       46.761       36.010    10318.935     2186.636     1296.735        1.379        0.690      117.259       50.769        0.187      338.211       10.707      855.098
05/06/2013  06:10:00     -126.582      -56.085        3.060       73.817       51.136       36.451     5448.907     2614.892     1328.658        1.428        0.470      138.450       41.845        0.091      338.141       10.589      855.108
05/06/2013  06:11:00     -117.551      -66.869       -8.653       60.403       40.581       32.457     3648.469     1646.823     1053.433        1.236        0.317      135.240       32.925        0.059      338.178       10.651      855.108
05/06/2013  06:12:00     -184.458      -56.159      -10.944       57.252       47.553       28.479     3277.780     2261.263      811.053        2.182        0.318      192.817       27.580        0.020      338.133       10.574      855.100
05/06/2013  06:13:00     -148.767        5.400       -3.503       67.897       53.591       32.288     4609.996     2871.957     1042.522        1.535        0.426      148.865       32.343        0.047      338.145       10.597      855.091
05/06/2013  06:14:00     -143.417      -37.604      -11.981       65.113       54.030       32.248     4239.701     2919.229     1039.941        1.516        0.410      148.265       29.991        0.041      338.159       10.622      855.090
05/06/2013  06:15:00     -208.113      -64.950       -1.019       75.689       67.776       40.163     5728.776     4593.555     1613.079        2.973        0.597      218.012       38.146        0.031      338.110       10.536      855.088
05/06/2013  06:16:00     -196.035      -24.151      -10.999       79.313       56.293       37.197     6290.594     3168.954     1383.635        2.499        0.542      197.517       43.161        0.048      338.068       10.464      855.081
05/06/2013  06:17:00     -206.607      -30.855      -17.122       91.479       60.257       35.515     8368.354     3630.873     1261.328        2.859        0.663      208.898       37.944        0.033      338.081       10.488      855.073
05/06/2013  06:18:00     -250.274      -45.076      -14.711      127.286       60.456       45.022    16201.701     3654.886     2027.013        4.338        1.094      254.301       61.005        0.058      338.029       10.401      855.073
05/06/2013  06:19:00     -224.131      -48.194      -14.919       80.094       77.853       40.886     6415.121     6061.082     1671.662        3.346        0.707      229.254       38.713        0.029      338.035       10.411      855.078
05/06/2013  06:20:00     -236.716      -72.480      -11.062       77.416       60.374       37.201     5993.237     3645.029     1383.922        3.621        0.551      247.563       36.519        0.022      338.031       10.404      855.093
05/06/2013  06:21:00     -233.470      -38.842      -10.521       60.382       52.894       31.758     3645.951     2797.793     1008.544        3.179        0.373      236.679       27.973        0.014      338.031       10.403      855.098
05/06/2013  06:22:00     -246.805        1.379      -12.175       91.608       69.499       43.397     8392.073     4830.134     1883.280        3.808        0.755      246.809       49.975        0.041      338.022       10.388      855.098
05/06/2013  06:23:00     -179.128        7.437      -19.874       46.995       48.220       29.469     2208.493     2325.194      868.436        1.897        0.270      179.283       17.126        0.009      338.067       10.467      855.096
05/06/2013  06:24:00     -146.598       -9.489       -9.892       80.141       58.595       39.851     6422.645     3433.383     1588.132        1.656        0.572      146.904       36.753        0.063      338.070       10.471      855.089
05/06/2013  06:25:00     -228.915      -73.248      -12.808       96.744       80.689       41.135     9359.469     6510.717     1692.086        3.774        0.878      240.348       31.824        0.018      338.023       10.389      855.079
05/06/2013  06:26:00     -212.642      -83.669       -6.178       68.565       66.936       39.692     4701.156     4480.490     1575.448        3.150        0.538      228.510       30.001        0.017      337.978       10.315      855.077
05/06/2013  06:27:00     -163.150      -30.482       -2.504      111.870       70.539       48.473    12514.801     4975.745     2349.653        2.369        0.992      165.973       48.138        0.084      337.983       10.325      855.069
05/06/2013  06:28:00     -238.597     -129.313       -1.626      126.360       96.180       53.958    15966.731     9250.680     2911.501        5.089        1.406      271.386       55.473        0.042      337.950       10.267      855.063
05/06/2013  06:29:00     -226.971      -56.067      -10.477       83.179       62.906       40.853     6918.779     3957.186     1668.960        3.365        0.627      233.794       44.608        0.036      337.943       10.256      855.079
05/06/2013  06:30:00     -270.993      -98.502       -7.285      110.395       79.035       48.576    12187.124     6246.523     2359.630        5.199        1.040      288.340       53.910        0.035      337.915       10.209      855.086
05/06/2013  06:31:00     -307.805      -91.996      -17.425       78.045       66.731       49.031     6091.007     4453.090     2404.017        5.823        0.647      321.258       49.846        0.024      337.910       10.199      855.104
05/06/2013  06:32:00     -196.854      -66.864        4.025       80.975       66.255       45.846     6556.891     4389.775     2101.843        2.814        0.652      207.900       45.296        0.047      337.937       10.245      855.114
05/06/2013  06:33:00     -234.307      -32.048      -11.701      113.367       93.991       42.037    12852.117     8834.292     1767.105        3.975        1.173      236.489       46.918        0.039      337.906       10.193      855.132
05/06/2013  06:34:00     -190.502       -0.867        3.566       89.311       89.975       48.470     7976.410     8095.569     2349.296        2.736        0.921      190.504       53.689        0.079      337.896       10.177      855.150
05/06/2013  06:35:00     -161.316      -85.202       -8.002       75.862       72.305       34.431     5754.976     5228.059     1185.512        2.276        0.608      182.434       32.227        0.031      337.962       10.288      855.175
05/06/2013  06:36:00     -164.605      -75.805       -4.114       86.611       66.792       40.251     7501.490     4461.149     1620.170        2.322        0.679      181.222       44.428        0.060      337.879       10.147      855.203
05/06/2013  06:37:00     -157.095     -136.203        1.664       90.265       67.184       48.347     8147.712     4513.695     2337.466        2.911        0.750      207.918       45.855        0.049      337.927       10.228      855.227
05/06/2013  06:38:00     -128.470     -108.121        3.161       77.749       66.355       38.823     6044.980     4402.981     1507.201        2.008        0.598      167.913       37.253        0.049      337.929       10.234      855.250
05/06/2013  06:39:00     -161.234     -159.757      -11.174       68.299       68.453       37.029     4664.760     4685.781     1371.150        3.118        0.536      226.978       28.263        0.016      337.932       10.237      855.266
05/06/2013  06:40:00     -140.063     -109.355       -5.626       65.924       68.220       36.577     4345.933     4654.033     1337.844        2.097        0.517      177.697       34.077        0.037      337.921       10.220      855.284
05/06/2013  06:41:00     -157.573      -86.772       -7.251       55.238       56.960       28.958     3051.281     3244.411      838.579        1.977        0.357      179.885       27.881        0.024      337.919       10.217      855.286
05/06/2013  06:42:00      -92.885     -104.428        9.287       83.712       71.228       36.075     7007.630     5073.375     1301.422        1.650        0.669      139.760       44.322        0.101      337.970       10.303      855.279
05/06/2013  06:43:00     -156.117      -84.070       -1.867       90.197       37.692       30.982     8135.484     1420.685      959.873        2.098        0.526      177.314       29.521        0.028      337.937       10.247      855.272
05/06/2013  06:44:00     -121.973     -129.510       -5.071       88.925       76.000       51.188     7907.601     5775.927     2620.239        2.399        0.815      177.905       48.035        0.073      337.945       10.261      855.261
05/06/2013  06:45:00     -104.000     -107.418       14.093      107.934       75.670       55.677    11649.767     5725.993     3099.883        2.151        1.024      149.515       65.116        0.190      337.913       10.206      855.259
05/06/2013  06:46:00      -55.925      -46.285       10.006       56.339       57.440       40.359     3174.118     3299.308     1628.835        0.673        0.405       72.594       35.029        0.233      337.972       10.308      855.271
05/06/2013  06:47:00     -136.266      -76.098       -9.537       57.792       66.323       34.600     3339.942     4398.785     1197.172        1.669        0.447      156.075       26.706        0.029      337.908       10.199      855.282
05/06/2013  06:48:00     -114.459      -17.284        4.606       76.792       61.134       30.867     5897.055     3737.373      952.777        1.200        0.529      115.757       26.476        0.052      337.913       10.207      855.286
05/06/2013  06:49:00     -132.217       14.392        0.630      100.147       75.956       44.438    10029.345     5769.306     1974.767        1.773        0.889      132.998       31.847        0.057      337.966       10.295      855.284
05/06/2013  06:50:00     -124.883      -64.297        8.893       87.362       71.587       37.971     7632.070     5124.632     1441.821        1.700        0.710      140.463       35.783        0.065      337.953       10.274      855.300
05/06/2013  06:51:00     -141.251      -30.238        6.734      141.682       89.417       52.763    20073.835     7995.374     2783.955        2.588        1.543      144.452       62.436        0.187      337.962       10.290      855.309
05/06/2013  06:52:00     -178.099      -58.980      -19.298      101.596       89.873       39.262    10321.648     8077.125     1541.496        2.775        0.997      187.611       36.605        0.038      337.927       10.229      855.316
05/06/2013  06:53:00     -138.615      -30.608       13.465       74.332       95.485       50.577     5525.318     9117.388     2558.057        1.876        0.860      141.954       43.537        0.094      337.935       10.244      855.311
05/06/2013  06:54:00     -244.508      -32.051      -19.741       93.750       81.501       43.798     8789.110     6642.447     1918.271        3.927        0.867      246.600       33.386        0.018      337.935       10.243      855.302
05/06/2013  06:55:00     -297.031       -7.566      -28.365       93.302       72.290       44.614     8705.350     5225.829     1990.440        5.250        0.796      297.128       44.398        0.022      337.910       10.200      855.301
05/06/2013  06:56:00     -168.603        8.793       -8.523      101.197       53.042       46.623    10240.839     2813.461     2173.701        2.190        0.761      168.832       55.011        0.106      337.959       10.284      855.297
05/06/2013  06:57:00     -234.978      -42.534      -13.743       75.290       69.257       42.303     5668.629     4796.498     1789.586        3.473        0.613      238.797       42.432        0.032      337.927       10.227      855.300
05/06/2013  06:58:00     -228.309      -29.792      -14.347       78.688       82.941       43.120     6191.876     6879.245     1859.326        3.407        0.747      230.245       46.792        0.041      337.951       10.270      855.290
05/06/2013  06:59:00     -205.212      -30.448      -10.603      112.949       64.081       46.748    12757.443     4106.401     2185.361        3.110        0.952      207.458       47.362        0.052      337.963       10.290      855.295
05/06/2013  07:00:00     -218.967      -60.252       -3.131       77.630       68.173       49.815     6026.421     4647.604     2481.510        3.237        0.658      227.105       41.745        0.034      337.952       10.271      855.313
05/06/2013  07:01:00     -195.347      -52.966      -10.851      101.229       81.481       39.733    10247.222     6639.225     1578.674        2.977        0.923      202.400       32.105        0.025      337.946       10.262      855.320
05/06/2013  07:02:00     -296.226      -28.849      -18.784      119.400       93.950       49.557    14256.277     8826.582     2455.941        5.723        1.277      297.628       63.448        0.045      337.959       10.283      855.324
05/06/2013  07:03:00     -339.201       -7.065       -7.892      140.375       86.562       52.875    19705.259     7492.952     2795.785        7.258        1.500      339.274       63.320        0.035      337.921       10.219      855.337
05/06/2013  07:04:00     -318.269      -65.349      -18.340       68.406      102.244       47.486     4679.341    10453.907     2254.885        6.164        0.869      324.909       31.114        0.009      337.887       10.159      855.340
05/06/2013  07:05:00     -136.428      -30.272        5.303      103.485       81.973       46.324    10709.097     6719.526     2145.869        1.956        0.979      139.746       51.974        0.138      337.968       10.301      855.336
05/06/2013  07:06:00     -258.985      -32.727       -3.205       82.652       67.537       50.361     6831.271     4561.299     2536.270        4.104        0.696      261.045       43.639        0.028      337.878       10.147      855.343
05/06/2013  07:07:00     -174.761      -39.251       10.349       73.023       76.821       47.552     5332.350     5901.541     2261.193        2.284        0.675      179.115       39.630        0.049      337.902       10.186      855.349
05/06/2013  07:08:00     -254.684      -17.149      -10.132       82.391       85.726       48.377     6788.285     7348.891     2340.328        4.087        0.824      255.261       33.748        0.017      337.879       10.148      855.361
05/06/2013  07:09:00     -185.590      -13.232       -8.059       75.832       53.325       36.040     5750.548     2843.588     1298.910        2.229        0.495      186.061       36.634        0.039      337.914       10.207      855.375
05/06/2013  07:10:00     -120.970      -41.545        5.125       95.027       58.952       34.119     9030.074     3475.326     1164.088        1.503        0.683      127.905       47.360        0.137      337.955       10.277      855.380
05/06/2013  07:11:00     -253.951       -6.113      -18.157       98.032       76.720       42.671     9610.292     5885.969     1820.836        4.108        0.866      254.024       46.152        0.033      337.896       10.177      855.375
05/06/2013  07:12:00     -237.208       -2.455       -8.484       87.054       74.085       48.268     7578.337     5488.579     2329.780        3.587        0.770      237.220       42.755        0.032      337.876       10.142      855.372
05/06/2013  07:13:00     -131.578      -24.564       -1.434       68.803       43.099       29.164     4733.820     1857.481      850.510        1.268        0.372      133.851       34.849        0.068      337.951       10.273      855.377
05/06/2013  07:14:00     -131.006      -11.782        9.465       89.079       66.157       43.438     7935.048     4376.704     1886.839        1.579        0.710      131.535       44.402        0.114      337.986       10.331      855.381
05/06/2013  07:15:00     -185.556      -53.777       -7.536       59.253       71.305       35.778     3510.888     5084.338     1280.087        2.363        0.494      193.191       26.726        0.019      337.894       10.174      855.387
05/06/2013  07:16:00     -130.824      -50.209       -0.440       87.548       58.227       35.233     7664.565     3390.357     1241.387        1.596        0.615      140.128       38.455        0.075      337.955       10.279      855.369
05/06/2013  07:17:00     -300.085     -110.118      -15.704      150.533       89.115       52.852    22660.239     7941.437     2793.369        6.790        1.670      319.652       63.435        0.039      337.865       10.125      855.366
05/06/2013  07:18:00     -165.917      -47.361       -8.339      112.278      100.408       54.613    12606.352    10081.830     2982.610        2.775        1.284      172.544       59.466        0.119      337.917       10.213      855.369
05/06/2013  07:19:00     -205.084      -38.455        0.526       98.546      113.163       54.707     9711.360    12805.801     2992.802        3.452        1.275      208.658       55.338        0.070      337.877       10.145      855.367
05/06/2013  07:20:00     -159.598      -22.054       -2.860       81.121       89.142       46.624     6580.551     7946.288     2173.768        2.133        0.835      161.114       44.597        0.077      337.881       10.151      855.353
05/06/2013  07:21:00     -236.331      -18.994      -17.395       72.349       75.944       41.084     5234.447     5767.515     1687.858        3.460        0.634      237.093       42.776        0.033      337.900       10.181      855.372
05/06/2013  07:22:00     -106.129      -36.300        2.176       72.271       75.030       42.048     5223.166     5629.439     1768.006        1.260        0.631      112.165       43.923        0.153      337.973       10.310      855.386
05/06/2013  07:23:00     -200.603       32.032       -7.997      114.013       78.001       48.350    12999.001     6084.174     2337.687        3.137        1.071      203.144       58.144        0.082      337.894       10.175      855.403
05/06/2013  07:24:00     -224.645      -28.745      -11.812       51.554       70.603       38.346     2657.858     4984.837     1470.405        3.027        0.456      226.477       28.840        0.016      337.914       10.207      855.398
05/06/2013  07:25:00     -232.140      -65.567      -10.308       92.017       79.885       40.963     8467.170     6381.679     1677.958        3.741        0.826      241.222       46.588        0.037      337.872       10.136      855.398
05/06/2013  07:26:00     -138.254      -59.924       -5.769       71.615       76.316       37.542     5128.646     5824.062     1409.407        1.755        0.618      150.682       34.135        0.051      337.950       10.270      855.413
05/06/2013  07:27:00     -211.629      -37.403       -2.945       83.641       84.042       40.750     6995.769     7063.110     1660.558        3.095        0.786      214.909       40.407        0.035      337.921       10.217      855.427
05/06/2013  07:28:00     -112.113      -34.020        1.446       68.125       39.812       33.848     4641.042     1585.030     1145.688        1.055        0.369      117.161       27.972        0.057      337.974       10.312      855.440
05/06/2013  07:29:00     -114.134     -106.057       -6.601       66.203       50.898       38.460     4382.900     2590.574     1479.209        1.638        0.423      155.803       29.563        0.036      338.022       10.391      855.437
05/06/2013  07:30:00     -147.671     -126.956      -15.066       63.289       55.132       43.948     4005.533     3039.554     1931.410        2.356        0.449      194.742       30.129        0.024      337.965       10.293      855.439
05/06/2013  07:31:00     -140.507     -112.986        1.365       82.444       57.507       42.755     6797.073     3307.100     1827.973        2.222        0.597      180.300       39.184        0.047      337.941       10.253      855.452
05/06/2013  07:32:00     -156.028     -139.997        7.287      104.703       97.201       60.751    10962.803     9448.070     3690.723        3.405        1.205      209.628       61.083        0.085      337.974       10.307      855.452
05/06/2013  07:33:00     -148.792     -130.649       -4.878       95.666       74.646       47.683     9151.962     5572.081     2273.708        2.811        0.850      198.011       52.984        0.072      337.974       10.308      855.452
05/06/2013  07:34:00     -188.164      -81.992       -5.980      135.129       89.740       50.871    18259.922     8053.294     2587.872        3.553        1.445      205.252       56.399        0.076      337.981       10.319      855.465
05/06/2013  07:35:00     -288.285     -166.754      -14.662      110.140       92.001       53.879    12130.865     8464.127     2902.907        6.731        1.175      333.039       48.463        0.021      337.895       10.174      855.464
05/06/2013  07:36:00     -255.733      -84.978       -7.522       88.666       69.518       40.556     7861.580     4832.748     1644.801        4.351        0.717      269.483       36.617        0.018      337.929       10.231      855.459
05/06/2013  07:37:00     -193.214      -58.432       -4.199      107.121       77.988       41.686    11474.826     6082.158     1737.685        3.003        0.965      201.856       46.941        0.054      337.972       10.305      855.467
05/06/2013  07:38:00     -185.220     -107.730        0.726      126.538      112.465       55.458    16011.785    12648.298     3075.536        3.882        1.587      214.271       57.809        0.073      338.019       10.384      855.455
05/06/2013  07:39:00     -291.370     -119.729       -5.269      136.970       92.416       54.831    18760.732     8540.770     3006.447        6.478        1.515      315.010       59.622        0.036      337.951       10.269      855.453
05/06/2013  07:40:00     -318.680     -114.295      -21.993      116.627       83.069       49.117    13601.921     6900.505     2412.433        6.901        1.146      338.556       54.519        0.026      337.896       10.176      855.450
05/06/2013  07:41:00     -227.877     -131.374       -0.044      119.080       94.184       57.696    14180.026     8870.614     3328.819        4.778        1.319      263.034       56.283        0.046      337.981       10.320      855.457
05/06/2013  07:42:00     -234.804      -92.785       -8.322      127.260      110.747       51.029    16194.995    12264.890     2603.942        4.743        1.553      252.472       57.441        0.052      337.946       10.261      855.459
05/06/2013  07:43:00      -73.279      -24.663        0.045       50.384       52.266       39.657     2538.503     2731.741     1572.684        0.641        0.342       77.318       31.600        0.167      338.075       10.480      855.463
05/06/2013  07:44:00     -218.705      -50.961       -5.119       84.809       60.830       43.561     7192.602     3700.319     1897.556        3.162        0.640      224.564       44.252        0.039      338.045       10.429      855.474
05/06/2013  07:45:00     -141.659     -112.443       -8.390       81.702       69.639       38.116     6675.258     4849.530     1452.853        2.288        0.649      180.861       38.231        0.045      338.088       10.499      855.481
05/06/2013  07:46:00      -28.882      -14.051        9.277       53.218       57.018       45.701     2832.185     3251.018     2088.561        0.464        0.409       32.118       43.423        1.828      338.134       10.580      855.473
05/06/2013  07:47:00     -184.144       16.220       -9.527       73.287       73.948       34.277     5371.017     5468.244     1174.934        2.314        0.601      184.857       33.224        0.032      338.063       10.458      855.468
05/06/2013  07:48:00     -239.578       28.738      -13.791       74.306       58.861       39.235     5521.312     3464.629     1539.414        3.447        0.526      241.295       30.892        0.016      338.001       10.356      855.468
05/06/2013  07:49:00     -259.416      -67.305      -15.100      114.556       95.996       47.948    13123.183     9215.306     2298.993        4.834        1.232      268.005       50.829        0.036      337.987       10.331      855.459
05/06/2013  07:50:00     -184.605      -23.787       -9.997       78.933       81.498       43.955     6230.461     6641.950     1932.025        2.477        0.740      186.131       47.254        0.064      338.036       10.413      855.446
05/06/2013  07:51:00     -164.750     -102.996       -6.194       93.653       94.914       52.462     8770.900     9008.656     2752.238        2.916        1.027      194.296       48.240        0.062      338.059       10.452      855.449
05/06/2013  07:52:00      -98.943      -43.331       14.440       98.732       90.432       52.601     9747.998     8178.000     2766.823        1.628        1.035      108.015       52.527        0.236      338.118       10.551      855.446
05/06/2013  07:53:00     -168.476     -103.424       -2.645      133.498       88.168       43.811    17821.624     7773.637     1919.442        3.330        1.376      197.688       53.263        0.073      338.050       10.437      855.451
05/06/2013  07:54:00     -219.424       59.461      -15.920      104.669       48.698       37.958    10955.561     2371.521     1440.775        3.335        0.738      227.338       42.596        0.035      338.026       10.394      855.465
05/06/2013  07:55:00     -148.258       23.214       -4.146       72.383       51.844       35.005     5239.301     2687.800     1225.353        1.584        0.458      150.064       36.600        0.059      338.059       10.453      855.469
05/06/2013  07:56:00     -198.552      -72.499        0.316       72.675       87.652       49.835     5281.694     7682.803     2483.561        3.006        0.772      211.374       44.952        0.045      338.097       10.513      855.470
05/06/2013  07:57:00     -230.991      -40.308      -11.814       76.931       70.134       35.542     5918.368     4918.712     1263.231        3.361        0.605      234.481       38.741        0.027      338.070       10.466      855.480
05/06/2013  07:58:00     -164.999      -29.521       -9.193       71.009       96.807       36.540     5042.302     9371.690     1335.188        2.196        0.787      167.619       24.934        0.022      338.058       10.450      855.484
05/06/2013  07:59:00      -72.902      -58.713       25.762      130.740       63.638       64.844    17092.860     4049.780     4204.779        1.738        1.267       93.605       80.804        0.745      338.168       10.635      855.474
05/06/2013  08:00:00     -151.507     -150.283       -0.566      102.565       92.076       55.963    10519.602     8477.953     3131.890        3.383        1.106      213.400       54.717        0.066      338.055       10.443      855.465
05/06/2013  08:01:00     -127.130      -36.638       -2.417      103.740       48.068       46.613    10762.091     2310.498     2172.815        1.638        0.762      132.304       52.282        0.156      338.110       10.538      855.479
05/06/2013  08:02:00     -130.437      -29.882       -7.013      125.494       47.628       38.397    15748.731     2268.392     1474.299        1.872        0.975      133.816       50.238        0.141      338.170       10.638      855.492
05/06/2013  08:03:00     -107.696       -5.087       12.114      101.576       65.177       41.203    10317.735     4248.091     1697.646        1.401        0.813      107.816       43.414        0.162      338.206       10.699      855.496
05/06/2013  08:04:00      -78.760        9.926       -8.022       63.300       54.400       31.911     4006.853     2959.310     1018.286        0.717        0.399       79.383       31.928        0.162      338.173       10.646      855.505
05/06/2013  08:05:00      -73.721      -48.092        0.742       78.460       60.279       31.201     6155.936     3633.584      973.499        0.925        0.538       88.021       31.100        0.125      338.278       10.819      855.512
05/06/2013  08:06:00     -138.820      -34.460       -8.251       75.306       59.318       25.746     5670.976     3518.678      662.869        1.519        0.493      143.033       34.951        0.060      338.164       10.628      855.506
05/06/2013  08:07:00      -42.403      -61.519       -3.406       49.976       36.229       20.930     2497.580     1312.528      438.070        0.492        0.212       74.717       17.176        0.053      338.313       10.880      855.511
05/06/2013  08:08:00     -145.374     -107.749        4.730       83.342       71.278       40.250     6945.830     5080.509     1620.077        2.320        0.682      180.952       42.508        0.055      338.292       10.842      855.512
05/06/2013  08:09:00     -149.403      -71.784       -3.899       74.441       52.583       36.850     5541.507     2764.951     1357.925        1.858        0.483      165.754       41.244        0.062      338.313       10.878      855.498
05/06/2013  08:10:00     -145.218      -33.380      -13.605       61.935       65.865       28.150     3835.894     4338.242      792.442        1.568        0.448      149.005       28.601        0.037      338.371       10.976      855.497
05/06/2013  08:11:00      -61.838      -49.523        3.040       58.006       68.340       44.581     3364.695     4670.374     1987.455        0.815        0.501       79.224       43.129        0.296      338.533       11.249      855.484
05/06/2013  08:12:00     -110.973      -34.340       -7.094       52.452       80.223       23.744     2751.237     6435.776      563.776        1.165        0.488      116.165       18.694        0.026      338.503       11.200      855.484
05/06/2013  08:13:00      -73.592      -53.770        3.954       61.749       59.611       27.454     3812.939     3553.413      753.733        0.822        0.406       91.143       29.834        0.107      338.594       11.351      855.483
05/06/2013  08:14:00      -73.597      -24.317       13.782       50.150       28.675       26.989     2514.985      822.227      728.410        0.513        0.203       77.510       25.388        0.107      338.675       11.487      855.477
05/06/2013  08:15:00      -89.751     -111.947        7.601       69.354       56.132       39.502     4810.012     3150.797     1560.386        1.508        0.476      143.483       41.201        0.082      338.695       11.521      855.477
05/06/2013  08:16:00      -78.909      -32.072      -10.855       49.450       31.791       17.442     2445.284     1010.690      304.217        0.557        0.188       85.177       17.578        0.043      338.650       11.446      855.480
05/06/2013  08:17:00     -172.258       -7.040      -11.051       69.755       37.747       34.198     4865.771     1424.847     1169.485        1.865        0.373      172.401       30.908        0.032      338.639       11.427      855.487
05/06/2013  08:18:00       -5.904      -23.280       22.273       52.113       37.518       32.315     2715.736     1407.622     1044.288        0.312        0.258       24.017       18.537        0.596      339.011       12.054      855.494
05/06/2013  08:19:00      -10.936      -48.986       21.316       36.015       20.420       16.707     1297.052      416.990      279.127        0.248        0.100       50.191       15.531        0.096      338.912       11.886      855.494
05/06/2013  08:20:00      -92.968       -6.647        1.758       43.776       30.503       26.457     1916.306      930.420      699.990        0.612        0.177       93.205       23.504        0.064      338.734       11.586      855.495
05/06/2013  08:21:00      -94.321       43.505        4.377       61.143       39.373       30.936     3738.486     1550.249      957.065        0.853        0.312      103.871       28.617        0.076      338.792       11.684      855.491
05/06/2013  08:22:00      -24.787      -22.362       10.965       26.374       37.690       19.661      695.576     1420.534      386.568        0.187        0.125       33.383       15.533        0.216      338.950       11.951      855.496
05/06/2013  08:23:00      -69.380       -9.064       -5.537       25.283       28.537       18.497      639.230      814.334      342.133        0.336        0.090       69.970       18.163        0.067      338.889       11.846      855.494
05/06/2013  08:24:00      -36.231       47.338       -7.188       31.018       62.752       26.166      962.108     3937.857      684.645        0.459        0.279       59.612       29.234        0.241      339.036       12.095      855.481
05/06/2013  08:25:00      -24.847      124.037       12.913       35.223       58.350       26.871     1240.675     3404.750      722.025        1.077        0.268      126.501       29.252        0.053      339.024       12.073      855.472
05/06/2013  08:26:00       -4.374       43.442       10.874       18.186       24.177       18.945      330.730      584.514      358.895        0.165        0.064       43.661       11.449        0.069      339.317       12.568      855.464
05/06/2013  08:27:00      -89.915      -42.141       -5.037       65.215       52.885       21.974     4252.953     2796.800      482.870        0.871        0.377       99.300       24.895        0.063      338.998       12.031      855.476
05/06/2013  08:28:00     -145.980      -15.754       -9.960       48.819       43.475       24.838     2383.299     1890.089      616.936        1.327        0.245      146.828       20.467        0.019      338.801       11.699      855.460
05/06/2013  08:29:00      -73.939      -19.694        4.886       77.485       39.468       26.155     6003.856     1557.733      684.103        0.706        0.412       76.516       27.730        0.131      339.162       12.306      855.461
05/06/2013  08:30:00     -144.111      -29.820       -5.629       59.377       58.407       26.826     3525.587     3411.399      719.659        1.467        0.383      147.164       23.071        0.025      339.022       12.072      855.453
05/06/2013  08:31:00      -31.182       -1.568        2.150       21.689       31.110       17.360      470.410      967.821      301.376        0.136        0.087       31.221        9.756        0.098      339.191       12.355      855.459
05/06/2013  08:32:00     -135.750        1.800       -4.675       84.115       51.665       34.864     7075.396     2669.233     1215.484        1.470        0.548      135.762       41.457        0.093      339.115       12.227      855.458
05/06/2013  08:33:00     -149.947      -18.557      -16.835       58.515       33.683       27.882     3424.052     1134.537      777.425        1.422        0.267      151.091       31.627        0.044      339.039       12.100      855.471
05/06/2013  08:34:00      -28.676        9.483       11.696       42.100       33.839       27.767     1772.422     1145.092      771.013        0.237        0.184       30.204       16.239        0.289      339.493       12.865      855.481
05/06/2013  08:35:00      -39.399      -12.336        4.845       36.839       36.399       24.019     1357.105     1324.858      576.930        0.249        0.163       41.285       18.736        0.206      339.221       12.405      855.492
05/06/2013  08:36:00      -18.114       15.950       -1.285       37.462       48.383       24.177     1403.434     2340.872      584.514        0.246        0.216       24.135       26.929        1.245      339.382       12.677      855.502
05/06/2013  08:37:00       20.923       45.318       -0.828       29.935       45.322       28.621      896.091     2054.104      819.186        0.313        0.188       49.915       24.440        0.240      339.417       12.736      855.504
05/06/2013  08:38:00       62.726       37.213        5.219       44.292       28.132       22.661     1961.774      791.408      513.526        0.431        0.163       72.934       14.453        0.039      339.182       12.341      855.490
05/06/2013  08:39:00       25.637        8.817        3.982       23.185       15.185       15.162      537.539      230.598      229.876        0.087        0.050       27.111        9.766        0.130      339.389       12.690      855.480
05/06/2013  08:40:00       -6.508       80.168        8.165       22.326       77.290       24.938      498.469     5973.706      621.894        0.681        0.355       80.432       33.586        0.174      339.581       13.013      855.474
05/06/2013  08:41:00      -30.875      109.457       -4.027       33.739       53.383       29.271     1138.307     2849.711      856.780        0.890        0.242      113.728       32.254        0.080      339.187       12.349      855.488
05/06/2013  08:42:00      -80.968       48.644       -1.222       61.174       57.618       35.337     3742.222     3319.834     1248.711        0.862        0.416       94.456       34.908        0.137      339.341       12.608      855.495
05/06/2013  08:43:00      -43.626       80.922        1.853       36.416       61.344       29.069     1326.089     3763.106      845.025        0.719        0.297       91.932       34.222        0.139      339.599       13.043      855.504
05/06/2013  08:44:00      -11.499       74.294       21.918       54.416       78.857       39.139     2961.099     6218.423     1531.838        0.842        0.536       75.178       31.031        0.170      339.754       13.303      855.511
05/06/2013  08:45:00      -40.846       50.382        3.606       45.782      114.083       35.653     2096.008    13014.914     1271.153        1.030        0.819       64.859       43.471        0.449      339.412       12.727      855.535
05/06/2013  08:46:00       23.413       91.883        8.837       53.689       92.610       44.305     2882.462     8576.648     1962.922        1.124        0.671       94.819       52.084        0.302      339.561       12.978      855.556
05/06/2013  08:47:00        4.024      136.100      -10.984       41.217       45.241       33.489     1698.862     2046.742     1121.522        1.176        0.243      136.160       24.164        0.031      339.372       12.659      855.563
05/06/2013  08:48:00      -18.768      258.786      -29.655       60.176       93.188       42.004     3621.205     8683.932     1764.378        4.113        0.703      259.466       48.426        0.035      339.200       12.369      855.586
05/06/2013  08:49:00      -29.872      155.163       -9.718       27.300       40.948       27.666      745.283     1676.732      765.414        1.412        0.159      158.013       23.234        0.022      339.246       12.448      855.591
05/06/2013  08:50:00        0.801      170.121       -9.003       44.481       59.337       41.523     1978.563     3520.898     1724.195        1.812        0.361      170.123       36.356        0.046      339.375       12.663      855.577
05/06/2013  08:51:00       68.064       50.238        3.116       33.549       32.925       28.868     1125.508     1084.085      833.335        0.510        0.152       84.597       16.492        0.038      339.265       12.479      855.566
05/06/2013  08:52:00       97.237       54.049        9.888       34.713       34.429       35.808     1205.024     1185.357     1282.225        0.807        0.184      111.249       28.557        0.066      339.315       12.564      855.559
05/06/2013  08:53:00      110.855       57.346        9.042       38.570       32.980       27.309     1487.659     1087.690      745.790        0.949        0.166      124.810       10.869        0.008      339.303       12.543      855.557
05/06/2013  08:54:00      -11.513        4.002       29.833       23.261       29.440       16.172      541.085      866.696      261.521        0.135        0.083       12.189       11.167        0.839      339.856       13.476      855.553
05/06/2013  08:55:00      -10.001       23.946       -1.429       41.701       31.371       24.836     1738.964      984.120      616.836        0.201        0.167       25.951       23.414        0.814      339.606       13.056      855.563
05/06/2013  08:56:00     -150.891      -43.346      -11.444       56.128       52.167       32.105     3150.354     2721.378     1030.756        1.584        0.345      156.994       26.999        0.030      339.256       12.463      855.581
05/06/2013  08:57:00      -57.218      -28.460       17.605       82.111       39.711       37.858     6742.196     1576.974     1433.211        0.707        0.488       63.906       48.476        0.575      339.591       13.029      855.567
05/06/2013  08:58:00       42.767      -38.148       -1.544       39.407       84.748       41.548     1552.903     7182.258     1726.249        0.687        0.523       57.309       29.229        0.260      339.679       13.178      855.565
05/06/2013  08:59:00       -0.273      138.247      -11.388       45.266       60.790       37.809     2049.044     3695.425     1429.524        1.321        0.359      138.247       31.848        0.053      339.441       12.777      855.584
05/06/2013  09:00:00       -5.615       70.688       11.267       18.894       59.401       26.811      356.973     3528.439      718.819        0.488        0.230       70.911       32.434        0.209      339.725       13.255      855.587
05/06/2013  09:01:00       -3.733      178.493       -7.003       65.029      127.613       44.024     4228.740    16284.984     1938.071        2.718        1.123      178.532       56.247        0.099      339.554       12.964      855.598
05/06/2013  09:02:00     -105.806      178.471      -28.001       87.528       96.988       51.929     7661.166     9406.609     2696.661        3.179        0.988      207.477       58.604        0.080      339.525       12.916      855.602
05/06/2013  09:03:00      -51.856       87.700       -6.753       42.746       78.717       35.937     1827.252     6196.363     1291.462        0.987        0.466      101.884       41.417        0.165      339.376       12.667      855.627
05/06/2013  09:04:00        8.433       99.899        3.698       35.206       71.927       36.365     1239.432     5173.551     1322.434        0.890        0.387      100.254       42.350        0.178      339.566       12.987      855.626
05/06/2013  09:05:00       17.492       94.661        0.954       46.756       85.610       40.109     2186.168     7329.075     1608.751        1.019        0.556       96.263       51.281        0.284      339.450       12.791      855.612
05/06/2013  09:06:00      -13.630       97.909       -6.481       24.652       49.063       26.638      607.701     2407.167      709.609        0.677        0.186       98.854       27.167        0.076      339.361       12.641      855.610
05/06/2013  09:07:00       71.002       42.039       17.294       42.253       30.576       28.794     1785.334      934.899      829.113        0.533        0.177       82.514       21.561        0.068      339.452       12.795      855.599
05/06/2013  09:08:00       80.042       48.973       11.572       31.927       33.595       29.397     1019.363     1128.635      864.157        0.598        0.151       93.836       20.466        0.048      339.238       12.434      855.594
05/06/2013  09:09:00       50.658       23.828        7.872       16.131       24.061       26.622      260.220      578.915      708.747        0.237        0.077       55.982       14.135        0.064      339.254       12.461      855.589
05/06/2013  09:10:00      110.227       70.169        4.350       49.149       27.242       30.864     2415.608      742.127      952.564        1.060        0.206      130.667       11.705        0.008      339.418       12.737      855.591
05/06/2013  09:11:00      116.827      109.014       -0.385       69.026       57.448       46.201     4764.602     3300.309     2134.571        1.786        0.510      159.789       33.882        0.045      339.470       12.823      855.588
05/06/2013  09:12:00      109.195       87.280       15.555       40.873       39.328       41.906     1670.582     1546.653     1756.095        1.238        0.249      139.790       22.853        0.027      339.488       12.855      855.594
05/06/2013  09:13:00      134.407       70.561       -1.392       71.855       42.479       41.764     5163.116     1804.477     1744.260        1.588        0.436      151.803       13.003        0.007      339.351       12.625      855.593
05/06/2013  09:14:00       28.347       37.829       30.842       39.487       22.907       25.761     1559.190      524.713      663.619        0.297        0.137       47.271       19.252        0.166      339.695       13.206      855.594
05/06/2013  09:15:00       68.209       58.478        6.346       39.090       37.750       32.608     1528.036     1425.044     1063.302        0.606        0.201       89.846       23.250        0.067      339.595       13.036      855.587
05/06/2013  09:16:00       29.885      320.252      -33.051       91.002      153.578       54.315     8281.296    23586.313     2950.121        6.968        1.741      321.643       62.877        0.038      339.396       12.698      855.583
05/06/2013  09:17:00      -32.484      226.307      -21.366       60.784       86.940       36.085     3694.661     7558.480     1302.127        3.264        0.628      228.627       38.762        0.029      339.466       12.814      855.597
05/06/2013  09:18:00      -81.363      216.335      -15.703       48.239       70.485       37.043     2326.990     4968.176     1372.196        3.117        0.433      231.129       35.126        0.023      339.507       12.884      855.609
05/06/2013  09:19:00      -91.018      172.646      -16.141       32.668       44.263       32.403     1067.194     1959.219     1049.953        2.121        0.204      195.169       26.094        0.018      339.362       12.642      855.621
05/06/2013  09:20:00      -23.020      128.038       -5.981       52.436       71.097       37.802     2749.517     5054.778     1428.972        1.309        0.462      130.091       32.881        0.064      339.547       12.953      855.607
05/06/2013  09:21:00      -96.644      112.629      -11.583       55.128       41.614       36.620     3039.144     1731.762     1341.040        1.413        0.306      148.410       36.490        0.060      339.505       12.883      855.602
05/06/2013  09:22:00     -116.088       84.908      -28.783       32.101       74.731       24.226     1030.460     5584.712      586.903        1.436        0.360      143.826       27.822        0.037      339.326       12.581      855.600
05/06/2013  09:23:00      -24.387       22.716        0.062       23.345       70.696       27.763      545.012     4997.948      770.778        0.371        0.316       33.328       38.262        1.318      339.633       13.099      855.583
05/06/2013  09:24:00       22.283       65.764        3.621       44.869       36.126       33.696     2013.262     1305.118     1135.449        0.464        0.223       69.436       26.197        0.142      339.909       13.565      855.573
05/06/2013  09:25:00       11.247       43.209       14.370       30.312       39.528       29.718      918.788     1562.462      883.137        0.278        0.168       44.649       22.331        0.250      340.107       13.900      855.570
05/06/2013  09:26:00        3.854       48.566        9.629       34.931       53.473       31.029     1220.172     2859.410      962.786        0.375        0.252       48.719       28.783        0.349      340.038       13.784      855.570
05/06/2013  09:27:00        3.657        6.269       17.649       31.344       28.962       13.919      982.428      838.792      193.740        0.119        0.101        7.258        8.708        1.440      339.976       13.680      855.571
05/06/2013  09:28:00       25.796       44.478       50.002       54.880       44.540       38.779     3011.833     1983.796     1503.811        0.582        0.325       51.417       26.261        0.261      339.986       13.695      855.557
05/06/2013  09:29:00       62.546       73.470       -3.772       33.314       32.715       29.989     1109.841     1070.272      899.312        0.620        0.154       96.488       17.136        0.032      339.529       12.925      855.546
05/06/2013  09:30:00       10.313       44.390       49.838       30.751       41.060       18.594      945.628     1685.930      345.722        0.377        0.149       45.572        6.537        0.021      340.062       13.825      855.546
05/06/2013  09:31:00       -4.094      -23.313       15.447       20.158       19.724       23.666      406.357      389.053      560.067        0.108        0.068       23.670       13.881        0.344      340.026       13.763      855.531
05/06/2013  09:32:00       -3.735       53.556       -6.447       36.252       53.322       18.705     1314.195     2843.277      349.894        0.371        0.225       53.686       17.171        0.102      339.856       13.476      855.532
05/06/2013  09:33:00       68.846       18.607       12.706       45.224       30.094       27.266     2045.215      905.664      743.441        0.447        0.185       71.316       10.061        0.020      340.028       13.766      855.526
05/06/2013  09:34:00      125.874       70.747       -1.684       76.368       50.991       43.338     5832.123     2600.039     1878.201        1.558        0.516      144.393       32.643        0.051      339.980       13.684      855.528
05/06/2013  09:35:00       89.808       65.235        9.124       72.397       47.395       44.071     5241.337     2246.259     1942.290        1.092        0.471      111.000       29.471        0.070      340.027       13.764      855.523
05/06/2013  09:36:00       78.995       86.923        7.681       58.945       66.272       51.744     3474.508     4392.016     2677.464        1.220        0.527      117.455       47.572        0.164      340.051       13.804      855.527
05/06/2013  09:37:00      161.850      103.084       -0.077       68.662       48.405       49.167     4714.452     2343.035     2417.348        2.315        0.474      191.890       20.734        0.012      339.924       13.589      855.531
05/06/2013  09:38:00      151.485      107.497       23.239       50.323       41.849       45.146     2532.402     1751.334     2038.176        2.068        0.316      185.750       11.022        0.004      339.853       13.470      855.534
05/06/2013  09:39:00      169.297       78.329      -10.188       68.527       51.702       38.653     4695.972     2673.148     1494.076        2.188        0.443      186.539       12.888        0.005      339.758       13.308      855.533
05/06/2013  09:40:00      109.371       79.180        6.432       42.426       30.603       31.550     1799.992      936.565      995.430        1.100        0.187      135.024       16.973        0.016      339.717       13.241      855.527
05/06/2013  09:41:00        2.200       54.890       30.573       29.243       29.203       38.890      855.156      852.833     1512.401        0.359        0.161       54.934       29.203        0.283      340.363       14.332      855.519
05/06/2013  09:42:00       16.069       30.956       73.425       28.237       45.151       25.406      797.343     2038.603      645.485        0.504        0.174       34.878       27.820        0.636      340.167       14.001      855.510
05/06/2013  09:43:00       44.445      -27.425       35.973       24.867       64.142       39.424      618.353     4114.172     1554.269        0.515        0.314       52.226       44.266        0.718      339.795       13.372      855.498
05/06/2013  09:44:00       82.824        3.395       31.311       36.965       49.939       33.232     1366.447     2493.881     1104.366        0.641        0.248       82.894       32.949        0.158      339.888       13.531      855.492
05/06/2013  09:45:00        9.084       23.679       45.873       39.016       28.823       20.907     1522.213      830.754      437.112        0.277        0.140       25.362       15.843        0.390      340.269       14.174      855.477
05/06/2013  09:46:00       -3.523       -8.809       32.530       20.729       46.690       29.434      429.709     2179.961      866.368        0.231        0.174        9.487       31.336       10.909      340.599       14.730      855.474
05/06/2013  09:47:00      -13.240       27.995       32.868       21.283       23.094       24.993      452.966      533.345      624.642        0.182        0.081       30.967        5.780        0.035      340.389       14.376      855.471
05/06/2013  09:48:00        3.578       -2.663       11.473       29.528       27.114       22.411      871.897      735.152      502.251        0.113        0.105        4.460       20.147       20.404      340.330       14.276      855.468
05/06/2013  09:49:00      -18.266       -9.546        3.141       20.793       13.983       16.776      432.356      195.532      281.445        0.067        0.045       20.610       13.879        0.453      340.256       14.151      855.475
05/06/2013  09:50:00      -36.261      -51.780      -10.011       48.365       47.312       28.715     2339.182     2238.421      824.537        0.475        0.270       63.214        7.796        0.015      340.059       13.819      855.482
05/06/2013  09:51:00      -41.251      -52.580       -5.472       32.373       69.804       24.700     1048.002     4872.638      610.088        0.551        0.327       66.830       16.940        0.064      339.888       13.530      855.491
05/06/2013  09:52:00       -6.636       18.503       26.141       14.067       19.546       18.214      197.887      382.047      331.732        0.099        0.046       19.657        8.982        0.209      340.566       14.675      855.491
05/06/2013  09:53:00       -0.722       34.939       67.419       34.654       39.773       18.585     1200.902     1581.910      345.414        0.445        0.156       34.947       15.197        0.189      340.792       15.058      855.496
05/06/2013  09:54:00      -57.356      -25.925        4.562       40.846       29.407       20.789     1668.397      864.776      432.201        0.347        0.148       62.943       24.316        0.149      340.374       14.351      855.509
05/06/2013  09:55:00      -33.860      -30.323       19.667       55.530       40.004       34.897     3083.548     1600.290     1217.826        0.418        0.295       45.453       37.896        0.695      340.613       14.755      855.520
05/06/2013  09:56:00      -76.918      -87.385       12.524       78.835       63.333       33.353     6214.915     4011.097     1112.444        1.252        0.567      116.415       36.295        0.097      340.078       13.850      855.513
05/06/2013  09:57:00      -87.497      -33.318      -22.282       35.607       30.452       23.747     1267.866      927.324      563.930        0.601        0.138       93.626       17.176        0.034      339.844       13.457      855.526
05/06/2013  09:58:00      -39.111      -11.807       -3.657       22.990       12.579       10.085      528.547      158.241      101.704        0.124        0.039       40.854        9.809        0.058      339.910       13.568      855.526
05/06/2013  09:59:00      -71.361       -1.600       -4.111       28.964       33.372       25.866      838.926     1113.694      669.043        0.387        0.131       71.379       19.557        0.075      339.966       13.662      855.525
05/06/2013  10:00:00      -25.284       20.218      -20.433       45.246       57.786       22.798     2047.179     3339.245      519.768        0.368        0.295       32.374       13.795        0.182      340.008       13.733      855.522
05/06/2013  10:01:00      -50.803      -31.472       10.585       57.963       47.435       30.903     3359.721     2250.077      954.991        0.512        0.328       59.762       31.518        0.278      340.375       14.353      855.509
05/06/2013  10:02:00      -38.693      -45.461       14.330       44.863       35.021       32.745     2012.726     1226.461     1072.259        0.404        0.216       59.698       31.706        0.282      340.310       14.244      855.512
05/06/2013  10:03:00      -28.164      -77.847      -11.384       49.393       72.862       33.026     2439.688     5308.937     1090.689        0.791        0.442       82.785       27.321        0.109      340.117       13.917      855.512
05/06/2013  10:04:00      -98.300      -58.221       -3.144       50.054       92.426       28.724     2505.448     8542.566      825.082        1.247        0.594      114.248       19.778        0.030      339.924       13.590      855.520
05/06/2013  10:05:00      -22.936      -11.787        5.576       29.157       22.929       23.768      850.132      525.718      564.924        0.132        0.097       25.787       15.359        0.355      340.277       14.187      855.501
05/06/2013  10:06:00     -204.446     -135.743       -6.574       89.609       60.642       39.221     8029.798     3677.477     1538.313        3.675        0.662      245.406       37.122        0.023      339.958       13.645      855.501
05/06/2013  10:07:00      -90.469      -54.702       17.227       91.134       59.771       41.531     8305.375     3572.615     1724.835        1.254        0.680      105.721       48.179        0.208      340.352       14.313      855.516
05/06/2013  10:08:00     -162.785      -50.952        1.495       57.048       70.008       33.543     3254.475     4901.092     1125.159        1.919        0.464      170.573       29.206        0.029      340.050       13.802      855.524
05/06/2013  10:09:00     -101.674      -34.300        2.826       68.025       63.065       35.614     4627.343     3977.213     1268.329        1.070        0.494      107.304       34.818        0.105      340.206       14.067      855.530
05/06/2013  10:10:00     -161.322      -27.261      -13.281       48.022       40.400       26.827     2306.069     1632.147      719.662        1.580        0.233      163.609       27.881        0.029      339.919       13.582      855.533
05/06/2013  10:11:00     -143.711       -4.376      -21.673       45.076       34.103       16.750     2031.885     1162.991      280.567        1.231        0.174      143.778        8.894        0.004      339.759       13.311      855.539
05/06/2013  10:12:00     -124.013       -6.202      -24.385       38.205       31.413       26.234     1459.635      986.792      688.217        0.957        0.157      124.168       16.295        0.017      339.840       13.449      855.532
05/06/2013  10:13:00     -126.619      -33.259      -20.283       53.744       46.425       40.247     2888.369     2155.319     1619.823        1.211        0.333      130.914       20.043        0.023      339.954       13.641      855.532
05/06/2013  10:14:00     -132.767       12.773      -19.348       31.950       53.054       27.674     1020.818     2814.685      765.872        1.138        0.230      133.380       13.179        0.010      339.888       13.531      855.529
05/06/2013  10:15:00      -25.380        9.692        9.649       37.606       27.514       27.081     1414.199      757.005      733.381        0.187        0.145       27.167       18.673        0.472      340.744       14.977      855.523
05/06/2013  10:16:00       -0.974       12.974       34.059       43.342       40.137       26.775     1878.504     1611.001      716.879        0.277        0.210       13.010       22.994        3.124      340.696       14.895      855.516
05/06/2013  10:17:00      -18.129       -8.001       23.612       26.525       28.455       24.397      703.563      809.713      595.200        0.153        0.105       19.816       22.013        1.234      340.606       14.742      855.516
05/06/2013  10:18:00       15.188       47.915       36.043       32.599       39.430       34.488     1062.677     1554.739     1189.427        0.382        0.190       50.265       16.064        0.102      340.512       14.584      855.518
05/06/2013  10:19:00       20.963       -6.016        0.031       20.411       38.158       25.878      416.619     1456.011      669.675        0.151        0.127       21.809       19.077        0.765      340.376       14.354      855.525
05/06/2013  10:20:00       27.759      -23.080       22.413       32.991       48.445       30.142     1088.381     2346.903      908.514        0.307        0.217       36.101       28.782        0.636      340.778       15.034      855.535
05/06/2013  10:21:00        2.352      -58.390       39.074       47.289       44.237       31.422     2236.260     1956.917      987.353        0.506        0.259       58.437       30.376        0.270      340.915       15.265      855.529
05/06/2013  10:22:00       74.524       47.786       33.331       55.608       38.206       33.205     3092.257     1459.721     1102.594        0.730        0.283       88.529       25.092        0.080      341.095       15.570      855.528
05/06/2013  10:23:00        5.642       40.947       61.152       30.021       39.937       32.050      901.274     1594.929     1027.221        0.449        0.176       41.334       16.295        0.155      341.136       15.639      855.526
05/06/2013  10:24:00      -24.507      -35.187       11.957       25.040       39.921       22.684      626.982     1593.656      514.552        0.236        0.137       42.880       23.546        0.302      341.245       15.824      855.522
05/06/2013  10:25:00      -26.269      -16.322       18.012       29.208       33.997       21.750      853.092     1155.768      473.043        0.188        0.124       30.927       17.508        0.320      341.144       15.653      855.531
05/06/2013  10:26:00       54.534       31.132       17.806       56.532       40.661       29.036     3195.864     1653.350      843.098        0.498        0.285       62.794        6.480        0.011      340.839       15.138      855.539
05/06/2013  10:27:00        0.947        7.153       23.607       27.203       28.578       23.769      740.013      816.688      564.952        0.137        0.106        7.215       16.606        5.297      341.509       16.272      855.544
05/06/2013  10:28:00       28.259       -2.405       55.182       50.488       52.479       35.013     2549.069     2754.030     1225.922        0.519        0.326       28.361       25.920        0.835      341.326       15.961      855.549
05/06/2013  10:29:00       85.834      -34.656       42.537       58.367      108.247       63.045     3406.667    11717.458     3974.714        1.474        0.955       92.566       66.368        0.514      340.779       15.036      855.527
05/06/2013  10:30:00       39.286       42.457       72.789       45.702       70.401       54.746     2088.644     4956.337     2997.161        0.934        0.502       57.844       52.065        0.810      340.647       14.812      855.536
05/06/2013  10:31:00       24.574       44.597       74.556       42.389       63.492       41.866     1796.814     4031.176     1752.724        0.786        0.379       50.919       40.607        0.636      341.224       15.789      855.517
05/06/2013  10:32:00       46.231        4.409       35.401       49.760       51.726       43.528     2476.050     2675.601     1894.664        0.523        0.352       46.441       38.878        0.701      341.048       15.491      855.521
05/06/2013  10:33:00       58.383       70.461       72.738       60.622       39.669       52.813     3675.002     1573.668     2789.242        1.085        0.402       91.506       46.334        0.256      340.589       14.714      855.508
05/06/2013  10:34:00       83.100       40.734       13.733       43.627       32.733       27.519     1903.329     1071.429      757.278        0.624        0.187       92.546       12.306        0.018      340.241       14.126      855.504
05/06/2013  10:35:00       10.873      -38.997       22.015       49.384       83.403       41.521     2438.802     6956.102     1723.978        0.662        0.556       40.485       39.340        0.944      340.689       14.884      855.483
05/06/2013  10:36:00       25.404      -66.370       -3.624       51.168       48.183       36.664     2618.181     2321.591     1344.239        0.567        0.314       71.066       33.244        0.219      340.743       14.976      855.468
05/06/2013  10:37:00       42.457      -32.219       38.128       74.759       91.966       58.211     5588.979     8457.786     3388.485        1.086        0.872       53.298       61.869        1.348      341.158       15.675      855.474
05/06/2013  10:38:00      -40.729      -96.155      -11.521       51.149       66.616       37.068     2616.235     4437.749     1374.021        0.973        0.421      104.426       32.273        0.096      340.829       15.120      855.471
05/06/2013  10:39:00      -57.692      -88.073       -2.511       73.896       87.791       34.345     5460.644     7707.215     1179.597        1.272        0.717      105.287       35.511        0.114      341.026       15.453      855.472
05/06/2013  10:40:00      -91.590      -19.338        3.524       57.617       44.273       23.045     3319.736     1960.076      531.089        0.729        0.291       93.609       21.528        0.053      341.041       15.478      855.465
05/06/2013  10:41:00     -137.729      -56.219      -10.465       43.518       39.776       26.878     1893.815     1582.123      722.419        1.322        0.210      148.761       16.539        0.012      340.385       14.369      855.465
05/06/2013  10:42:00      -72.078      -60.641       -9.881       28.549       48.025       27.779      815.057     2306.380      771.694        0.643        0.195       94.194       26.285        0.078      340.300       14.226      855.459
05/06/2013  10:43:00      -52.918       -4.328       -4.713       18.636       24.358       17.062      347.314      593.312      291.122        0.204        0.062       53.095       16.095        0.092      340.371       14.344      855.456
05/06/2013  10:44:00      -71.208      -55.425       13.069       61.961       53.160       31.269     3839.115     2825.954      977.749        0.798        0.382       90.236       28.587        0.100      340.854       15.164      855.445
05/06/2013  10:45:00     -217.698     -122.418      -10.880      103.465       89.824       44.345    10704.933     8068.302     1966.478        4.161        1.037      249.757       40.419        0.026      340.594       14.721      855.432
05/06/2013  10:46:00     -244.439     -172.259       -4.380       90.361       71.142       47.832     8165.104     5061.235     2287.864        5.248        0.776      299.037       42.896        0.021      340.403       14.396      855.418
05/06/2013  10:47:00     -182.056     -147.330       -1.653      101.078       66.647       45.993    10216.847     4441.797     2115.348        3.581        0.839      234.202       52.974        0.051      340.529       14.609      855.420
05/06/2013  10:48:00     -146.818     -134.443       -6.959       96.037       82.537       41.568     9223.110     6812.434     1727.871        2.872        0.888      199.074       38.538        0.037      340.666       14.841      855.415
05/06/2013  10:49:00     -112.585      -92.905        5.636       79.415       54.140       34.813     6306.770     2931.135     1211.913        1.589        0.522      145.969       29.592        0.041      340.815       15.096      855.421
05/06/2013  10:50:00     -143.243     -137.955       -8.295       49.841       60.972       34.881     2484.157     3717.558     1216.667        2.352        0.371      198.872       22.113        0.012      340.773       15.025      855.422
05/06/2013  10:51:00      -81.347     -125.435       -8.578       77.658       64.476       24.825     6030.774     4157.142      616.289        1.661        0.540      149.503       33.201        0.049      340.404       14.400      855.430
05/06/2013  10:52:00      -52.934     -178.551       -8.459       42.273       57.443       26.698     1787.015     3299.729      712.767        2.028        0.290      186.233       20.734        0.012      340.594       14.720      855.433
05/06/2013  10:53:00      -83.492     -144.246      -19.381       40.180       50.708       29.238     1614.400     2571.293      854.851        1.660        0.252      166.667       22.266        0.018      340.463       14.500      855.436
05/06/2013  10:54:00      -69.025      -54.455      -17.130       33.725       41.310       30.767     1137.396     1706.487      946.606        0.591        0.190       87.919       25.719        0.086      340.642       14.802      855.429
05/06/2013  10:55:00      -26.460      -38.339        0.751       51.960       32.658       31.117     2699.843     1066.539      968.249        0.345        0.237       46.583       26.343        0.320      340.815       15.097      855.415
05/06/2013  10:56:00      -66.762      -19.979       15.983       61.194       35.707       27.434     3744.654     1274.994      752.621        0.544        0.289       69.687       33.043        0.225      340.970       15.359      855.432
05/06/2013  10:57:00      -22.572        2.371        2.867       32.626       35.169       29.747     1064.452     1236.881      884.855        0.185        0.159       22.697       26.964        1.411      341.011       15.428      855.432
05/06/2013  10:58:00      -35.601      -27.822        3.896       64.734       34.821       27.588     4190.540     1212.528      761.071        0.411        0.308       45.183       20.246        0.201      341.052       15.499      855.434
05/06/2013  10:59:00      -51.807      -48.802       -3.372       50.137       43.818       26.700     2513.730     1920.054      712.908        0.511        0.257       71.173       22.706        0.102      340.735       14.960      855.434
05/06/2013  11:00:00     -166.994      -78.183      -23.578       34.414       40.653       21.255     1184.332     1652.640      451.778        1.892        0.164      184.390        9.322        0.003      340.508       14.576      855.433
05/06/2013  11:01:00     -119.521      -70.673      -16.024       20.633       56.031       17.726      425.727     3139.462      314.229        1.171        0.194      138.852        7.962        0.003      340.390       14.379      855.440
05/06/2013  11:02:00       -4.312       36.269       18.347       52.204       37.727       28.168     2725.277     1423.292      793.409        0.331        0.247       36.524       28.915        0.627      341.077       15.540      855.439
05/06/2013  11:03:00        9.599       14.449       17.296       18.256       13.401       21.803      333.271      179.583      475.390        0.079        0.049       17.347        8.532        0.242      341.295       15.909      855.434
05/06/2013  11:04:00      -19.760       27.247       -0.878       30.673       29.755       20.459      940.856      885.333      418.590        0.169        0.112       33.658       13.950        0.172      341.191       15.732      855.430
05/06/2013  11:05:00      -66.139      -34.456      -14.446       49.699       22.072       22.372     2469.965      487.178      500.502        0.461        0.173       74.576       16.351        0.048      341.028       15.456      855.428
05/06/2013  11:06:00      -67.054      -50.540       -8.461       48.099       57.195       24.603     2313.558     3271.220      605.295        0.666        0.310       83.967       23.420        0.078      340.810       15.087      855.423
05/06/2013  11:07:00        4.579      -42.552       12.242       48.574       60.599       25.038     2359.397     3672.253      626.889        0.432        0.333       42.798       28.500        0.443      341.215       15.773      855.411
05/06/2013  11:08:00      -77.118       17.026       12.889       72.359       47.090       33.676     5235.844     2217.440     1134.046        0.749        0.429       78.976       36.547        0.214      341.577       16.386      855.401
05/06/2013  11:09:00     -135.744       37.155      -12.562       71.525       52.792       44.332     5115.890     2787.026     1965.346        1.491        0.493      140.737       42.688        0.092      341.408       16.099      855.406
05/06/2013  11:10:00      -66.392       20.717        7.689       59.783       70.115       36.464     3574.025     4916.157     1329.610        0.736        0.491       69.549       38.574        0.308      341.403       16.091      855.396
05/06/2013  11:11:00      -76.461       82.397       -1.591       51.223       64.415       34.324     2623.793     4149.238     1178.103        1.029        0.398      112.408       35.873        0.102      341.081       15.545      855.403
05/06/2013  11:12:00     -111.004       50.442      -19.141       66.478       43.975       28.330     4419.310     1933.814      802.576        1.119        0.358      121.927       22.894        0.035      340.898       15.236      855.397
05/06/2013  11:13:00      -44.482      -45.129       17.861       53.074       36.654       29.175     2816.878     1343.537      851.174        0.467        0.251       63.366       25.623        0.164      341.364       16.026      855.372
05/06/2013  11:14:00      -28.904        9.510       12.467       42.637       21.555       26.846     1817.945      464.622      720.716        0.204        0.150       30.428       25.989        0.730      341.476       16.216      855.350
05/06/2013  11:15:00      -45.865      -91.657       -4.827       44.528       61.390       31.991     1982.706     3768.728     1023.398        0.865        0.339      102.491       25.333        0.061      341.067       15.523      855.346
05/06/2013  11:16:00      -22.033      -56.914       21.796       47.374       62.062       37.054     2244.277     3851.631     1373.001        0.583        0.373       61.030       32.599        0.285      341.503       16.262      855.340
05/06/2013  11:17:00      -34.087      -46.524       16.935       48.884       88.514       46.846     2389.664     7834.770     2194.510        0.801        0.621       57.675       49.298        0.731      341.682       16.564      855.325
05/06/2013  11:18:00       44.368     -115.418      -13.344       75.592      115.762       69.085     5714.130    13400.736     4772.785        1.967        1.194      123.652       68.180        0.304      341.374       16.041      855.305
05/06/2013  11:19:00        0.431      -77.189       21.678       89.553       96.424       64.042     8019.654     9297.494     4101.348        1.392        1.071       77.190       53.277        0.476      341.606       16.436      855.293
05/06/2013  11:20:00       34.012      -47.403       12.996       63.359       78.847       44.602     4014.394     6216.846     1989.326        0.789        0.611       58.342       47.854        0.673      341.263       15.854      855.297
05/06/2013  11:21:00       -4.593      -17.451       35.958       51.303       68.656       48.504     2632.027     4713.708     2352.615        0.566        0.485       18.045       37.212        4.253      341.572       16.378      855.264
05/06/2013  11:22:00      -33.632      -28.753       19.537       38.591       61.323       31.713     1489.268     3760.563     1005.709        0.430        0.313       44.247       21.286        0.231      341.680       16.561      855.251
05/06/2013  11:23:00      -16.518      -79.546       -3.369       28.785       36.038       25.759      828.557     1298.767      663.530        0.470        0.140       81.243        4.872        0.004      341.573       16.379      855.248
05/06/2013  11:24:00       -9.730      -75.052        4.811       42.290       34.819       31.079     1788.433     1212.372      965.924        0.486        0.198       75.680       11.196        0.022      341.875       16.893      855.249
05/06/2013  11:25:00      -51.349      -23.336        1.811       57.542       41.318       25.750     3311.053     1707.190      663.060        0.443        0.284       56.403       17.672        0.098      341.901       16.937      855.258
05/06/2013  11:26:00     -138.911     -126.984       -5.227       81.697       75.393       45.890     6674.324     5684.166     2105.937        2.495        0.723      188.206       36.396        0.037      341.144       15.651      855.252
05/06/2013  11:27:00     -204.619     -139.558        8.238       90.089       77.508       56.797     8116.024     6007.538     3225.854        3.938        0.867      247.681       50.643        0.042      341.044       15.481      855.263
05/06/2013  11:28:00     -106.680      -54.680      -24.454      108.302       38.602       27.830    11729.360     1490.141      774.508        1.448        0.700      119.877        8.135        0.005      340.856       15.164      855.260
05/06/2013  11:29:00      -67.675      -61.550       -7.478       56.101       60.472       23.435     3147.349     3656.834      549.206        0.789        0.368       91.478       10.485        0.013      341.239       15.814      855.270
05/06/2013  11:30:00      -21.272      -67.859      -10.291       45.279       43.240       31.435     2050.191     1869.718      988.140        0.503        0.245       71.115       22.203        0.097      341.774       16.722      855.259
05/06/2013  11:31:00      -80.157      -66.163       -1.857       68.501       53.069       30.162     4692.414     2816.272      909.732        0.961        0.421      103.936       27.765        0.071      341.632       16.480      855.282
05/06/2013  11:32:00      -86.378      -78.942       -9.791       72.961       65.903       33.695     5323.355     4343.216     1135.336        1.229        0.540      117.016       15.323        0.017      341.408       16.100      855.302
05/06/2013  11:33:00      -97.172     -136.233       -5.008      134.829      121.455       56.362    18178.766    14751.359     3176.624        3.206        1.805      167.338       47.047        0.079      341.684       16.567      855.324
05/06/2013  11:34:00     -384.586     -298.799        2.533      184.738      147.244       90.291    34128.103    21680.742     8152.432       15.057        3.198      487.019      101.085        0.043      340.601       14.731      855.316
05/06/2013  11:35:00     -329.408     -251.501      -23.471      173.919      139.412       73.452    30247.944    19435.624     5395.144       11.369        2.754      414.443       79.244        0.037      340.617       14.759      855.306
05/06/2013  11:36:00     -364.866     -228.008       -0.605      180.670      146.758       80.945    32641.642    21537.825     6552.014       12.291        3.037      430.249       90.515        0.044      340.594       14.719      855.286
05/06/2013  11:37:00     -302.235     -200.499        7.001      164.437      123.157       69.900    27039.623    15167.679     4885.961        8.934        2.355      362.693       73.993        0.042      340.780       15.034      855.266
05/06/2013  11:38:00     -203.207     -156.213        7.297      143.413      146.698       78.385    20567.349    21520.333     6144.187        5.698        2.412      256.311       81.505        0.101      340.938       15.301      855.272
05/06/2013  11:39:00     -411.109       12.530      -29.164      171.610      178.197       75.148    29449.942    31754.261     5647.163       11.842        3.343      411.300       85.632        0.043      341.001       15.406      855.278
05/06/2013  11:40:00     -286.622      -48.671       -0.721      224.519      100.318       73.472    50408.907    10063.615     5398.107        7.519        3.294      290.725       87.233        0.090      340.990       15.389      855.271
05/06/2013  11:41:00     -390.137       -8.184      -12.384      235.227      166.238      108.687    55331.741    27635.200    11812.874       12.359        4.739      390.223      128.346        0.108      340.899       15.234      855.233
05/06/2013  11:42:00     -537.920      -88.213      -22.128      169.393      184.442       99.287    28693.859    34018.813     9857.838       18.509        3.629      545.105       96.048        0.031      340.721       14.933      855.250
05/06/2013  11:43:00     -512.020       34.390      -42.258      226.412      206.935       92.378    51262.281    42822.050     8533.745       18.386        5.131      513.173       90.423        0.031      340.572       14.681      855.276
05/06/2013  11:44:00     -290.569      -55.553        7.736      218.361      174.020       96.011    47681.411    30282.848     9218.170        8.736        4.359      295.832      109.929        0.138      340.896       15.231      855.275
05/06/2013  11:45:00     -261.965     -175.336       -6.839      220.227      160.153       88.553    48499.955    25649.046     7841.614        9.069        4.100      315.228       97.540        0.096      340.646       14.808      855.275
05/06/2013  11:46:00     -231.995     -138.218        3.221      190.962      128.851       90.420    36466.667    16602.460     8175.816        6.708        3.062      270.048      104.180        0.149      340.703       14.904      855.277
05/06/2013  11:47:00     -307.901      -70.704       -6.360      177.615      180.512       69.627    31546.926    32584.674     4847.854        8.440        3.449      315.914       81.535        0.067      340.688       14.878      855.297
05/06/2013  11:48:00     -346.967     -183.373       -9.254      208.399      166.576       79.383    43430.012    27747.453     6301.648       11.578        3.874      392.443       96.491        0.060      340.433       14.447      855.289
05/06/2013  11:49:00     -409.177     -129.531      -19.294      169.967      122.252       71.572    28888.832    14945.586     5122.614       11.676        2.448      429.189       65.466        0.023      340.532       14.614      855.312
05/06/2013  11:50:00     -412.588     -184.813      -24.055      216.506      191.145      104.589    46874.660    36536.361    10938.935       14.964        4.717      452.090      115.838        0.066      340.485       14.535      855.302
05/06/2013  11:51:00     -324.898      -14.772        7.849      267.981      211.723       99.871    71813.591    44826.658     9974.268       11.621        6.331      325.233      135.040        0.172      340.550       14.643      855.310
05/06/2013  11:52:00     -362.210      -76.965       -7.806      311.851      140.069       78.082    97250.877    19619.458     6096.731       13.005        6.148      370.297      106.987        0.083      340.611       14.750      855.325
05/06/2013  11:53:00     -300.239      -72.754       12.362      187.196      163.167       85.192    35042.352    26623.488     7257.598        8.224        3.446      308.928       96.664        0.098      340.553       14.650      855.326
05/06/2013  11:54:00     -488.541     -143.851      -20.011      209.457      162.125       92.422    43872.319    26284.427     8541.769       16.922        3.935      509.279      106.554        0.044      340.305       14.231      855.318
05/06/2013  11:55:00     -372.937     -177.564      -14.461      232.464      125.453       86.826    54039.475    15738.349     7538.833       12.406        3.866      413.051       91.140        0.049      340.360       14.324      855.332
05/06/2013  11:56:00     -369.646     -195.823      -20.943      244.289      112.830       89.155    59677.198    12730.706     7948.639       12.788        4.018      418.312       94.566        0.051      340.405       14.399      855.325
05/06/2013  11:57:00     -598.698      -81.853      -16.051      224.361      183.661       92.063    50337.761    33731.481     8475.590       22.896        4.627      604.267      107.229        0.031      340.280       14.187      855.301
05/06/2013  11:58:00     -619.300       12.945      -19.071      279.188      176.225      110.618    77946.023    31055.143    12236.392       25.263        6.062      619.435      135.185        0.048      340.223       14.092      855.293
05/06/2013  11:59:00     -602.269     -131.410      -25.763      273.705      198.688      106.795    74914.538    39476.968    11405.268       25.321        6.290      616.439      137.867        0.050      340.253       14.143      855.266
05/06/2013  12:00:00     -485.760      -43.773       -3.586      196.189      169.624       86.306    38490.183    28772.168     7448.771       15.629        3.736      487.728       91.655        0.035      340.342       14.292      855.269
05/06/2013  12:01:00     -433.764     -128.141      -17.077      203.726      185.168       74.839    41504.381    34287.305     5600.900       14.311        4.070      452.296       83.619        0.034      340.421       14.427      855.280
05/06/2013  12:02:00     -347.410      -75.076      -10.218      175.578      166.560       82.148    30827.745    27742.347     6748.355        9.587        3.266      355.429       88.405        0.062      340.769       15.016      855.263
05/06/2013  12:03:00     -439.230      -38.304      -35.085      218.940      173.960       86.895    47934.693    30262.071     7550.800       14.067        4.287      440.897       83.404        0.036      340.651       14.816      855.254
05/06/2013  12:04:00     -281.273      -49.876       -1.497      233.228      137.749       86.314    54395.313    18974.657     7450.044        8.120        4.041      285.661       98.446        0.119      340.741       14.969      855.218
05/06/2013  12:05:00     -485.316       35.385      -29.308      225.285      169.425       96.780    50753.349    28704.931     9366.298       16.322        4.441      486.605      105.299        0.047      340.618       14.759      855.218
05/06/2013  12:06:00     -363.264      -50.377      -16.923      204.682      140.702       83.516    41894.707    19797.154     6974.980       10.171        3.433      366.740       95.999        0.069      340.695       14.890      855.225
05/06/2013  12:07:00     -410.820      -82.906      -23.202      212.285      182.951       99.988    45064.992    33471.022     9997.604       13.234        4.427      419.103       94.879        0.051      340.608       14.744      855.209
05/06/2013  12:08:00     -441.191      -46.099      -31.624      273.198      213.502       94.266    74637.088    45583.194     8886.168       16.342        6.455      443.593      105.988        0.057      340.560       14.661      855.208
05/06/2013  12:09:00     -393.866      -49.911       -9.034      171.747      161.372       78.846    29496.906    26040.763     6216.636       10.972        3.088      397.016       81.191        0.042      340.469       14.507      855.229
05/06/2013  12:10:00     -460.936     -118.108       -0.895      261.084      263.410      122.605    68165.090    69385.086    15031.957       18.947        7.629      475.828      127.146        0.071      340.216       14.080      855.243
05/06/2013  12:11:00     -507.024     -110.569        0.229      312.990      215.685      109.572    97962.455    46519.825    12006.005       21.287        7.824      518.940      138.905        0.072      340.010       13.732      855.207
05/06/2013  12:12:00     -353.887      -81.566       10.736      336.202      174.708      102.716   113031.505    30523.036    10550.657       14.303        7.705      363.165      145.500        0.161      340.310       14.240      855.222
05/06/2013  12:13:00     -237.000       52.351        8.799      323.278      111.804       99.337   104508.368    12500.097     9867.777        9.291        6.344      242.713      138.671        0.326      340.586       14.706      855.205
05/06/2013  12:14:00     -439.723      -63.829      -15.601      217.608      156.367       91.666    47353.193    24450.604     8402.564       13.893        4.010      444.332       91.805        0.043      340.389       14.373      855.216
05/06/2013  12:15:00     -417.246      -37.092      -11.803      347.805      163.741      101.932   120968.588    26811.105    10390.036       16.686        7.908      418.892      156.804        0.140      340.345       14.298      855.215
05/06/2013  12:16:00     -425.213      -46.027      -19.676      174.332      197.182       87.819    30391.666    38880.633     7712.099       13.014        3.849      427.697       82.179        0.037      340.358       14.321      855.228
05/06/2013  12:17:00     -566.947     -170.592      -16.742      286.719      182.449       93.813    82207.631    33287.700     8800.812       23.753        6.215      592.057      102.087        0.030      339.915       13.573      855.209
05/06/2013  12:18:00     -406.828     -135.984       -7.087      275.710      190.375      104.456    76016.151    36242.557    10911.031       15.359        6.158      428.953      127.775        0.089      340.183       14.026      855.189
05/06/2013  12:19:00     -451.977     -164.708      -25.706      231.000      144.447       82.783    53360.860    20865.032     6852.974       15.656        4.054      481.053       89.966        0.035      340.000       13.716      855.208
05/06/2013  12:20:00     -447.746      -99.342      -33.753      225.894      151.042       82.681    51028.108    22813.599     6836.156       14.607        4.034      458.634      103.144        0.051      340.227       14.098      855.182
05/06/2013  12:21:00     -587.764      -80.304      -38.226      194.023      135.230       81.705    37644.756    18287.283     6675.683       20.798        3.130      593.225       88.209        0.022      340.034       13.773      855.207
05/06/2013  12:22:00     -478.241      -42.632      -24.591      183.150      189.479       66.823    33543.793    35902.356     4465.272       15.251        3.696      480.138       61.621        0.016      340.423       14.429      855.178
05/06/2013  12:23:00     -443.991       -8.062      -24.388      149.216      133.587       72.960    22265.527    17845.522     5323.227       12.160        2.272      444.064       76.397        0.030      340.606       14.739      855.188
05/06/2013  12:24:00     -469.574     -117.460      -20.654      162.920      137.579       70.573    26542.881    18927.941     4980.589       14.258        2.523      484.042       78.293        0.026      340.608       14.742      855.203
05/06/2013  12:25:00     -346.585      -92.667       -2.873      178.673      106.183       68.107    31923.937    11274.932     4638.586        8.827        2.392      358.760       75.683        0.045      340.661       14.832      855.221
05/06/2013  12:26:00     -326.554     -240.759       -4.247      184.253      157.277       89.776    33949.075    24736.058     8059.683       11.567        3.337      405.712       92.216        0.052      340.572       14.681      855.222
05/06/2013  12:27:00     -347.991     -152.902        2.808      217.617      150.693       77.749    47357.025    22708.485     6044.970       11.028        3.806      380.101       95.315        0.063      340.533       14.618      855.258
05/06/2013  12:28:00     -456.056      -18.989      -22.995      187.857      151.728       78.085    35290.338    23021.264     6097.265       13.663        3.220      456.451       84.234        0.034      340.471       14.511      855.276
05/06/2013  12:29:00     -281.920      -54.734      -13.060      219.383      165.109       82.447    48128.725    27260.925     6797.428        8.240        4.109      287.184       95.435        0.110      340.538       14.625      855.270
05/06/2013  12:30:00     -351.902     -206.655       10.164      184.901      125.150       84.448    34188.478    15662.537     7131.427       11.180        2.849      408.095       91.297        0.050      340.257       14.148      855.278
05/06/2013  12:31:00     -190.966      -94.268       14.834      133.538      139.131       78.631    17832.454    19357.500     6182.789        4.447        2.169      212.966       67.038        0.099      340.500       14.561      855.276
05/06/2013  12:32:00     -281.317      -32.393       -5.991      184.580      146.893       81.060    34069.792    21577.622     6570.771        7.121        3.111      283.176       88.572        0.098      340.592       14.716      855.263
05/06/2013  12:33:00     -580.920      -62.617      -39.723      211.508      149.416       78.547    44735.423    22325.071     6169.693       20.809        3.662      584.285       81.088        0.019      340.167       13.997      855.217
05/06/2013  12:34:00     -573.492     -106.781      -20.304      221.301      187.760       79.845    48973.916    35253.955     6375.263       21.564        4.530      583.348       87.720        0.023      340.278       14.185      855.143
05/06/2013  12:35:00     -437.808     -129.433       -8.161      241.092      211.730       99.362    58125.339    44829.782     9872.872       16.064        5.641      456.540      111.807        0.060      340.207       14.065      855.140
05/06/2013  12:36:00     -398.942      -24.712       -7.818      277.313      144.118       96.228    76902.712    20769.914     9259.816       13.336        5.347      399.707      129.822        0.105      340.176       14.014      855.114
05/06/2013  12:37:00     -519.930     -100.286      -28.051      220.131      164.088       86.865    48457.710    26924.832     7545.543       18.204        4.146      529.513       90.212        0.029      340.055       13.807      855.099
05/06/2013  12:38:00     -456.229     -103.927       -4.613      224.618      168.204       94.026    50453.185    28292.618     8840.884       15.326        4.379      467.916      105.876        0.051      340.037       13.778      855.069
05/06/2013  12:39:00     -394.002      -48.089      -17.336      166.619      152.149       76.415    27761.948    23149.373     5839.234       10.729        2.838      396.926       72.382        0.033      340.139       13.950      855.048
05/06/2013  12:40:00     -308.526     -110.544       -3.565      184.930      136.954       70.495    34199.084    18756.476     4969.572        8.266        2.896      327.732       70.068        0.046      340.211       14.073      855.031
05/06/2013  12:41:00     -314.911      -36.006       -4.793      200.883      175.953       76.879    40354.129    30959.421     5910.453        8.884        3.861      316.963       70.572        0.050      340.324       14.265      855.034
05/06/2013  12:42:00     -490.078      -28.762      -22.858      285.379      165.104       96.215    81441.226    27259.403     9257.414       17.972        5.898      490.921      123.723        0.064      340.151       13.971      855.026
05/06/2013  12:43:00     -334.780       11.951      -18.536      146.402      106.978       72.511    21433.604    11444.346     5257.825        7.534        1.907      334.994       75.377        0.051      340.409       14.407      855.024
05/06/2013  12:44:00     -438.939       -2.733      -25.652      193.738      160.989       91.646    37534.260    25917.346     8399.009       13.258        3.593      438.948       98.233        0.050      340.226       14.097      855.020
05/06/2013  12:45:00     -598.939     -181.262      -28.765      232.072      197.925       95.442    53857.561    39174.462     9109.116       24.726        5.107      625.767      108.683        0.030      340.030       13.767      855.018
05/06/2013  12:46:00     -367.081      -14.698        6.235      257.572      156.538      105.248    66343.171    24504.289    11077.132       11.845        5.096      367.375      136.686        0.138      340.184       14.027      855.022
05/06/2013  12:47:00     -434.706      -56.070      -31.659      216.447      174.620      100.853    46849.378    30492.180    10171.402       14.030        4.376      438.307      119.450        0.074      340.080       13.851      855.053
05/06/2013  12:48:00     -631.986     -160.228      -17.977      303.544      210.381      110.714    92139.195    44260.139    12257.507       28.701        7.433      651.981      131.043        0.040      339.873       13.501      855.002
05/06/2013  12:49:00     -634.058     -194.182      -30.953      245.858      175.591      102.450    60445.944    30832.024    10495.967       27.122        5.089      663.126      110.406        0.028      339.804       13.385      855.034
05/06/2013  12:50:00     -370.389     -142.584       -8.890      239.366      160.239       87.032    57295.958    25676.463     7574.582       12.406        4.527      396.885       93.196        0.055      340.036       13.776      855.054
05/06/2013  12:51:00     -644.335      -77.420      -35.085      297.258      210.290      107.041    88362.283    44221.677    11457.738       28.319        7.202      648.969      122.814        0.036      339.866       13.489      855.054
05/06/2013  12:52:00     -614.807     -151.128      -36.932      304.125      202.647       93.361    92492.232    41065.927     8716.308       27.221        7.114      633.109      113.869        0.032      339.771       13.330      855.041
05/06/2013  12:53:00     -205.882      -55.796       30.607      270.245      213.035      130.312    73032.523    45384.104    16981.266        9.089        6.770      213.309      127.580        0.358      340.063       13.821      855.024
05/06/2013  12:54:00     -324.758     -153.567       -9.138      246.788      204.838      129.437    60904.472    41958.726    16754.050       12.436        5.981      359.236      108.450        0.091      339.866       13.490      855.009
05/06/2013  12:55:00     -358.341     -107.325       -5.672      229.744      168.353       95.170    52782.330    28342.877     9057.261       11.506        4.509      374.069      106.695        0.081      340.004       13.723      855.006
05/06/2013  12:56:00     -490.912     -128.880      -16.676      227.030      235.208      108.029    51542.441    55322.886    11670.254       18.819        5.927      507.547       99.442        0.038      339.935       13.606      855.027
05/06/2013  12:57:00     -506.011     -107.089       -1.718      267.063      179.502      106.407    71322.890    32221.129    11322.406       19.117        5.743      517.218      124.166        0.058      339.951       13.631      855.036
05/06/2013  12:58:00     -446.315      -32.448       -4.172      226.337      179.904       87.870    51228.593    32365.373     7721.098       14.578        4.566      447.493      108.765        0.059      340.065       13.825      855.035
05/06/2013  12:59:00     -472.923     -146.840      -19.567      223.515      186.401       85.935    49959.045    34745.407     7384.895       16.883        4.604      495.195      103.786        0.044      339.905       13.554      855.020
05/06/2013  13:00:00     -553.440       21.114      -36.896      206.552      198.824      105.385    42663.829    39530.982    11106.100       20.069        4.665      553.842       97.892        0.031      340.014       13.739      855.012
05/06/2013  13:01:00     -601.165     -110.112      -23.108      254.926      155.331       96.541    64987.048    24127.758     9320.248       23.623        4.922      611.166      110.537        0.033      339.934       13.606      855.004
05/06/2013  13:02:00     -601.499     -141.562      -10.031      195.531      192.003       99.124    38232.393    36865.218     9825.511       23.342        4.246      617.933      100.627        0.027      339.788       13.357      854.993
05/06/2013  13:03:00     -672.396       -5.064      -38.712      334.420      206.224      113.564   111836.514    42528.197    12896.702       31.042        8.363      672.415      140.804        0.044      339.808       13.391      854.956
05/06/2013  13:04:00     -627.692     -175.975      -24.960      244.503      248.356      116.663    59781.629    61680.907    13610.140       28.031        6.754      651.893      113.133        0.030      339.745       13.286      854.934
05/06/2013  13:05:00     -569.047      -15.788      -42.056      231.642      213.485      108.095    53658.188    45575.696    11684.612       21.836        5.546      569.266      111.603        0.038      339.890       13.529      854.946
05/06/2013  13:06:00     -810.153      -93.885      -50.842      339.056      208.211      109.402   114958.758    43351.748    11968.705       41.898        8.514      815.575      145.535        0.032      339.665       13.152      854.914
05/06/2013  13:07:00     -742.485      -65.461      -36.787      321.977      281.511      126.803   103669.196    79248.660    16079.049       37.793        9.950      745.365      145.555        0.038      339.679       13.174      854.950
05/06/2013  13:08:00     -738.516      -49.798      -45.999      267.776      214.279      106.238    71704.127    45915.449    11286.545       33.943        6.445      740.193      118.955        0.026      339.695       13.201      854.940
05/06/2013  13:09:00     -552.581     -136.004      -11.898      300.838      214.588      111.409    90503.216    46048.025    12411.944       23.645        7.448      569.072      136.023        0.057      339.793       13.368      854.966
05/06/2013  13:10:00     -330.499      -69.922        9.562      206.264      169.040       89.623    42544.943    28574.679     8032.248        9.667        3.958      337.814       95.604        0.080      340.016       13.741      854.988
05/06/2013  13:11:00     -363.960     -209.619      -15.134      232.922      204.279      114.516    54252.720    41729.777    13113.878       14.285        5.455      420.008      111.324        0.070      339.925       13.589      854.974
05/06/2013  13:12:00     -273.843      -91.879       17.026      233.764      224.270       91.735    54645.505    50297.198     8415.236        9.852        5.668      288.846      100.264        0.120      340.071       13.836      855.007
05/06/2013  13:13:00     -264.896      -40.979       16.725      262.618      178.180       98.518    68968.289    31748.280     9705.796        9.126        5.521      268.047      113.008        0.178      340.089       13.867      855.009
05/06/2013  13:14:00     -558.313       -6.679      -40.125      287.261      190.756      110.273    82518.942    36387.990    12160.036       22.220        6.553      558.353      134.440        0.058      339.818       13.409      855.038
05/06/2013  13:15:00     -361.635        1.070       -4.757      314.660      196.838      109.924    99010.749    38745.269    12083.252       14.030        7.492      361.637      151.503        0.176      340.009       13.730      855.061
05/06/2013  13:16:00     -478.294     -198.872      -13.207      293.751      235.748      128.965    86289.390    55577.341    16632.048       21.347        7.925      517.992      150.634        0.085      339.903       13.552      855.069
05/06/2013  13:17:00     -502.047      -40.966      -31.774      257.408      194.087      111.519    66258.891    37669.642    12436.388       18.553        5.818      503.715      125.031        0.062      339.974       13.671      855.099
05/06/2013  13:18:00     -469.470      -49.401      -13.127      250.899      192.179      110.075    62950.197    36932.939    12116.568       16.749        5.600      472.062      111.919        0.056      339.949       13.630      855.108
05/06/2013  13:19:00     -541.046      -85.741      -33.446      326.575      168.111      105.839   106651.121    28261.253    11201.861       22.363        7.306      547.798      134.588        0.060      339.860       13.480      855.125
05/06/2013  13:20:00     -515.936     -129.297        1.485      261.904      170.392      113.230    68593.806    29033.446    12821.015       19.666        5.522      531.891      118.177        0.049      339.885       13.521      855.108
05/06/2013  13:21:00     -583.685      -71.060      -14.269      316.933      172.655      105.401   100446.802    29809.820    11109.368       24.363        7.068      587.995      127.004        0.047      340.039       13.780      855.127
05/06/2013  13:22:00     -601.282     -230.813      -35.057      291.125      215.599       99.678    84753.816    46482.721     9935.774       27.858        7.059      644.061      116.637        0.033      339.861       13.480      855.143
05/06/2013  13:23:00     -544.418     -147.721      -14.411      305.172      222.603      102.310    93130.017    49552.279    10467.421       23.576        7.657      564.103      123.914        0.048      339.937       13.608      855.165
05/06/2013  13:24:00     -560.598     -121.097      -19.577      322.819      192.843      119.711   104212.170    37188.350    14330.711       24.250        7.787      573.528      144.431        0.063      339.818       13.408      855.154
05/06/2013  13:25:00     -384.081     -133.328       -1.900      331.856      223.327      109.467   110128.573    49874.816    11983.033       16.861        8.599      406.564      143.962        0.125      339.972       13.668      855.159
05/06/2013  13:26:00     -352.925      -34.320       -6.075      245.460      164.726       92.670    60250.585    27134.789     8587.733       11.086        4.799      354.590      101.261        0.082      340.108       13.899      855.180
05/06/2013  13:27:00     -348.719      -26.295      -16.404      260.233      135.573       93.171    67721.313    18380.037     8680.877       10.866        4.739      349.709      108.432        0.096      340.168       13.999      855.193
05/06/2013  13:28:00     -839.331     -200.461      -46.744      267.488      232.983      121.696    71550.071    54281.233    14809.955       44.372        7.032      862.938      127.681        0.022      339.761       13.312      855.179
05/06/2013  13:29:00     -548.787     -139.907      -17.095      255.547      224.290      120.444    65304.016    50305.870    14506.812       22.555        6.506      566.340      136.372        0.058      339.923       13.586      855.204
05/06/2013  13:30:00     -494.946      -38.293      -38.479      221.565      180.754      105.821    49090.936    32672.033    11197.983       17.042        4.648      496.425      112.773        0.052      340.069       13.833      855.182
05/06/2013  13:31:00     -473.623     -170.574      -15.616      269.239      198.377      103.284    72489.668    39353.591    10667.624       18.806        6.126      503.403      128.547        0.065      340.057       13.812      855.213
05/06/2013  13:32:00     -450.889     -102.248        9.925      273.520      177.252      113.152    74813.002    31418.433    12803.434       16.642        5.952      462.337      124.395        0.072      340.094       13.874      855.216
05/06/2013  13:33:00     -708.167       -0.064      -21.563      300.973      224.381      130.692    90584.619    50346.911    17080.351       32.996        7.901      708.167      139.571        0.039      339.973       13.670      855.195
05/06/2013  13:34:00     -707.118     -152.200      -19.099      286.836      225.679      119.044    82274.859    50930.864    14171.405       33.544        7.369      723.312      110.967        0.024      339.948       13.628      855.173
05/06/2013  13:35:00     -510.462     -182.796      -16.468      253.316      235.294      100.085    64169.004    55363.404    10016.992       21.188        6.477      542.204      117.835        0.047      340.084       13.859      855.177
05/06/2013  13:36:00     -714.610     -158.448      -22.470      337.784      212.942      111.892   114097.806    45344.188    12519.780       35.409        8.598      731.966      150.191        0.042      339.915       13.573      855.211
05/06/2013  13:37:00     -524.078     -104.422      -11.121      250.179      178.937      119.148    62589.338    32018.384    14196.314       19.723        5.440      534.380      127.081        0.057      339.927       13.592      855.206
05/06/2013  13:38:00     -374.047     -112.414        0.577      218.004      182.399       97.748    47525.623    33269.284     9554.611       12.143        4.517      390.574      106.293        0.074      340.084       13.858      855.235
05/06/2013  13:39:00     -143.362      -48.695        9.016      166.620      113.176       88.017    27762.201    12808.815     7747.013        3.565        2.416      151.406       78.281        0.267      340.241       14.122      855.212
05/06/2013  13:40:00     -766.075      -96.253      -56.882      261.805      175.377      114.863    68541.950    30757.247    13193.415       35.591        5.625      772.098      122.797        0.025      339.869       13.495      855.237
05/06/2013  13:41:00     -362.733      -79.804      -11.397      238.681      137.838       81.164    56968.475    18999.384     6587.537       11.030        4.128      371.408       99.937        0.072      340.186       14.029      855.269
05/06/2013  13:42:00     -256.292     -131.702       -5.036      140.099      128.018       75.430    19627.623    16388.702     5689.625        6.237        2.085      288.151       75.737        0.069      340.305       14.230      855.259
05/06/2013  13:43:00     -217.127     -107.919       11.835      223.836      159.982       82.726    50102.687    25594.359     6843.628        7.072        4.127      242.467       86.668        0.128      340.406       14.403      855.209
05/06/2013  13:44:00     -651.522     -108.007      -33.267      363.790      184.970      108.915   132343.013    34214.020    11862.558       30.781        8.921      660.414      159.378        0.058      340.049       13.798      855.181
05/06/2013  13:45:00     -280.969      -92.037       35.170      277.155      191.759      112.491    76815.107    36771.346    12654.121       10.742        6.312      295.659      130.074        0.194      340.221       14.089      855.165
05/06/2013  13:46:00     -630.015       20.800      -39.027      234.281      192.058      106.026    54887.700    36886.341    11241.574       25.093        5.151      630.358      111.946        0.032      340.209       14.068      855.170
05/06/2013  13:47:00     -530.249      -80.005      -24.625      260.735      209.115      101.435    67982.686    43729.209    10289.155       20.507        6.100      536.251      113.830        0.045      339.970       13.665      855.185
05/06/2013  13:48:00     -549.236     -115.691      -29.583      270.038      188.433      102.747    72920.748    35506.897    10557.035       21.743        5.949      561.289      131.030        0.054      340.208       14.066      855.137
05/06/2013  13:49:00     -520.305      -58.057       -5.261      285.379      179.163      124.727    81441.351    32099.403    15556.857       20.158        6.455      523.534      149.156        0.081      340.222       14.092      855.127
05/06/2013  13:50:00     -467.775      -88.623      -27.352      248.190      178.539       91.158    61598.117    31876.028     8309.771       16.458        5.089      476.096      115.879        0.059      340.285       14.197      855.145
05/06/2013  13:51:00     -534.707      -69.419       -5.292      340.455      209.974      106.223   115909.633    44089.276    11283.248       23.099        8.564      539.195      146.068        0.073      340.237       14.114      855.155
05/06/2013  13:52:00     -439.778      -82.581        8.515      281.311      169.835      109.184    79135.845    28843.759    11921.188       16.008        5.995      447.464      139.337        0.097      340.304       14.229      855.161
05/06/2013  13:53:00     -510.946      -79.070      -15.182      284.688      244.550      119.388    81047.107    59804.820    14253.556       21.130        7.755      517.028      116.233        0.051      340.181       14.022      855.152
05/06/2013  13:54:00     -557.448      -43.081      -25.297      274.059      174.978      109.992    75108.470    30617.221    12098.330       21.551        5.891      559.111      123.986        0.049      340.209       14.067      855.168
05/06/2013  13:55:00     -487.284      -91.151      -19.497      325.950      185.453      115.776   106243.418    34392.652    13404.148       20.006        7.702      495.736      149.257        0.091      340.130       13.935      855.158
05/06/2013  13:56:00     -430.437     -222.215      -30.562      244.179      266.838      117.326    59623.247    71202.318    13765.475       19.007        7.230      484.412      107.714        0.049      340.198       14.050      855.120
05/06/2013  13:57:00     -305.231       -2.715        1.911      210.900      164.662      105.979    44478.994    27113.487    11231.543        8.799        4.141      305.243      104.255        0.117      340.352       14.310      855.173
05/06/2013  13:58:00     -595.873     -100.990      -17.165      243.709      221.899      115.777    59393.915    49239.332    13404.232       24.378        6.102      604.371      125.644        0.043      340.067       13.827      855.183
05/06/2013  13:59:00     -435.138       32.786      -19.405      278.919      174.572       98.491    77795.954    30475.322     9700.519       15.436        5.899      436.371      131.821        0.091      340.213       14.076      855.191
05/06/2013  14:00:00     -551.683       63.850      -26.408      186.844      140.387       94.184    34910.742    19708.408     8870.616       18.630        3.174      555.366       87.329        0.025      340.220       14.087      855.187
05/06/2013  14:01:00     -462.907     -136.495      -19.872      195.069      271.764       92.843    38051.907    73855.480     8619.770       17.690        6.026      482.612       95.732        0.039      340.201       14.056      855.165
05/06/2013  14:02:00     -505.245      -85.942        0.933      263.127      179.205      110.058    69235.592    32114.539    12112.671       18.804        5.673      512.502      118.852        0.054      340.100       13.886      855.164
05/06/2013  14:03:00     -584.034     -160.556      -40.205      301.343      199.138      121.469    90807.415    39656.083    14754.801       25.683        7.261      605.701      135.006        0.050      340.027       13.759      855.184
05/06/2013  14:04:00     -430.408      -60.018       -5.609      278.439      164.983      105.622    77528.069    27219.555    11155.979       15.237        5.795      434.573      114.583        0.070      340.163       13.993      855.126
05/06/2013  14:05:00     -734.804      -68.573      -48.502      283.275      242.369      103.128    80244.840    58742.961    10635.485       34.828        7.481      737.996      111.344        0.023      340.009       13.731      855.129
05/06/2013  14:06:00     -739.409     -264.284      -10.834      329.888      236.767      114.847   108825.880    56058.573    13189.897       39.735        8.904      785.221      124.295        0.025      339.842       13.450      855.117
05/06/2013  14:07:00     -614.883      -62.853      -28.786      222.279      226.097      106.135    49407.960    51119.709    11264.586       24.731        5.590      618.087      105.628        0.029      339.974       13.670      855.113
05/06/2013  14:08:00     -462.044     -191.239      -20.601      246.686      184.143       94.823    60853.750    33908.642     8991.313       17.710        5.188      500.057       93.596        0.035      340.050       13.799      855.140
05/06/2013  14:09:00     -521.483      -12.383       -8.811      246.452      197.217      100.924    60738.488    38894.413    10185.727       19.098        5.491      521.630      119.200        0.052      340.147       13.963      855.185
05/06/2013  14:10:00     -468.135      -50.794        7.923      252.242      186.759      104.256    63626.004    34878.797    10869.209       16.557        5.469      470.883      124.141        0.070      340.178       14.015      855.199
05/06/2013  14:11:00     -508.403      -97.504      -21.112      260.362      189.514      106.404    67788.602    35915.717    11321.882       19.171        5.751      517.668      113.728        0.048      340.059       13.815      855.220
05/06/2013  14:12:00     -576.925      -69.272      -35.463      306.183      153.663       95.061    93748.000    23612.282     9036.507       23.263        6.320      581.069      100.558        0.030      339.991       13.700      855.228
05/06/2013  14:13:00     -497.818      -15.799      -16.117      225.833      193.678      106.098    51000.506    37511.041    11256.772       17.403        4.988      498.069      123.040        0.061      340.128       13.933      855.226
05/06/2013  14:14:00     -705.586     -243.836      -17.893      300.200      226.855      117.898    90120.030    51463.381    13900.044       35.653        7.774      746.530      136.067        0.033      339.929       13.594      855.166
05/06/2013  14:15:00     -370.471      -51.554      -31.351      237.182      167.763       88.355    56255.347    28144.548     7806.673       11.653        4.610      374.041       92.040        0.061      340.156       13.977      855.196
05/06/2013  14:16:00     -451.391     -213.719      -18.560      249.185      190.828      109.374    62093.375    36415.346    11962.578       18.010        5.524      499.429      112.943        0.051      340.234       14.112      855.190
05/06/2013  14:17:00     -519.818     -255.377      -20.489      290.061      224.761      106.701    84135.590    50517.379    11385.080       24.092        7.302      579.161      126.024        0.047      340.108       13.898      855.185
05/06/2013  14:18:00     -362.983      -52.568      -14.845      237.262      181.263       80.201    56293.335    32856.282     6432.224       11.514        4.779      366.769       91.772        0.063      340.218       14.084      855.246
05/06/2013  14:19:00     -471.069        4.069      -26.981      239.520      214.702      102.202    57369.784    46096.827    10445.281       16.826        5.696      471.087      109.919        0.054      340.140       13.951      855.254
05/06/2013  14:20:00     -432.443        8.082       -1.004      229.145      148.402       99.275    52507.634    22023.246     9855.547       13.572        4.219      432.518      109.814        0.064      340.298       14.218      855.266
05/06/2013  14:21:00     -290.030     -101.770       24.014      234.063      179.528      104.100    54785.514    32230.265    10836.751        9.644        4.893      307.367      123.365        0.161      340.379       14.356      855.276
05/06/2013  14:22:00     -364.515      -23.037       -4.677      261.092      118.389      102.297    68168.827    14015.838    10464.751       11.302        4.632      365.243      130.991        0.129      340.321       14.258      855.261
05/06/2013  14:23:00     -527.418      -12.212      -16.043      294.762      174.693      107.538    86884.846    30517.662    11564.518       20.375        6.448      527.560      131.679        0.062      340.310       14.239      855.271
05/06/2013  14:24:00     -542.023     -137.191      -15.292      238.887      239.658      111.911    57067.094    57435.721    12524.112       21.991        6.351      559.115      125.983        0.051      340.155       13.978      855.243
05/06/2013  14:25:00     -250.923      -45.610       23.303      201.666      134.495       94.123    40669.363    18088.952     8859.080        6.659        3.381      255.034       87.398        0.117      340.425       14.435      855.250
05/06/2013  14:26:00     -428.985      -83.953      -12.507      276.417      177.294       97.949    76406.247    31433.328     9594.064       15.431        5.872      437.122      120.400        0.076      340.323       14.260      855.246
05/06/2013  14:27:00     -490.549     -156.453      -46.100      280.841      147.481      105.259    78871.498    21750.500    11079.505       18.945        5.585      514.894      129.262        0.063      340.264       14.161      855.240
05/06/2013  14:28:00     -464.340      -47.545      -14.976      243.125      151.165       77.353    59109.612    22850.973     5983.495       15.301        4.397      466.767       85.448        0.034      340.394       14.381      855.268
05/06/2013  14:29:00     -343.964      -47.854      -14.920      233.939      144.485       81.662    54727.500    20876.039     6668.689       10.153        4.114      347.277      102.936        0.088      340.452       14.479      855.305
05/06/2013  14:30:00     -363.063     -144.506      -10.916      230.664      235.134      105.040    53205.874    55287.912    11033.485       13.615        5.976      390.764      111.512        0.081      340.343       14.294      855.273
05/06/2013  14:31:00     -367.191     -135.051      -15.262      234.400      136.047       96.601    54943.222    18508.750     9331.824       11.803        4.139      391.239      110.074        0.079      340.274       14.179      855.214
05/06/2013  14:32:00     -202.090      -59.901       15.849      263.336      156.626       97.498    69345.891    24531.725     9505.937        7.401        5.169      210.780      100.192        0.226      340.454       14.484      855.182
05/06/2013  14:33:00     -621.424      -22.186      -38.055      246.456      182.633      104.547    60740.642    33354.663    10930.024       24.655        5.251      621.819      127.346        0.042      340.281       14.190      855.184
05/06/2013  14:34:00     -529.368     -181.537      -18.436      250.479      235.216      115.707    62739.673    55326.460    13388.204       22.247        6.573      559.630      126.964        0.051      340.324       14.263      855.200
05/06/2013  14:35:00     -454.529     -149.785      -19.281      230.199      185.024       87.194    52991.599    34233.720     7602.819       16.210        4.741      478.573       99.473        0.043      340.241       14.121      855.270
05/06/2013  14:36:00     -450.704     -114.925      -11.718      238.574      190.284       77.996    56917.435    36208.046     6083.357       15.783        4.960      465.126       83.435        0.032      340.208       14.067      855.257
05/06/2013  14:37:00     -605.800     -157.297      -24.407      223.219      184.708      102.972    49826.802    34117.081    10603.160       24.342        4.727      625.888      105.938        0.029      340.208       14.065      855.157
05/06/2013  14:38:00     -478.028      -46.892       -6.070      309.844      186.907      115.674    96003.614    34934.194    13380.408       18.751        7.216      480.322      140.858        0.086      340.481       14.529      855.198
05/06/2013  14:39:00     -307.756      -30.044       -0.064      200.972      198.948      103.433    40389.744    39580.296    10698.299        9.313        4.533      309.219      100.071        0.105      340.608       14.742      855.257
05/06/2013  14:40:00     -413.251       -1.974      -19.014      178.353      182.350       64.042    31809.727    33251.429     4101.432       12.014        3.458      413.256       61.454        0.022      340.370       14.340      855.247
05/06/2013  14:41:00     -195.639     -162.818       26.646      263.901      199.503      135.086    69643.916    39801.604    18248.353        9.657        6.385      254.528      147.637        0.336      340.495       14.551      855.175
05/06/2013  14:42:00     -306.064     -157.002        3.244      247.089      171.322      100.407    61052.947    29351.122    10081.640       10.939        5.024      343.984      116.250        0.114      340.473       14.515      855.220
05/06/2013  14:43:00     -436.909      -39.988      -42.715      164.502      221.937       73.484    27060.799    49256.083     5399.883       13.800        4.086      438.735       69.102        0.025      340.278       14.185      855.198
05/06/2013  14:44:00     -572.548      -79.430        1.077      266.852      200.636      113.501    71210.004    40254.694    12882.407       22.921        6.217      578.032      133.274        0.053      340.334       14.280      855.090
05/06/2013  14:45:00     -243.921      -97.755        1.469      268.261      177.326       91.804    71963.833    31444.450     8427.900        9.043        5.592      262.781      119.431        0.207      340.600       14.730      855.025
05/06/2013  14:46:00     -515.335     -226.055      -28.703      256.771      233.248      121.089    65931.114    54404.820    14662.623       22.622        6.750      562.735      137.592        0.060      340.343       14.294      854.999
05/06/2013  14:47:00     -372.926      -81.629       21.394      288.526      189.625      111.278    83247.238    35957.618    12382.834       13.887        6.579      381.755      140.203        0.135      340.466       14.504      855.017
05/06/2013  14:48:00     -645.564     -133.256      -18.215      277.540      203.632      111.760    77028.603    41466.078    12490.320       28.289        6.549      659.174      122.411        0.034      340.289       14.204      855.074
05/06/2013  14:49:00     -439.889      -31.983      -12.096      203.787      160.414       84.375    41529.030    25732.721     7119.156       13.451        3.719      441.051       91.583        0.043      340.383       14.364      855.088
05/06/2013  14:50:00     -477.325      -69.448      -26.974      263.005      152.475       97.404    69171.387    23248.758     9487.543       16.763        5.095      482.351      119.929        0.062      340.357       14.319      855.093
05/06/2013  14:51:00     -487.383       28.658      -22.633      190.407      157.191       86.548    36254.727    24709.061     7490.612       15.365        3.423      488.225       65.253        0.018      340.441       14.461      855.086
05/06/2013  14:52:00     -431.270     -112.159        8.314      319.132      210.261       97.181   101845.224    44209.709     9444.073       17.704        7.775      445.616      107.091        0.058      340.471       14.511      855.078
05/06/2013  14:53:00     -564.359     -208.991       -7.376      301.609      296.179      127.898    90968.136    87722.001    16357.772       27.861        9.752      601.813      135.837        0.051      340.294       14.212      855.076
05/06/2013  14:54:00     -466.049     -260.231      -20.785      265.563      173.998      118.312    70523.732    30275.139    13997.818       20.006        5.740      533.781      137.375        0.066      340.330       14.273      855.078
05/06/2013  14:55:00     -478.096      -91.013      -17.950      273.071      191.463       99.525    74567.640    36658.090     9905.173       17.914        6.057      486.681      111.845        0.053      340.260       14.155      855.100
05/06/2013  14:56:00     -521.260     -114.909      -27.499      254.201      159.730       98.104    64618.261    25513.636     9624.386       19.270        4.988      533.776      110.870        0.043      340.358       14.318      855.041
05/06/2013  14:57:00     -374.578     -115.054      -18.370      175.581      179.475       81.661    30828.780    32211.134     6668.594       11.178        3.485      391.850       71.446        0.033      340.553       14.650      855.026
05/06/2013  14:58:00     -321.583     -145.157      -14.408      202.152      171.065       87.036    40865.518    29263.162     7575.240       10.119        3.885      352.826      102.903        0.085      340.566       14.671      855.014
05/06/2013  14:59:00     -454.674     -244.681      -19.566      306.871      227.743      119.482    94169.944    51866.708    14275.988       21.362        8.016      516.330      127.524        0.061      340.523       14.600      855.022
05/06/2013  15:00:00     -502.074      -85.055      -13.426      268.061      152.808       89.922    71856.653    23350.396     8086.014       18.138        5.165      509.227      113.770        0.050      340.519       14.593      855.048
05/06/2013  15:01:00     -275.032     -132.319       15.672      214.858      158.742       85.981    46163.934    25199.012     7392.708        8.606        3.938      305.206       73.667        0.058      340.625       14.774      855.052
05/06/2013  15:02:00     -475.246       -4.613      -26.568      235.521      167.953       79.299    55470.029    28208.338     6288.381       15.826        4.498      475.269       79.628        0.028      340.486       14.536      855.081
05/06/2013  15:03:00     -526.253      -52.383      -17.826      255.113      196.630      108.275    65082.803    38663.239    11723.522       19.772        5.773      528.853      125.188        0.056      340.431       14.444      855.022
05/06/2013  15:04:00     -362.285      -48.892        9.443      195.190      153.292       71.627    38099.127    23498.543     5130.494       10.022        3.336      365.569       78.972        0.047      340.591       14.715      855.043
05/06/2013  15:05:00     -276.390     -160.234       -7.701      233.834      196.586       96.346    54678.205    38646.161     9282.470       10.235        5.130      319.478      116.583        0.133      340.669       14.847      855.014
05/06/2013  15:06:00     -526.710     -188.180      -11.999      248.188      230.560      107.174    61597.069    53157.987    11486.357       21.959        6.312      559.317      125.722        0.051      340.528       14.607      854.964
05/06/2013  15:07:00     -248.548      -47.123       41.825      291.970      175.077      121.479    85246.670    30651.802    14757.037        9.818        6.533      252.975      146.632        0.336      340.736       14.961      854.953
05/06/2013  15:08:00     -296.820      -39.923       -7.486      181.236      170.090      100.262    32846.574    28930.459    10052.421        8.078        3.591      299.493       99.315        0.110      340.866       15.179      854.951
05/06/2013  15:09:00     -330.533      -54.525        5.931      185.637      167.623       95.561    34461.045    28097.602     9131.960        9.196        3.585      335.000       91.822        0.075      340.831       15.119      854.967
05/06/2013  15:10:00     -296.126      -26.870       -2.281      205.836      172.572       85.339    42368.507    29781.209     7282.757        8.391        3.972      297.343       69.365        0.054      340.909       15.253      854.929
05/06/2013  15:11:00     -356.572      -72.626       12.118      278.983      159.104       88.292    77831.619    25314.136     7795.485       12.173        5.547      363.893      108.791        0.089      340.970       15.355      854.911
05/06/2013  15:12:00     -678.784     -133.608      -22.699      279.780      229.339      112.737    78276.953    52596.236    12709.602       31.132        7.179      691.808      132.452        0.037      340.496       14.553      854.866
05/06/2013  15:13:00     -475.287      -60.302       15.687      295.221      218.329      118.006    87155.385    47667.516    13925.528       18.924        7.437      479.097      128.669        0.072      340.567       14.674      854.874
05/06/2013  15:14:00     -428.776     -159.438      -10.637      224.194      196.852       87.420    50262.935    38750.782     7642.255       15.300        4.833      457.459       82.627        0.033      340.595       14.720      854.867
05/06/2013  15:15:00     -451.167     -197.906      -14.192      166.802      192.483       92.224    27822.879    37049.534     8505.314       15.814        3.669      492.665      102.958        0.044      340.578       14.691      854.863
05/06/2013  15:16:00     -371.384     -277.707        8.932      262.236      178.973      111.060    68767.853    32031.210    12334.282       16.411        5.657      463.732      120.044        0.067      340.566       14.671      854.862
05/06/2013  15:17:00     -266.496     -127.301       12.004      242.170      150.543       91.453    58646.193    22663.137     8363.713        8.851        4.484      295.340      110.442        0.140      340.659       14.829      854.881
05/06/2013  15:18:00     -564.825     -176.865      -39.207      191.284      190.820       75.063    36589.496    36412.426     5634.473       21.523        3.932      591.869       78.871        0.018      340.368       14.337      854.869
05/06/2013  15:19:00     -487.131     -126.444      -15.726      316.604      230.834      109.917   100237.950    53284.427    12081.789       20.954        8.280      503.274      120.542        0.057      340.505       14.568      854.853
05/06/2013  15:20:00     -719.369     -102.397      -41.695      392.463      202.796      108.485   154026.997    41126.124    11768.934       36.828       10.346      726.620      156.143        0.046      340.456       14.486      854.841
05/06/2013  15:21:00     -439.665      -64.381      -22.482      209.039      146.162       91.631    43697.209    21363.216     8396.169       13.569        3.673      444.353       95.931        0.047      340.695       14.890      854.859
05/06/2013  15:22:00     -288.051     -119.910       -8.212      191.069      194.588      117.011    36507.443    37864.563    13691.631        9.273        4.403      312.013      118.711        0.145      340.597       14.724      854.868
05/06/2013  15:23:00     -367.028     -192.790       -6.700      284.034      154.935       89.928    80675.161    24004.981     8086.974       14.233        5.638      414.581      116.731        0.079      340.612       14.749      854.901
05/06/2013  15:24:00     -612.841     -294.679      -16.713      211.035      213.320      113.060    44535.596    45505.419    12782.645       28.274        5.141      680.007      112.979        0.028      340.283       14.194      854.895
05/06/2013  15:25:00     -317.420      -99.850       -3.868      206.821      161.390       91.935    42774.923    26046.792     8451.977        9.399        3.864      332.755      115.507        0.120      340.409       14.406      854.903
05/06/2013  15:26:00     -370.163     -145.339      -18.633      204.307      119.428       67.809    41741.199    14262.981     4598.055       10.954        3.030      397.674       82.272        0.043      340.380       14.358      854.868
05/06/2013  15:27:00     -205.107     -211.952       14.885      269.759      206.449      121.987    72769.864    42620.998    14880.844       10.872        6.514      294.945      110.389        0.140      340.443       14.464      854.808
05/06/2013  15:28:00     -310.044     -106.993       -1.010      199.106      156.983       90.602    39643.307    24643.561     8208.796        9.002        3.625      327.986      111.686        0.116      340.600       14.729      854.823
05/06/2013  15:29:00     -192.938      -80.033       11.831      169.291      114.472       70.381    28659.317    13103.725     4953.488        4.524        2.336      208.879       79.003        0.143      340.683       14.870      854.841
05/06/2013  15:30:00     -294.228      -70.400       20.925      227.480      160.114       85.060    51747.315    25636.382     7235.174        8.828        4.231      302.533       96.917        0.103      340.704       14.903      854.872
05/06/2013  15:31:00     -380.226     -311.556        8.601      280.635      213.394      123.644    78756.137    45537.125    15287.752       19.062        6.979      491.568      137.790        0.079      340.546       14.638      854.868
05/06/2013  15:32:00     -495.982     -332.877      -17.076      240.571      200.256      112.290    57874.198    40102.301    12608.932       23.382        5.529      597.332      130.539        0.048      340.403       14.395      854.891
05/06/2013  15:33:00     -501.756     -328.120      -16.003      213.221      207.913      116.468    45463.188    43227.815    13564.888       23.095        5.113      599.518      128.595        0.046      340.378       14.355      854.911
05/06/2013  15:34:00     -271.902     -250.659        1.491      256.824      197.392      103.064    65958.410    38963.574    10622.127       12.613        5.777      369.811      112.744        0.093      340.495       14.553      854.936
05/06/2013  15:35:00     -457.007     -282.393      -18.902      250.188      201.099      102.262    62594.155    40440.860    10457.431       20.121        5.675      537.216      118.335        0.049      340.399       14.390      854.957
05/06/2013  15:36:00     -476.239      -95.418       -6.755      214.124      178.822       85.266    45848.966    31977.159     7270.269       16.051        4.255      485.704      100.574        0.043      340.493       14.548      854.957
05/06/2013  15:37:00     -305.897     -175.397       14.092      204.368      184.059      104.055    41766.363    33877.586    10827.461       10.549        4.324      352.615      118.682        0.113      340.555       14.652      854.966
05/06/2013  15:38:00     -285.173     -241.712       -2.740      227.500      149.069      105.705    51756.102    22221.456    11173.450       11.244        4.258      373.829      115.046        0.095      340.538       14.626      854.930
05/06/2013  15:39:00     -303.856     -223.180       -2.487      232.674      169.999      117.717    54137.318    28899.636    13857.308       11.950        4.845      377.012      131.702        0.122      340.506       14.571      854.936
05/06/2013  15:40:00     -474.566     -279.854      -19.714      239.189      148.399      101.500    57211.227    22022.332    10302.196       19.671        4.477      550.936      101.007        0.034      340.347       14.302      854.937
05/06/2013  15:41:00     -440.855     -167.086        2.155      256.480      163.432      103.629    65782.236    26710.071    10738.986       16.274        5.162      471.456      112.772        0.057      340.451       14.476      854.941
05/06/2013  15:42:00     -380.691     -277.131      -19.991      201.711      172.929       92.340    40687.441    29904.601     8526.593       15.061        3.956      470.879       87.221        0.034      340.456       14.486      854.952
05/06/2013  15:43:00     -317.837     -138.593      -14.105      149.459      128.586       73.010    22338.079    16534.333     5330.391        8.231        2.210      346.740       67.005        0.037      340.542       14.631      854.972
05/06/2013  15:44:00     -296.451      -42.874       -5.428      139.104       93.299       61.907    19349.967     8704.620     3832.423        6.081        1.594      299.535       47.979        0.026      340.642       14.799      854.970
05/06/2013  15:45:00     -308.038     -256.649       13.563      227.529      214.116       96.393    51769.375    45845.709     9291.531       13.391        5.345      400.944      103.248        0.066      340.626       14.773      854.952
05/06/2013  15:46:00     -273.432      -98.330        0.644      166.666      163.413       84.328    27777.630    26703.901     7111.258        7.300        3.080      290.575       75.349        0.067      340.686       14.876      854.952
05/06/2013  15:47:00     -459.705     -343.944      -32.369      196.160      184.496      105.843    38478.934    34038.775    11202.790       20.718        4.186      574.131      102.291        0.032      340.495       14.553      854.923
05/06/2013  15:48:00     -436.319     -171.520      -14.803      302.129      263.376      109.152    91281.758    69367.169    11914.115       19.626        8.628      468.821      137.940        0.087      340.519       14.593      854.949
05/06/2013  15:49:00     -283.609     -125.205        9.207      184.256      183.761       89.751    33950.312    33768.088     8055.298        8.597        3.789      310.017       88.323        0.081      340.571       14.680      854.935
05/06/2013  15:50:00     -310.949      -89.609        1.404      176.056      134.915       88.946    30995.642    18202.162     7911.318        8.091        2.855      323.604       95.526        0.087      340.646       14.807      854.964
05/06/2013  15:51:00     -492.035     -348.864      -18.559      320.102      237.970      131.831   102465.015    56629.807    17379.393       27.028        8.824      603.162      166.159        0.076      340.384       14.363      854.938
05/06/2013  15:52:00     -506.591     -333.791       -6.099      251.963      211.743      112.108    63485.413    44834.976    12568.207       24.447        6.044      606.672      115.523        0.036      340.281       14.189      854.900
05/06/2013  15:53:00     -421.762     -268.829       -5.632      276.374      199.029      122.564    76382.494    39612.512    15021.856       19.058        6.551      500.152      136.415        0.074      340.378       14.354      854.879
05/06/2013  15:54:00     -351.160     -223.053       -3.182      198.559      176.416      102.755    39425.484    31122.517    10558.497       12.708        4.055      416.012      107.349        0.067      340.451       14.476      854.924
05/06/2013  15:55:00     -269.450      -88.161       -1.580      151.862      154.872       87.789    23062.154    23985.386     7706.911        6.756        2.738      283.506       81.953        0.084      340.638       14.793      854.892
05/06/2013  15:56:00     -633.118     -236.379      -58.025      195.683      188.882       99.079    38291.956    35676.358     9816.688       27.192        4.189      675.806       99.560        0.022      340.417       14.418      854.896
05/06/2013  15:57:00     -588.287     -103.319       -7.732      241.458      162.312      115.088    58301.924    26345.196    13245.197       22.734        4.895      597.291      123.211        0.043      340.381       14.358      854.871
05/06/2013  15:58:00     -483.190     -239.556      -28.235      167.112      149.028       91.121    27926.419    22209.437     8303.004       17.504        2.922      539.314       65.617        0.015      340.418       14.421      854.836
05/06/2013  15:59:00     -270.608      -50.309      -23.792      185.854      172.585       85.112    34541.874    29785.492     7244.130        7.394        3.579      275.245       75.083        0.074      340.849       15.151      854.828
05/06/2013  16:00:00     -443.203     -217.787      -28.646      208.292      163.705       79.600    43385.599    26799.229     6336.158       16.059        3.826      493.822       89.472        0.033      340.732       14.953      854.817
05/06/2013  16:01:00     -482.236     -252.756      -11.280      304.958      204.272      106.172    92999.410    41727.034    11272.404       22.126        7.300      544.461      119.689        0.048      340.623       14.769      854.803
05/06/2013  16:02:00     -449.503     -145.070       -6.106      238.587      210.156      101.491    56923.855    44165.369    10300.504       16.724        5.569      472.332      116.291        0.061      340.632       14.783      854.832
05/06/2013  16:03:00     -204.215     -161.993        3.220      199.723      173.861       98.745    39889.170    30227.545     9750.594        7.390        3.993      260.664      103.847        0.159      340.659       14.830      854.813
05/06/2013  16:04:00     -361.829     -191.492       -0.594      273.021      188.295       98.307    74540.569    35455.110     9664.261       14.360        5.983      409.377      124.111        0.092      340.655       14.823      854.827
05/06/2013  16:05:00     -404.713     -265.007       12.228      296.067      203.606      134.241    87655.418    41455.411    18020.640       19.063        7.357      483.757      147.290        0.093      340.523       14.598      854.835
05/06/2013  16:06:00     -264.726     -124.293       -2.896      229.432      168.803       82.404    52638.938    28494.427     6790.470        8.672        4.396      292.453       91.234        0.097      340.733       14.955      854.830
05/06/2013  16:07:00     -513.569      -25.575      -16.254      238.210      178.203       93.741    56743.929    31756.344     8787.428       18.096        4.864      514.206      109.825        0.046      340.717       14.927      854.862
05/06/2013  16:08:00     -496.643     -118.103      -24.723      223.249      220.405       96.840    49840.147    48578.404     9377.995       18.449        5.390      510.493      100.456        0.039      340.646       14.808      854.840
05/06/2013  16:09:00     -673.905     -137.756      -47.249      235.529      174.679       97.068    55474.101    30512.622     9422.213       28.537        4.770      687.841       98.187        0.020      340.559       14.658      854.866
05/06/2013  16:10:00     -603.165     -173.677        1.455      258.858      205.540      109.793    67007.445    42246.604    12054.594       25.762        6.065      627.672      124.977        0.040      340.403       14.397      854.852
05/06/2013  16:11:00     -467.777      -70.371      -14.604      236.148      198.096       89.844    55766.076    39241.947     8071.872       16.351        5.154      473.040      100.394        0.045      340.544       14.635      854.863
05/06/2013  16:12:00     -492.213     -119.032      -21.914      196.384      145.258       84.759    38566.762    21099.948     7184.095       16.188        3.343      506.401       78.994        0.024      340.551       14.646      854.846
05/06/2013  16:13:00     -557.907     -159.863      -23.505      256.846      195.878      100.950    65969.842    38368.036    10190.806       22.593        5.726      580.359       92.434        0.025      340.453       14.480      854.851
05/06/2013  16:14:00     -549.985      -70.670      -17.588      290.851      192.364      117.534    84594.110    37004.011    13814.177       22.158        6.771      554.507      141.263        0.065      340.469       14.507      854.840
05/06/2013  16:15:00     -548.468     -163.938      -32.854      249.749      178.135       92.794    62374.718    31732.004     8610.727       21.573        5.136      572.445      101.538        0.031      340.412       14.411      854.824
05/06/2013  16:16:00     -405.490      -83.255       -2.459      253.791      231.857       95.775    64409.639    53757.601     9172.920       14.933        6.367      413.949      111.724        0.073      340.482       14.530      854.804
05/06/2013  16:17:00     -562.412     -153.335      -17.894      295.516      241.347       96.340    87329.737    58248.467     9281.346       24.747        7.743      582.940      124.413        0.046      340.441       14.460      854.803
05/06/2013  16:18:00     -269.710     -152.841        6.386      251.901      217.700      118.371    63453.999    47393.219    14011.794       11.048        6.243      310.006      126.449        0.166      340.408       14.405      854.789
05/06/2013  16:19:00     -439.517     -248.962       -6.582      273.721      208.154      116.659    74923.159    43327.977    13609.242       19.351        6.593      505.131      126.003        0.062      340.404       14.398      854.807
05/06/2013  16:20:00     -510.131     -234.911      -35.776      301.101      181.884      100.135    90661.968    33081.823    10026.948       22.521        6.689      561.620      110.648        0.039      340.328       14.268      854.817
05/06/2013  16:21:00     -556.089      -95.726      -11.429      262.958      194.659      108.221    69146.962    37892.180    11711.842       21.862        5.938      564.268      122.312        0.047      340.306       14.233      854.842
05/06/2013  16:22:00     -505.083     -145.656      -34.347      214.323      228.089      101.753    45934.540    52024.389    10353.769       19.289        5.416      525.666      106.145        0.041      340.334       14.280      854.839
05/06/2013  16:23:00     -456.013      -94.006       -7.626      206.049      155.663       83.604    42456.217    24230.911     6989.580       14.525        3.684      465.601       86.808        0.035      340.582       14.699      854.845
05/06/2013  16:24:00     -631.675      -76.143      -14.091      235.530      170.927       94.297    55474.540    29216.178     8891.836       24.928        4.679      636.247      113.510        0.032      340.370       14.340      854.836
05/06/2013  16:25:00     -505.783     -173.865      -19.071      168.161      158.482       83.732    28278.025    25116.550     7010.986       17.340        3.020      534.833       81.600        0.023      340.456       14.485      854.811
05/06/2013  16:26:00     -289.323      -90.655       -6.332      152.022      152.029       70.518    23110.635    23112.765     4972.718        7.157        2.560      303.194       69.634        0.053      340.707       14.912      854.830
05/06/2013  16:27:00     -213.997      -95.760        1.513      172.238       85.470       65.369    29665.875     7305.206     4273.158        4.810        2.062      234.446       75.519        0.104      340.862       15.172      854.820
05/06/2013  16:28:00     -390.718      -56.399      -15.334      164.202      159.010       75.517    26962.373    25284.035     5702.783       10.700        2.897      394.767       77.881        0.039      340.858       15.164      854.818
05/06/2013  16:29:00     -216.672     -121.837       19.058      195.964      167.575       95.167    38401.743    28081.302     9056.672        6.883        3.777      248.578      112.661        0.205      340.744       14.974      854.787
05/06/2013  16:30:00     -121.934      -77.227       23.399      142.045      133.686       75.012    20176.824    17871.977     5626.874        3.252        2.184      144.333       80.487        0.311      340.869       15.185      854.774
05/06/2013  16:31:00     -286.916      -34.488      -24.075      125.555       98.024       66.192    15764.129     9608.662     4381.356        5.692        1.488      288.982       61.053        0.045      340.944       15.311      854.777
05/06/2013  16:32:00     -460.882     -128.161      -23.235      227.084      157.588       84.556    51567.212    24833.910     7149.774       15.645        4.178      478.370       78.254        0.027      340.700       14.898      854.752
05/06/2013  16:33:00     -494.206      -65.739      -25.441      248.327      141.338       97.238    61666.512    19976.463     9455.215       17.014        4.555      498.559      123.160        0.061      340.509       14.576      854.736
05/06/2013  16:34:00     -470.533      -43.684      -22.088      221.810      164.601       85.131    49199.818    27093.425     7247.204       15.365        4.177      472.556      101.418        0.046      340.617       14.757      854.746
05/06/2013  16:35:00     -122.982      -41.682       30.550      183.088      126.331       82.268    33521.216    15959.412     6768.078        3.701        2.812      129.854       84.121        0.420      340.949       15.320      854.738
05/06/2013  16:36:00     -299.157      -89.293       -4.604      211.238      102.388       78.902    44621.696    10483.293     6225.558        7.940        3.067      312.199      100.459        0.104      340.849       15.150      854.746
05/06/2013  16:37:00     -261.451       28.752        9.175      178.559      125.916       82.419    31883.239    15854.908     6792.838        6.189        2.727      263.027       89.069        0.115      340.999       15.404      854.748
05/06/2013  16:38:00     -429.031     -205.750      -30.400      215.307      230.997       99.262    46356.901    53359.818     9852.987       16.843        5.478      475.815       99.206        0.043      340.534       14.618      854.702
05/06/2013  16:39:00     -313.849     -126.709        6.701      177.049      155.636       85.555    31346.275    24222.702     7319.611        8.873        3.144      338.462       86.705        0.066      340.638       14.793      854.677
05/06/2013  16:40:00     -305.535     -229.509        7.689      267.086      182.435      128.844    71334.863    33282.543    16600.755       13.363        6.061      382.133      149.137        0.152      340.534       14.618      854.682
05/06/2013  16:41:00     -449.593     -191.457      -12.859      236.341      220.731      108.146    55856.908    48722.340    11695.575       17.760        5.814      488.662       98.518        0.041      340.465       14.500      854.641
05/06/2013  16:42:00     -363.706     -160.639      -14.480      234.206      149.219       99.836    54852.285    22266.330     9967.291       12.268        4.354      397.601      119.512        0.090      340.443       14.465      854.660
05/06/2013  16:43:00     -373.925      -60.401      -14.090      189.575      261.005       93.205    35938.824    68123.685     8687.217       12.819        5.637      378.772       91.015        0.058      340.582       14.700      854.648
05/06/2013  16:44:00     -604.296     -217.153      -30.524      277.003      236.440      101.685    76730.788    55903.659    10339.880       27.809        7.149      642.128      120.031        0.035      340.339       14.288      854.676
05/06/2013  16:45:00     -260.187     -164.413       17.060      230.461      169.516      107.019    53112.190    28735.722    11452.962        9.414        4.665      307.781      120.383        0.153      340.380       14.359      854.681
05/06/2013  16:46:00     -406.757     -103.950      -17.966      225.145      174.196       92.087    50690.483    30344.218     8480.010       13.303        4.476      419.830       89.591        0.046      340.406       14.401      854.683
05/06/2013  16:47:00     -278.841      -38.287       -3.170      192.008      148.924       85.972    36866.968    22178.463     7391.160        7.282        3.322      281.457      103.072        0.134      340.602       14.732      854.695
05/06/2013  16:48:00     -402.710     -158.485      -14.308      232.698      180.553       86.399    54148.533    32599.354     7464.768       14.084        4.711      432.773      100.136        0.054      340.488       14.538      854.741
05/06/2013  16:49:00     -297.785     -180.573       -4.713      229.222      188.986       86.280    52542.594    35715.837     7444.291       10.849        4.785      348.256       65.871        0.036      340.474       14.515      854.743
05/06/2013  16:50:00     -483.878       17.750      -18.829      254.932      140.768       98.653    64990.545    19815.640     9732.370       16.466        4.727      484.203      101.727        0.044      340.553       14.650      854.781
05/06/2013  16:51:00     -546.879      -97.961      -42.829      228.156      167.041       90.828    52055.277    27902.694     8249.682       19.934        4.410      555.583      100.563        0.033      340.292       14.208      854.790
05/06/2013  16:52:00     -450.114      -73.386       -7.018      236.582      164.855       94.541    55970.904    27177.018     8937.989       15.005        4.604      456.057      108.756        0.057      340.370       14.340      854.817
05/06/2013  16:53:00     -559.354      -97.382      -29.385      208.058      190.713       89.006    43288.173    36371.612     7922.016       20.539        4.379      567.768       91.398        0.026      340.204       14.059      854.785
05/06/2013  16:54:00     -476.534     -149.332        9.507      266.328      175.072      101.103    70930.781    30650.256    10221.845       18.062        5.590      499.384      129.049        0.067      340.332       14.277      854.778
05/06/2013  16:55:00     -436.856     -105.100       -0.219      207.061      147.453       89.800    42874.201    21742.416     8064.044       13.727        3.634      449.321      103.762        0.053      340.381       14.360      854.772
05/06/2013  16:56:00     -298.113     -237.874        1.497      190.123      194.707      110.248    36146.660    37911.009    12154.641       11.582        4.311      381.386      123.783        0.105      340.340       14.290      854.782
05/06/2013  16:57:00     -553.775     -359.230      -24.988      253.680      172.370      116.635    64353.683    29711.419    13603.721       27.198        5.383      660.085      116.151        0.031      340.173       14.007      854.714
05/06/2013  16:58:00     -364.750     -245.670        2.384      223.841      175.824      104.570    50104.641    30914.026    10934.851       14.266        4.598      439.768      110.958        0.064      340.285       14.196      854.719
05/06/2013  16:59:00     -344.364     -196.607      -10.206      164.363      137.306       79.868    27015.289    18852.852     6378.940       10.479        2.612      396.536       86.114        0.047      340.354       14.314      854.738
05/06/2013  17:00:00     -237.502     -181.025       -1.195      206.858      174.254       90.866    42790.315    30364.299     8256.676        8.528        4.071      298.625      101.698        0.116      340.381       14.359      854.749
05/06/2013  17:01:00     -296.704     -144.820        3.864      192.772      154.327       98.160    37160.890    23816.888     9635.313        8.981        3.531      330.161      101.256        0.094      340.370       14.342      854.768
05/06/2013  17:02:00     -410.361       13.027        6.536      235.342      186.852       98.462    55385.842    34913.579     9694.805       13.428        5.000      410.568      116.113        0.080      340.425       14.432      854.772
05/06/2013  17:03:00     -400.588     -107.063      -10.245      151.257      169.057       68.866    22878.599    28580.304     4742.585       11.411        2.810      414.649       64.614        0.024      340.236       14.113      854.809
05/06/2013  17:04:00     -258.972      -63.468        7.351      171.949      122.051       65.904    29566.603    14896.374     4343.389        5.997        2.440      266.636       73.991        0.077      340.367       14.335      854.855
05/06/2013  17:05:00     -301.902     -135.577       -5.543      182.415      170.630       81.282    33275.131    29114.477     6606.816        8.927        3.450      330.947       84.122        0.065      340.273       14.177      854.923
05/06/2013  17:06:00     -365.141     -174.009      -12.805      176.704      113.486       73.152    31224.400    12879.163     5351.226       10.660        2.473      404.484       91.545        0.051      340.226       14.097      854.970
05/06/2013  17:07:00     -289.361     -147.205      -13.304      160.830      121.339       66.491    25866.323    14723.158     4421.104        7.529        2.251      324.653       76.900        0.056      340.265       14.163      855.020
05/06/2013  17:08:00     -106.463      -63.925       18.681      129.092       96.154       57.214    16664.819     9245.588     3273.406        2.247        1.459      124.181       55.956        0.203      340.397       14.387      855.070
05/06/2013  17:09:00     -366.383      -13.780        5.491      225.875      174.374       84.965    51019.323    30406.374     7219.065       11.154        4.432      366.642       96.408        0.069      340.362       14.327      855.116
05/06/2013  17:10:00     -423.113     -113.898      -20.612      249.359      191.048       87.333    62179.746    36499.447     7627.009       14.935        5.315      438.175       96.271        0.048      340.200       14.053      855.146
05/06/2013  17:11:00     -303.038     -127.694       -5.690      244.799      140.017       86.479    59926.359    19604.631     7478.573        9.758        4.350      328.843      111.949        0.116      340.210       14.071      855.172
05/06/2013  17:12:00     -342.142     -174.266      -13.615      238.770      164.485       96.443    57011.231    27055.217     9301.266       12.048        4.668      383.966      119.145        0.096      340.147       13.966      855.179
05/06/2013  17:13:00     -333.877     -180.626       10.819      180.358      161.907       79.995    32529.002    26213.754     6399.256       10.467        3.257      379.605       91.496        0.058      340.163       13.992      855.203
05/06/2013  17:14:00     -471.717     -189.617       -9.582      247.816      192.096       85.659    61412.831    36900.976     7337.433       18.209        5.283      508.401      107.606        0.045      340.154       13.974      855.210
05/06/2013  17:15:00     -314.018     -191.717       -4.977      217.940      158.345       87.495    47497.972    25073.065     7655.454       10.779        4.011      367.916      104.689        0.081      340.195       14.046      855.250
05/06/2013  17:16:00     -271.671     -179.304      -14.388      147.064       98.740       68.670    21627.843     9749.672     4715.510        7.112        1.805      325.507       64.578        0.039      340.158       13.981      855.259
05/06/2013  17:17:00     -309.956     -147.467        1.716      207.887       85.290       66.242    43217.174     7274.308     4388.052        8.634        2.744      343.248       77.293        0.051      340.164       13.992      855.291
05/06/2013  17:18:00     -287.620     -174.275       -8.729      174.238      184.508       90.289    30359.052    34043.323     8152.050        9.285        3.628      336.299       89.523        0.071      340.218       14.082      855.274
05/06/2013  17:19:00     -342.831     -174.857       -0.391      154.396      121.406       69.374    23837.979    14739.447     4812.781        9.574        2.170      384.848       75.889        0.039      340.128       13.932      855.322
05/06/2013  17:20:00     -399.637     -300.742      -23.752      255.302      246.968      105.195    65178.902    60993.403    11065.915       19.396        6.862      500.156      132.414        0.070      340.033       13.771      855.324
05/06/2013  17:21:00     -314.364     -158.945       -0.661      151.739      132.361       69.497    23024.614    17519.554     4829.820        8.472        2.269      352.262       71.210        0.041      340.086       13.859      855.344
05/06/2013  17:22:00     -294.204     -200.308      -14.519      187.276      168.916       99.626    35072.197    28532.601     9925.425       10.020        3.677      355.920      105.307        0.088      340.085       13.860      855.354
05/06/2013  17:23:00     -250.009      -34.052      -10.359      159.615      108.249       74.138    25476.887    11717.743     5496.425        5.322        2.135      252.317       76.531        0.092      340.192       14.039      855.388
05/06/2013  17:24:00     -345.058     -122.513       -3.380      217.056      130.332       68.939    47113.191    16986.541     4752.533       10.146        3.443      366.162       79.964        0.048      340.081       13.851      855.406
05/06/2013  17:25:00     -339.393     -124.750      -19.996      176.008      138.651       79.513    30978.719    19224.184     6322.261        9.383        2.826      361.594       80.896        0.050      340.088       13.864      855.423
05/06/2013  17:26:00     -400.997     -157.768      -14.757      148.964      129.657       85.715    22190.195    16811.026     7346.979       11.612        2.317      430.917       80.931        0.035      340.016       13.742      855.451
05/06/2013  17:27:00     -292.393     -160.327      -18.132      199.095      130.658       67.833    39638.849    17071.574     4601.339        8.641        3.066      333.464       79.465        0.057      339.973       13.670      855.468
05/06/2013  17:28:00     -308.880      -93.234      -13.854      155.943      124.780       67.301    24318.286    15569.996     4529.407        7.435        2.221      322.644       56.788        0.031      340.022       13.753      855.493
05/06/2013  17:29:00     -228.163     -100.999       -5.389      169.393      111.494       65.985    28693.972    12431.006     4354.077        5.388        2.274      249.518       57.583        0.053      339.988       13.696      855.510
05/06/2013  17:30:00     -353.734     -226.482      -18.841      138.325      135.509       68.909    19133.706    18362.589     4748.470       10.950        2.112      420.026       60.018        0.020      339.887       13.524      855.531
05/06/2013  17:31:00     -216.181     -136.534       12.326      143.450      101.742       53.602    20577.914    10351.506     2873.179        4.966        1.690      255.687       59.184        0.054      339.903       13.552      855.559
05/06/2013  17:32:00     -273.755     -176.948        3.224      157.521      108.160       70.735    24812.924    11698.679     5003.453        7.388        2.076      325.964       71.292        0.048      339.871       13.497      855.580
05/06/2013  17:33:00     -361.716     -116.354      -16.152      130.411      133.073       64.360    17007.043    17708.320     4142.269        9.174        1.943      379.970       59.504        0.025      339.839       13.443      855.612
05/06/2013  17:34:00     -302.232      -29.335        1.473      136.978      106.742       73.046    18763.100    11393.841     5335.706        6.384        1.775      303.652       72.476        0.057      339.885       13.522      855.641
05/06/2013  17:35:00     -385.780      -87.352       -6.267      137.497      140.311       73.226    18905.406    19687.253     5362.058       10.022        2.198      395.546       80.385        0.041      339.789       13.361      855.653
05/06/2013  17:36:00     -246.311     -138.004       -4.034      128.897      103.612       60.599    16614.359    10735.432     3672.272        5.537        1.551      282.337       56.198        0.040      339.809       13.394      855.658
05/06/2013  17:37:00     -339.869     -245.826      -20.121      184.026      134.305       76.914    33865.492    18037.725     5915.699       11.707        2.891      419.453       73.979        0.031      339.786       13.356      855.675
05/06/2013  17:38:00     -293.523     -226.215       -7.997      180.405      163.105       87.809    32545.833    26603.267     7710.480       10.212        3.343      370.580       95.110        0.066      339.711       13.228      855.685
05/06/2013  17:39:00     -373.141     -242.217       -1.476      161.111      130.764       78.592    25956.816    17099.347     6176.774       12.356        2.462      444.863       85.075        0.037      339.677       13.170      855.697
05/06/2013  17:40:00     -319.863     -238.239        0.073      157.217      100.929       91.501    24717.190    10186.583     8372.371       10.117        2.164      398.836       92.552        0.054      339.654       13.132      855.697
05/06/2013  17:41:00     -143.874     -116.078        7.975      159.380      136.142       72.696    25402.010    18534.675     5284.686        4.172        2.461      184.862       85.248        0.213      339.649       13.125      855.694
05/06/2013  17:42:00     -299.017      -38.968      -13.253      122.001      120.419       68.284    14884.281    14500.841     4662.701        6.257        1.702      301.546       64.150        0.045      339.735       13.269      855.712
05/06/2013  17:43:00     -192.482      -80.857       -0.605      125.139      106.718       54.486    15659.865    11388.657     2968.729        3.680        1.501      208.775       61.509        0.087      339.605       13.050      855.707
05/06/2013  17:44:00     -257.815      -81.558      -22.335      127.098      114.183       67.091    16153.902    13037.799     4501.179        5.365        1.685      270.407       53.375        0.039      339.519       12.903      855.697
05/06/2013  17:45:00     -337.469      -33.262       -7.711      227.759      151.156       75.540    51874.056    22848.163     5706.230        9.773        4.021      339.104       85.096        0.063      339.427       12.751      855.668
05/06/2013  17:46:00     -522.240      -97.951      -22.876      180.240      163.302       80.848    32486.549    26667.577     6536.479       17.426        3.285      531.346       77.988        0.022      339.317       12.565      855.702
05/06/2013  17:47:00     -500.401     -151.023      -12.885      178.431      154.093       85.675    31837.798    23744.500     7340.179       16.814        3.146      522.694       89.822        0.030      339.161       12.300      855.727
05/06/2013  17:48:00     -352.487     -116.874      -13.809      139.508      143.957       69.357    19462.445    20723.667     4810.404        9.154        2.250      371.358       59.785        0.026      339.168       12.313      855.770
05/06/2013  17:49:00     -328.403      -20.773      -22.334      149.652      133.249       68.377    22395.758    17755.337     4675.358        7.680        2.241      329.060       65.231        0.039      339.193       12.356      855.812
05/06/2013  17:50:00     -215.981       -9.923      -33.978      108.433      117.731       70.057    11757.781    13860.579     4908.041        3.921        1.526      216.209       44.288        0.042      339.245       12.443      855.788
05/06/2013  17:51:00     -362.612     -124.516      -19.962      138.810      120.775       72.932    19268.104    14586.603     5319.122        9.328        1.959      383.395       72.915        0.036      339.097       12.194      855.778
05/06/2013  17:52:00     -474.359     -121.802      -28.947      152.196      143.490       81.112    23163.478    20589.333     6579.123       14.550        2.517      489.747       60.547        0.015      339.123       12.236      855.828
05/06/2013  17:53:00     -422.279      -86.781      -22.730      150.127      116.666       69.909    22538.069    13610.894     4887.223       11.369        2.052      431.103       69.809        0.026      339.072       12.151      855.874
05/06/2013  17:54:00     -495.568      -40.514      -32.526      197.053      119.009       76.052    38829.742    14163.163     5783.842       15.352        2.939      497.222       84.643        0.029      339.158       12.296      855.868
05/06/2013  17:55:00     -406.638     -181.215       -5.662      157.901      124.111       72.969    24932.800    15403.477     5324.473       12.194        2.283      445.189       61.632        0.019      339.057       12.126      855.858
05/06/2013  17:56:00     -313.019      -64.040       -3.426      120.917       99.748       60.438    14620.967     9949.593     3652.727        6.515        1.411      319.503       61.670        0.037      339.037       12.094      855.902
05/06/2013  17:57:00     -174.339       -1.597      -12.067       86.911       94.363       33.290     7553.452     8904.322     1108.211        2.405        0.878      174.347       22.253        0.016      339.239       12.435      855.911
05/06/2013  17:58:00     -243.923      -60.291      -20.368      110.054       92.667       57.932    12111.925     8587.149     3356.108        4.380        1.203      251.263       56.936        0.051      339.138       12.262      855.933
05/06/2013  17:59:00     -359.348      -48.140      -14.773      146.723      117.033       65.938    21527.677    13696.823     4347.883        8.561        1.979      362.558       63.242        0.030      338.989       12.011      855.927
05/06/2013  18:00:00     -364.899      -48.749      -20.226      165.202      159.228       83.802    27291.667    25353.677     7022.708        9.779        2.983      368.141       78.440        0.045      338.992       12.017      855.892
05/06/2013  18:01:00     -539.470      -74.315      -43.035      161.663      142.362       78.713    26134.858    20266.899     6195.767       17.549        2.630      544.565       82.956        0.023      338.990       12.013      855.820
05/06/2013  18:02:00     -461.095     -134.492      -13.038      147.084      125.553       66.679    21633.721    15763.532     4446.118       13.635        2.092      480.309       68.918        0.021      338.893       11.851      855.781
05/06/2013  18:03:00     -412.043     -119.738       12.148      196.942      137.510       89.487    38785.977    18908.963     8007.901       12.497        3.285      429.088      106.118        0.061      338.847       11.774      855.755
05/06/2013  18:04:00     -438.174     -129.692       -1.811      185.275      129.734       78.393    34326.803    16831.038     6145.481       13.305        2.865      456.965       84.215        0.034      338.780       11.662      855.724
05/06/2013  18:05:00     -518.570      -95.802      -28.697      178.297      146.059       81.451    31789.768    21333.148     6634.208       16.933        2.988      527.346       83.029        0.025      338.717       11.554      855.683
05/06/2013  18:06:00     -509.526      -97.799       -1.271      207.350      131.049       86.521    42993.942    17173.876     7485.878       16.841        3.383      518.827       97.481        0.035      338.699       11.525      855.651
05/06/2013  18:07:00     -501.040     -108.423       -5.379      195.224      151.074       85.662    38112.260    22823.369     7337.985       16.554        3.414      512.637       94.724        0.034      338.742       11.598      855.657
05/06/2013  18:08:00     -463.342      -50.042      -16.037      166.583      155.865       82.076    27749.956    24293.865     6736.475       13.810        2.939      466.036       90.128        0.037      338.691       11.511      855.670
05/06/2013  18:09:00     -342.160      -59.484      -19.900      134.649      139.910       69.726    18130.281    19574.766     4861.719        8.178        2.128      347.292       72.055        0.043      338.671       11.477      855.677
05/06/2013  18:10:00     -273.565      -65.869        0.059      155.347      100.156       61.097    24132.842    10031.279     3732.819        5.853        1.895      281.383       75.850        0.073      338.656       11.452      855.664
05/06/2013  18:11:00     -414.660     -115.869      -11.242      217.995      135.184       72.737    47521.719    18274.699     5290.738       12.828        3.554      430.544       89.232        0.043      338.730       11.577      855.656
05/06/2013  18:12:00     -401.054     -105.007      -15.222      188.964      148.882       78.382    35707.297    22165.868     6143.719       11.805        3.201      414.573       83.183        0.040      338.778       11.658      855.671
05/06/2013  18:13:00     -230.302     -206.881       21.113      172.885      180.630       96.954    29889.065    32627.107     9400.043        8.409        3.596      309.579      104.763        0.115      338.816       11.721      855.694
05/06/2013  18:14:00     -270.953     -226.969       -8.566      166.713      139.816       82.681    27793.357    19548.409     6836.230        8.958        2.709      353.456       77.356        0.048      338.824       11.736      855.675
05/06/2013  18:15:00     -253.750     -273.009      -18.726      162.615      151.320       81.688    26443.697    22897.700     6672.858        9.763        2.801      372.723       83.542        0.050      338.811       11.714      855.704
05/06/2013  18:16:00     -117.266      -15.206       12.644      133.236       87.991       38.979    17751.773     7742.454     1519.368        2.057        1.351      118.247       46.258        0.153      338.785       11.669      855.752
05/06/2013  18:17:00     -107.966       88.329      -14.070       65.092       48.889       38.605     4236.962     2390.103     1490.339        1.389        0.406      139.494       46.230        0.110      338.708       11.542      855.779
05/06/2013  18:18:00     -157.472       -7.984       -7.529      102.062       61.121       42.208    10416.600     3735.719     1781.497        2.042        0.797      157.674       48.907        0.096      338.661       11.463      855.786
05/06/2013  18:19:00     -221.994     -112.342       -5.085      124.188       95.146       52.361    15422.593     9052.731     2741.655        4.457        1.361      248.801       56.059        0.051      338.780       11.663      855.750
05/06/2013  18:20:00     -149.009       16.105       -9.852       97.837       63.874       42.639     9572.013     4079.850     1818.064        1.901        0.773      149.877       47.345        0.100      338.740       11.594      855.710
05/06/2013  18:21:00     -126.406      -29.926       -1.182       64.576       60.468       46.666     4170.118     3656.321     2177.731        1.344        0.500      129.900       38.549        0.088      338.757       11.624      855.656
05/06/2013  18:22:00     -170.436      -64.984      -22.131       89.015       64.829       37.715     7923.711     4202.863     1422.403        2.365        0.677      182.404       25.407        0.019      338.709       11.542      855.623
05/06/2013  18:23:00     -206.131      -83.587       -4.691       90.888       69.898       38.061     8260.550     4885.663     1448.675        3.204        0.730      222.434       30.472        0.019      338.655       11.451      855.621
05/06/2013  18:24:00     -228.136      -58.990      -13.521       78.525       81.130       43.247     6166.201     6582.008     1870.278        3.516        0.731      235.639       42.906        0.033      338.635       11.416      855.614
05/06/2013  18:25:00     -220.882       34.058      -18.546       83.566      133.735       54.232     6983.308    17885.067     2941.159        3.905        1.390      223.492       43.161        0.037      338.576       11.318      855.604
05/06/2013  18:26:00     -284.124     -145.057      -11.708      153.772      114.993       67.829    23645.878    13223.387     4600.830        7.168        2.074      319.010       43.524        0.019      338.496       11.184      855.557
05/06/2013  18:27:00     -423.221     -138.684      -38.675      162.313      133.257       74.141    26345.410    17757.328     5496.886       12.471        2.480      445.365       73.166        0.027      338.451       11.107      855.578
05/06/2013  18:28:00     -323.235     -124.725       -4.182      164.343      141.395       74.589    27008.719    19992.458     5563.575        8.630        2.628      346.464       77.225        0.050      338.479       11.155      855.591
05/06/2013  18:29:00     -381.805      -81.841      -18.486      141.192      134.369       68.291    19935.250    18054.976     4663.596        9.773        2.133      390.478       69.080        0.031      338.427       11.067      855.584
05/06/2013  18:30:00     -375.263     -163.294      -14.303      180.411      138.249       70.919    32548.112    19112.748     5029.530       11.218        2.835      409.252       73.493        0.032      338.470       11.139      855.582
05/06/2013  18:31:00     -422.747      -74.420       -9.696      166.536      141.526       78.191    27734.347    20029.599     6113.857       11.910        2.694      429.248       80.658        0.035      338.512       11.210      855.610
05/06/2013  18:32:00     -340.194     -108.684      -17.855      104.616       92.913       51.073    10944.435     8632.767     2608.493        7.502        1.109      357.133       38.031        0.011      338.462       11.125      855.634
05/06/2013  18:33:00     -280.990      -50.956       -5.971      143.366       94.850       55.475    20553.761     8996.512     3077.481        5.710        1.631      285.573       66.262        0.054      338.472       11.142      855.660
05/06/2013  18:34:00     -334.267      -86.399      -16.435      168.322      139.936       67.558    28332.143    19582.179     4564.022        8.596        2.624      345.252       80.823        0.055      338.467       11.135      855.683
05/06/2013  18:35:00     -285.291      -54.062       -6.791      113.996      111.793       54.823    12995.132    12497.744     3005.524        5.642        1.425      290.368       51.844        0.032      338.415       11.046      855.695
05/06/2013  18:36:00     -183.545     -100.655       -1.021      106.390       89.981       59.307    11318.744     8096.576     3517.297        3.337        1.147      209.333       42.814        0.042      338.489       11.171      855.700
05/06/2013  18:37:00     -119.914       -1.490       -0.759      111.679       70.356       54.700    12472.129     4949.939     2992.076        1.739        1.021      119.923       58.475        0.238      338.526       11.235      855.715
05/06/2013  18:38:00     -172.478      -82.679      -17.861      132.859       94.010       63.543    17651.632     8837.921     4037.765        3.371        1.526      191.271       74.903        0.153      338.494       11.181      855.727
05/06/2013  18:39:00     -183.165      -82.311       -0.914      116.452      107.392       46.700    13561.157    11533.110     2180.916        3.380        1.364      200.810       43.396        0.047      338.501       11.193      855.741
05/06/2013  18:40:00     -215.019      -79.808       -0.512      130.288       88.732       57.756    16975.052     7873.435     3335.775        4.039        1.409      229.352       61.309        0.071      338.506       11.202      855.768
05/06/2013  18:41:00     -189.568      -28.913       14.069      123.689      112.900       73.540    15298.941    12746.333     5408.133        3.521        1.673      191.760       70.211        0.134      338.481       11.159      855.798
05/06/2013  18:42:00     -348.600      -22.225      -19.091      147.460      113.481       60.722    21744.395    12877.857     3687.122        8.034        1.915      349.307       59.907        0.029      338.500       11.190      855.860
05/06/2013  18:43:00     -153.307      -65.137        9.576      130.578       97.368       63.149    17050.607     9480.610     3987.746        2.917        1.526      166.571       65.036        0.152      338.538       11.256      855.865
05/06/2013  18:44:00     -245.537      -98.513      -13.408      115.614      112.200       57.853    13366.628    12588.784     3346.942        4.973        1.465      264.562       55.853        0.045      338.544       11.265      855.894
05/06/2013  18:45:00     -151.499      -63.414        8.190      110.843       96.233       58.483    12286.097     9260.843     3420.237        2.600        1.248      164.236       64.239        0.153      338.539       11.257      855.914
05/06/2013  18:46:00     -305.271     -160.152       -9.610      197.287      133.829       60.354    38922.189    17910.329     3642.558        8.969        3.024      344.730       69.713        0.041      338.501       11.190      855.931
05/06/2013  18:47:00     -320.625     -178.437       -8.483      153.382      129.937       73.424    23525.936    16883.572     5391.151        9.025        2.290      366.934       63.744        0.030      338.489       11.172      855.955
05/06/2013  18:48:00     -304.521     -199.216       -4.477      164.818      119.411       66.459    27165.068    14259.055     4416.839        8.913        2.292      363.896       71.737        0.039      338.494       11.181      855.982
05/06/2013  18:49:00     -126.564      -70.658       -1.905      149.473       96.185       57.006    22342.123     9251.594     3249.693        2.792        1.742      144.951       70.286        0.235      338.541       11.262      856.007
05/06/2013  18:50:00     -147.212      -52.362       16.916      115.747      101.454       47.729    13397.259    10292.915     2278.040        2.533        1.298      156.247       54.901        0.123      338.496       11.184      856.036
05/06/2013  18:51:00     -212.479     -118.064       -5.651       88.232       82.191       45.175     7784.812     6755.283     2040.800        3.785        0.829      243.077       35.146        0.021      338.490       11.173      856.066
05/06/2013  18:52:00     -233.791      -89.683        1.424      117.419      106.240       49.328    13787.148    11286.966     2433.229        4.510        1.375      250.402       49.178        0.039      338.454       11.111      856.080
05/06/2013  18:53:00     -286.550      -92.873      -16.604      103.147       99.904       49.769    10639.223     9980.780     2476.952        5.705        1.155      301.224       54.575        0.033      338.429       11.072      856.124
05/06/2013  18:54:00     -160.663      -46.257      -13.268       50.556       63.107       28.896     2555.926     3982.481      834.954        1.775        0.369      167.189       24.289        0.021      338.474       11.149      856.140
05/06/2013  18:55:00     -136.931      -14.538      -12.031       83.055       65.633       42.320     6898.131     4307.734     1790.987        1.605        0.650      137.700       34.862        0.064      338.505       11.202      856.159
05/06/2013  18:56:00     -162.842      -88.770      -13.136       75.177       60.469       24.752     5651.510     3656.529      612.685        2.224        0.496      185.466       20.087        0.012      338.475       11.152      856.197
05/06/2013  18:57:00     -254.564      -29.505      -22.353      129.087       88.795       49.998    16663.467     7884.563     2499.766        4.661        1.352      256.268       58.334        0.052      338.569       11.308      856.216
05/06/2013  18:58:00     -212.469      -24.212      -14.621      125.410       89.110       40.578    15727.706     7940.555     1646.596        3.562        1.266      213.844       54.912        0.066      338.614       11.382      856.248
05/06/2013  18:59:00     -142.089      -48.859       -6.965       72.586       53.721       33.465     5268.659     2885.943     1119.928        1.595        0.464      150.255       34.709        0.053      338.583       11.333      856.265
05/06/2013  19:00:00     -157.690      -52.773      -13.822       90.335       51.058       35.941     8160.352     2606.873     1291.735        1.995        0.603      166.286       43.916        0.070      338.549       11.274      856.280
05/06/2013  19:01:00     -215.698      -65.357       -8.349      104.123       85.164       47.768    10841.669     7252.938     2281.750        3.562        1.019      225.382       55.426        0.060      338.546       11.268      856.287
05/06/2013  19:02:00     -171.147      -18.923      -14.061       61.326       63.204       35.239     3760.851     3994.796     1241.803        1.942        0.450      172.189       24.102        0.020      338.687       11.507      856.302
05/06/2013  19:03:00     -176.578      -75.796       -8.911       98.245       88.181       51.378     9652.142     7775.930     2639.731        2.853        1.003      192.159       52.368        0.074      338.605       11.368      856.275
05/06/2013  19:04:00     -232.164      -67.315      -15.096       70.748       79.965       32.788     5005.250     6394.323     1075.024        3.556        0.624      241.726       26.192        0.012      338.660       11.460      856.263
05/06/2013  19:05:00     -283.019     -102.472       -4.844       93.019       66.113       47.469     8652.508     4370.904     2253.338        5.295        0.764      300.999       48.507        0.026      338.495       11.180      856.278
05/06/2013  19:06:00     -194.076     -134.364      -18.838      144.118      101.417       57.114    20769.888    10285.353     3262.039        4.519        1.716      236.050       68.876        0.085      338.515       11.215      856.291
05/06/2013  19:07:00     -267.437      -42.744       -1.511      128.156       81.299       60.512    16423.858     6609.500     3661.744        5.002        1.335      270.831       62.736        0.054      338.494       11.179      856.300
05/06/2013  19:08:00     -142.322      -48.327       18.989       97.821       99.460       58.723     9568.888     9892.337     3448.380        2.293        1.145      150.303       55.949        0.139      338.616       11.386      856.313
05/06/2013  19:09:00     -113.027      -45.205        2.627      105.948       61.356       42.892    11225.045     3764.577     1839.746        1.582        0.841      121.732       46.531        0.146      338.504       11.200      856.335
05/06/2013  19:10:00     -163.696     -141.896       -4.844      140.424       88.483       53.665    19718.980     7829.248     2879.930        3.869        1.521      216.635       65.772        0.092      338.502       11.194      856.337
05/06/2013  19:11:00      -75.299      -89.431       10.150      122.243       93.854       77.196    14943.245     8808.595     5959.169        2.174        1.486      116.910       79.721        0.465      338.480       11.158      856.339
05/06/2013  19:12:00     -102.565      -52.669        9.841       86.081       89.527       50.652     7409.882     8015.020     2565.606        1.569        0.900      115.297       47.502        0.170      338.526       11.238      856.360
05/06/2013  19:13:00     -216.486      -49.971      -10.923      116.159       78.508       53.387    13492.845     6163.466     2850.171        3.599        1.125      222.178       51.285        0.053      338.579       11.324      856.359
05/06/2013  19:14:00     -222.963      -70.655      -14.678      105.572       82.304       46.302    11145.422     6773.989     2143.850        3.749        1.003      233.890       51.732        0.049      338.574       11.315      856.363
05/06/2013  19:15:00     -274.298       -5.058      -10.251      123.169       93.106       65.425    15170.593     8668.739     4280.428        5.174        1.406      274.344       58.699        0.046      338.495       11.181      856.361
05/06/2013  19:16:00     -263.854      -55.471      -14.455       81.657       70.908       46.431     6667.887     5027.998     2155.803        4.338        0.693      269.622       45.351        0.028      338.411       11.041      856.379
05/06/2013  19:17:00     -261.607      -17.929      -13.625      154.067       96.206       53.650    23736.585     9255.621     2878.342        5.240        1.794      262.221       57.305        0.048      338.463       11.130      856.395
05/06/2013  19:18:00     -291.742      -11.312       -2.901      130.330       88.962       59.121    16985.990     7914.325     3495.303        5.682        1.420      291.961       62.598        0.046      338.495       11.181      856.378
05/06/2013  19:19:00     -243.055      -63.616       -1.922      111.801       85.983       51.402    12499.432     7393.068     2642.209        4.283        1.127      251.242       48.276        0.037      338.451       11.109      856.378
05/06/2013  19:20:00     -284.909     -110.513      -23.072       87.964      104.959       48.374     7737.650    11016.399     2339.999        5.750        1.055      305.592       44.783        0.021      338.366       10.966      856.397
05/06/2013  19:21:00     -269.787      -32.288       -0.044      153.466       85.973       60.771    23551.809     7391.308     3693.070        5.423        1.732      271.712       72.483        0.071      338.369       10.970      856.419
05/06/2013  19:22:00     -274.158      -19.670      -18.052       88.963       67.857       41.389     7914.491     4604.570     1713.022        4.505        0.712      274.863       38.436        0.020      338.350       10.938      856.420
05/06/2013  19:23:00     -182.737      -84.342      -10.174       63.695       94.336       44.681     4057.076     8899.278     1996.407        2.778        0.748      201.262       28.107        0.020      338.350       10.940      856.412
05/06/2013  19:24:00     -290.379      -60.649      -13.267      121.415       92.162       49.347    14741.598     8493.793     2435.085        5.692        1.284      296.645       42.387        0.020      338.332       10.910      856.404
05/06/2013  19:25:00     -135.432      -21.118       13.346       69.336       60.471       32.830     4807.442     3656.740     1077.801        1.425        0.477      137.069       19.517        0.020      338.361       10.960      856.418
05/06/2013  19:26:00      -79.311      -49.609       -8.067       57.769       43.259       35.150     3337.200     1871.306     1235.488        0.763        0.322       93.548       12.242        0.017      338.384       11.000      856.444
05/06/2013  19:27:00      -96.938      -89.997       17.028       89.332       94.055       49.261     7980.134     8846.253     2426.607        1.852        0.963      132.274       52.153        0.155      338.428       11.072      856.465
05/06/2013  19:28:00     -143.269      -81.625        4.161       90.331       75.937       49.880     8159.760     5766.459     2487.993        2.181        0.821      164.890       53.959        0.107      338.418       11.052      856.483
05/06/2013  19:29:00     -266.893      -83.072      -16.254       70.996       81.079       38.789     5040.456     6573.873     1504.564        4.576        0.656      279.523       29.531        0.011      338.402       11.026      856.506
05/06/2013  19:30:00     -191.667      -42.500       -6.450       86.363      105.358       42.649     7458.522    11100.340     1818.966        2.948        1.019      196.323       43.293        0.049      338.378       10.985      856.503
05/06/2013  19:31:00     -219.922     -113.629       -9.482      126.362       97.386       57.120    15967.302     9483.993     3262.702        4.504        1.436      247.543       59.713        0.058      338.409       11.037      856.524
05/06/2013  19:32:00     -289.186      -32.098       -7.395      114.417       89.221       46.571    13091.194     7960.309     2168.885        5.396        1.161      290.962       40.474        0.019      338.420       11.056      856.553
05/06/2013  19:33:00     -193.178     -170.218      -12.170       97.177       87.903       55.862     9443.331     7726.916     3120.534        4.336        1.015      257.473       54.945        0.046      338.437       11.086      856.567
05/06/2013  19:34:00     -146.852      -98.369      -14.132       83.254       60.017       46.141     6931.239     3602.042     2128.987        2.205        0.633      176.753       48.662        0.076      338.478       11.153      856.581
05/06/2013  19:35:00     -181.277       -6.275       -0.642      106.751       77.805       47.074    11395.780     6053.617     2215.990        2.628        0.983      181.385       48.898        0.073      338.453       11.112      856.595
05/06/2013  19:36:00     -136.208      -78.249       -1.652       88.391       70.773       41.576     7813.001     5008.785     1728.586        1.961        0.728      157.085       36.289        0.053      338.460       11.124      856.606
05/06/2013  19:37:00     -140.277      -29.951        0.809      102.200       76.448       46.428    10444.853     5844.333     2155.582        1.951        0.922      143.439       49.978        0.121      338.470       11.141      856.616
05/06/2013  19:38:00     -212.360      -73.338       -3.370      121.453       83.492       62.914    14750.737     6970.850     3958.158        3.808        1.284      224.667       58.378        0.068      338.441       11.091      856.624
05/06/2013  19:39:00     -285.737      -99.540      -14.078      111.409       95.718       49.024    12412.038     9161.858     2403.357        5.786        1.199      302.578       52.784        0.030      338.433       11.079      856.625
05/06/2013  19:40:00     -159.151     -106.034       13.064      145.556      103.958       73.051    21186.448    10807.260     5336.424        3.703        1.867      191.239       90.709        0.225      338.443       11.095      856.625
05/06/2013  19:41:00     -111.952      -80.667       21.300      138.532      104.940       64.509    19191.008    11012.411     4161.465        2.692        1.718      137.987       81.182        0.346      338.471       11.141      856.628
05/06/2013  19:42:00     -148.500      -89.188        3.311       90.374       61.564       42.300     8167.398     3790.167     1789.271        2.188        0.687      173.224       33.640        0.038      338.427       11.069      856.656
05/06/2013  19:43:00     -268.241        3.727      -11.158      111.431      102.667       45.221    12416.887    10540.529     2044.925        4.854        1.250      268.267       41.192        0.024      338.411       11.041      856.680
05/06/2013  19:44:00     -171.207      -42.711       -3.955      104.165       66.418       42.725    10850.426     4411.402     1825.406        2.412        0.854      176.454       43.570        0.061      338.456       11.117      856.705
05/06/2013  19:45:00     -236.315      -48.484      -14.306       63.691       80.706       36.913     4056.607     6513.532     1362.565        3.516        0.597      241.238       30.372        0.016      338.393       11.010      856.714
05/06/2013  19:46:00     -274.134      -83.065      -18.751       96.812      130.268       59.994     9372.562    16969.864     3599.328        5.617        1.497      286.442       58.067        0.041      338.405       11.031      856.710
05/06/2013  19:47:00     -264.948      -25.479       -7.495      129.378      106.204       57.524    16738.667    11279.276     3308.964        5.111        1.566      266.171       69.546        0.068      338.400       11.021      856.709
05/06/2013  19:48:00     -235.296      -31.803      -10.565       82.486       85.057       47.576     6803.891     7234.651     2263.462        3.639        0.815      237.435       34.953        0.022      338.435       11.082      856.720
05/06/2013  19:49:00     -204.907      -22.308       -5.327       87.163       65.364       41.407     7597.433     4272.413     1714.576        2.805        0.679      206.118       30.602        0.022      338.355       10.948      856.740
05/06/2013  19:50:00     -183.576      -37.145       -3.626       81.716       52.157       41.113     6677.491     2720.364     1690.317        2.309        0.554      187.297       47.049        0.063      338.285       10.832      856.738
05/06/2013  19:51:00     -219.666      -60.994       -9.716      117.450       58.972       37.855    13794.483     3477.729     1432.969        3.538        0.935      227.977       44.377        0.038      338.358       10.954      856.746
05/06/2013  19:52:00     -341.595       11.726      -29.833      122.840       94.936       52.103    15089.548     9012.788     2714.723        7.226        1.341      341.796       47.359        0.019      338.300       10.853      856.768
05/06/2013  19:53:00     -235.801      -45.226       -8.899       92.990       79.434       45.433     8647.061     6309.811     2064.188        3.737        0.851      240.099       44.096        0.034      338.334       10.912      856.777
05/06/2013  19:54:00     -182.600       -1.589       -6.662       94.599       65.948       47.790     8948.901     4349.112     2283.860        2.448        0.779      182.607       46.511        0.065      338.412       11.043      856.793
05/06/2013  19:55:00     -239.470      -51.513      -12.465       99.257       87.389       48.370     9851.919     7636.842     2339.639        3.999        0.991      244.947       47.405        0.037      338.366       10.966      856.801
05/06/2013  19:56:00     -275.182      -34.528      -15.974      152.232       79.343       44.971    23174.510     6295.389     2022.434        5.433        1.575      277.340       52.156        0.035      338.350       10.941      856.811
05/06/2013  19:57:00     -245.156      -52.359      -15.280       77.889       86.430       41.218     6066.750     7470.210     1698.917        3.915        0.762      250.685       41.249        0.027      338.312       10.874      856.835
05/06/2013  19:58:00     -221.583      -34.396      -11.612       99.320       87.234       42.387     9864.421     7609.693     1796.623        3.484        0.964      224.237       41.805        0.035      338.316       10.882      856.852
05/06/2013  19:59:00     -147.645      -46.618        2.414       88.335       78.732       40.740     7803.103     6198.730     1659.766        1.982        0.783      154.829       41.686        0.072      338.293       10.846      856.857
05/06/2013  20:00:00     -127.032      -15.111        4.413       63.410       69.212       42.688     4020.832     4790.256     1822.277        1.351        0.532      127.928       40.151        0.099      338.367       10.969      856.858
05/06/2013  20:01:00     -238.340      -99.557      -11.886      124.712      100.447       51.404    15552.991    10089.579     2642.360        4.757        1.414      258.297       55.060        0.045      338.317       10.883      856.854
05/06/2013  20:02:00     -225.401      -66.584       -1.770      125.216      102.344       57.036    15679.076    10474.300     3253.154        4.232        1.470      235.030       62.568        0.071      338.274       10.811      856.875
05/06/2013  20:03:00     -188.174      -17.014       -9.510      109.418       75.260       45.081    11972.345     5664.050     2032.323        2.773        0.983      188.942       48.333        0.065      338.227       10.733      856.891
05/06/2013  20:04:00     -192.004       18.858        4.950      103.648       78.592       49.677    10742.829     6176.725     2467.767        2.831        0.969      192.928       51.334        0.071      338.201       10.690      856.913
05/06/2013  20:05:00     -279.701     -134.017      -15.408      144.138      109.253       65.098    20775.770    11936.274     4237.752        6.668        1.847      310.150       71.446        0.053      338.180       10.653      856.929
05/06/2013  20:06:00     -155.153      -50.441       11.039      157.935      113.368       75.698    24943.364    12852.346     5730.162        3.513        2.176      163.147       73.469        0.203      338.197       10.681      856.936
05/06/2013  20:07:00     -256.874      -33.902      -10.404      150.953      103.799       66.375    22786.831    10774.153     4405.601        5.260        1.898      259.102       66.771        0.066      338.148       10.600      856.936
05/06/2013  20:08:00     -144.686      -57.999        3.301      128.933      107.252       60.317    16623.832    11502.889     3638.093        2.803        1.588      155.878       65.605        0.177      338.185       10.663      856.926
05/06/2013  20:09:00     -123.735       -6.580        8.983       99.707       91.465       49.435     9941.516     8365.790     2443.818        1.809        1.038      123.910       51.933        0.176      338.210       10.705      856.942
05/06/2013  20:10:00     -307.700      -61.598       -6.335      136.585       99.218       57.405    18655.387     9844.170     3295.344        6.515        1.590      313.805       51.630        0.027      338.095       10.511      856.959
05/06/2013  20:11:00     -296.400     -111.448       -3.467      174.776      103.445       74.439    30546.811    10700.788     5541.151        7.353        2.339      316.661       90.050        0.081      338.108       10.532      856.959
05/06/2013  20:12:00     -125.377      -47.932       14.324       92.134       87.666       57.586     8488.626     7685.389     3316.161        1.885        0.975      134.227       58.492        0.190      338.130       10.570      856.961
05/06/2013  20:13:00     -106.233      -87.010       16.006      104.559       66.497       48.508    10932.573     4421.881     2353.004        1.841        0.885      137.318       57.465        0.175      338.134       10.576      856.951
05/06/2013  20:14:00     -189.032     -121.140       -1.332      115.599       77.452       44.014    13363.099     5998.775     1937.194        3.585        1.065      224.518       48.243        0.046      338.107       10.531      856.945
05/06/2013  20:15:00     -319.995     -102.942       -2.749      128.230      144.253       71.854    16442.827    20808.988     5163.030        7.770        2.121      336.145       75.011        0.050      338.008       10.366      856.937
05/06/2013  20:16:00     -278.958      -50.522      -18.130      139.955      111.062       63.964    19587.474    12334.748     4091.397        5.835        1.801      283.496       72.933        0.066      337.979       10.315      856.940
05/06/2013  20:17:00     -204.148      -30.472       -1.878      154.496      114.134       61.857    23868.952    13026.467     3826.232        4.166        2.036      206.410       74.254        0.129      337.951       10.269      856.925
05/06/2013  20:18:00     -239.060        6.275      -10.524      119.270       64.859       53.233    14225.314     4206.648     2833.706        3.928        1.063      239.142       59.055        0.061      337.915       10.208      856.926
05/06/2013  20:19:00     -161.161     -101.280       -4.882      100.460       92.351       50.759    10092.257     8528.668     2576.440        2.872        1.060      190.343       40.700        0.046      337.932       10.239      856.938
05/06/2013  20:20:00     -280.156      -26.414       -2.409      150.266       94.080       52.143    22579.819     8851.000     2718.940        5.666        1.707      281.398       57.556        0.042      337.876       10.142      856.933
05/06/2013  20:21:00     -187.696      -24.063        1.888       98.462       77.860       44.470     9694.775     6062.162     1977.557        2.677        0.887      189.232       41.853        0.049      337.859       10.115      856.951
05/06/2013  20:22:00     -157.783      -79.882      -20.519       81.357       79.157       53.600     6618.957     6265.787     2872.942        2.373        0.788      176.852       41.379        0.055      337.891       10.171      856.953
05/06/2013  20:23:00     -235.327      -53.471       -4.948      108.157       91.558       53.199    11698.025     8382.915     2830.183        4.058        1.146      241.325       50.594        0.044      337.830       10.066      856.973
05/06/2013  20:24:00     -149.964      -93.086        6.993      119.563       63.502       54.922    14295.317     4032.455     3016.372        2.627        1.067      176.505       69.033        0.153      337.831       10.068      856.964
05/06/2013  20:25:00     -157.867      -68.202        8.596      119.599      120.642       49.313    14304.011    14554.435     2431.802        3.046        1.565      171.969       65.918        0.147      337.835       10.076      856.958
05/06/2013  20:26:00     -251.959       -8.813      -23.582      102.634       88.536       43.609    10533.763     7838.600     1901.740        4.219        1.014      252.113       41.880        0.028      337.819       10.047      856.949
05/06/2013  20:27:00     -213.498      -60.482       -6.328      104.276       71.002       47.698    10873.524     5041.223     2275.080        3.373        0.909      221.900       45.609        0.042      337.751        9.933      856.950
05/06/2013  20:28:00     -121.874      -36.590        0.476       71.715       49.727       36.940     5143.085     2472.806     1364.547        1.258        0.449      127.248       42.365        0.111      337.762        9.955      856.947
05/06/2013  20:29:00     -146.720      -40.311       -7.105       81.404       51.702       38.368     6626.654     2673.085     1472.120        1.699        0.539      152.157       43.314        0.081      337.786        9.994      856.944
05/06/2013  20:30:00     -206.417      -20.623       -9.708       91.035       80.829       45.967     8287.329     6533.367     2112.978        3.003        0.847      207.445       43.712        0.044      337.697        9.843      856.944
05/06/2013  20:31:00     -196.064     -127.101       -9.412      107.960       86.718       52.452    11655.286     7519.988     2751.221        3.830        1.096      233.658       52.311        0.050      337.708        9.862      856.945
05/06/2013  20:32:00      -59.554      -75.298       24.269      102.628       84.514       59.436    10532.411     7142.606     3532.653        1.550        1.060       96.003       59.568        0.385      337.771        9.969      856.951
05/06/2013  20:33:00     -206.136      -64.227      -14.678       98.336       74.616       38.713     9669.963     5567.621     1498.693        3.178        0.837      215.910       40.784        0.036      337.715        9.875      856.958
05/06/2013  20:34:00     -159.103      -30.779      -17.026      114.109       48.812       41.080    13020.828     2382.571     1687.565        2.182        0.855      162.052       48.596        0.090      337.721        9.883      856.942
05/06/2013  20:35:00      -67.902      -22.693       -6.247       70.900       52.503       26.280     5026.859     2756.604      690.662        0.682        0.424       71.594       15.639        0.048      337.790       10.001      856.946
05/06/2013  20:36:00     -127.393     -106.086        4.912      111.283       61.815       54.682    12383.943     3821.120     2990.092        2.335        0.960      165.781       48.672        0.086      337.757        9.944      856.937
05/06/2013  20:37:00     -139.620      -25.068       -4.300       89.539       86.155       40.697     8017.309     7422.763     1656.211        1.862        0.855      141.853       31.570        0.050      337.719        9.882      856.938
05/06/2013  20:38:00     -211.944      -57.421       -1.895      107.291       99.418       54.218    11511.464     9883.988     2939.543        3.627        1.217      219.585       55.363        0.064      337.700        9.849      856.938
05/06/2013  20:39:00      -59.385      -50.099       30.815      105.724       86.299       61.216    11177.552     7447.530     3747.340        1.468        1.119       77.695       62.621        0.650      337.746        9.927      856.934
05/06/2013  20:40:00     -205.920        3.117        2.456      135.327       75.980       62.217    18313.332     5772.887     3870.994        3.518        1.398      205.943       68.703        0.111      337.694        9.838      856.951
05/06/2013  20:41:00     -324.064      -25.283      -21.969      144.165      102.165       50.183    20783.595    10437.733     2518.377        6.993        1.687      325.049       69.777        0.046      337.678        9.811      856.952
05/06/2013  20:42:00     -384.786      -62.553      -25.334      107.900      111.823       60.559    11642.419    12504.456     3667.397        9.021        1.391      389.838       56.341        0.021      337.686        9.825      856.933
05/06/2013  20:43:00     -337.002      -86.786       -1.272      152.881      137.523       64.704    23372.508    18912.671     4186.638        8.378        2.324      347.997       80.959        0.054      337.677        9.810      856.916
05/06/2013  20:44:00     -259.401      -56.497      -28.325       97.449       93.721       56.162     9496.305     8783.619     3154.138        4.635        1.072      265.482       41.360        0.024      337.688        9.828      856.899
05/06/2013  20:45:00     -407.356      -84.800      -17.187      192.731      131.120       73.790    37145.061    17192.530     5444.926       11.659        2.989      416.089       82.191        0.039      337.683        9.821      856.894
05/06/2013  20:46:00     -460.646      -31.257      -32.663      153.714      143.978       68.816    23628.008    20729.691     4735.598       13.166        2.455      461.706       74.088        0.026      337.685        9.824      856.876
05/06/2013  20:47:00     -330.468      -62.120       -9.186      167.742      166.238       81.670    28137.283    27635.028     6669.941        8.779        3.122      336.256       78.585        0.055      337.703        9.853      856.857
05/06/2013  20:48:00     -288.189       -6.614      -14.224      148.591      104.175       62.409    22079.427    10852.388     3894.893        6.006        1.841      288.265       64.293        0.050      337.733        9.904      856.853
05/06/2013  20:49:00     -332.114      -77.918       -7.494      126.603      112.363       62.936    16028.391    12625.453     3960.987        7.452        1.631      341.132       63.462        0.035      337.723        9.887      856.876
05/06/2013  20:50:00     -415.450     -146.397       -9.214      133.494      121.925       69.796    17820.635    14865.676     4871.419       11.583        1.878      440.489       62.792        0.020      337.717        9.876      856.866
05/06/2013  20:51:00     -327.120      -47.142       -2.415      159.255      112.090       71.523    25362.280    12564.152     5115.520        7.613        2.152      330.499       84.060        0.065      337.693        9.836      856.876
05/06/2013  20:52:00     -264.863      -47.382        0.255      197.555      146.558       75.905    39027.926    21479.260     5761.543        6.932        3.313      269.068       83.583        0.096      337.726        9.892      856.899
05/06/2013  20:53:00     -352.169      -90.952        4.525      162.365      125.682       79.897    26362.506    15795.956     6383.595        9.042        2.427      363.724       85.678        0.055      337.721        9.884      856.904
05/06/2013  20:54:00     -379.019      -88.414      -15.283      193.591      137.749       74.372    37477.335    18974.847     5531.158       10.683        3.099      389.195       94.270        0.059      337.739        9.915      856.912
05/06/2013  20:55:00     -466.756     -120.285      -15.835      159.185      140.690       78.351    25339.826    19793.628     6138.890       14.192        2.564      482.006       64.522        0.018      337.742        9.918      856.940
05/06/2013  20:56:00     -393.194      -36.375      -14.426      210.635      117.139       74.525    44366.943    13721.575     5553.977       10.988        3.182      394.873       91.793        0.054      337.725        9.890      856.962
05/06/2013  20:57:00     -374.039     -196.308      -20.569      191.509      132.042       74.694    36675.879    17435.171     5579.179       11.927        2.985      422.424       81.934        0.038      337.709        9.862      856.945
05/06/2013  20:58:00     -482.317      -99.895      -31.262      177.723      132.484       70.977    31585.505    17552.117     5037.736       14.887        2.709      492.554       77.299        0.025      337.681        9.817      856.968
05/06/2013  20:59:00     -505.572      -94.593      -34.825      172.483      127.160       82.595    29750.333    16169.641     6821.921       15.924        2.637      514.345       78.210        0.023      337.674        9.807      856.973
05/06/2013  21:00:00     -343.278      -60.923       -7.960      155.278      107.994       62.719    24111.241    11662.687     3933.610        8.065        1.985      348.642       66.791        0.037      337.660        9.781      857.015
05/06/2013  21:01:00     -314.105      -56.210       -3.887      127.474      116.362       65.442    16249.644    13540.113     4282.678        6.795        1.704      319.095       70.034        0.048      337.635        9.740      857.034
05/06/2013  21:02:00     -425.121      -66.711      -13.005      188.284      161.650       82.419    35450.800    26130.708     6792.913       12.685        3.419      430.323       93.111        0.047      337.638        9.744      857.068
05/06/2013  21:03:00     -371.207      -62.973       -3.955      154.522      134.905       84.034    23877.172    18199.346     7061.792        9.545        2.457      376.511       74.822        0.039      337.658        9.778      857.087
05/06/2013  21:04:00     -493.953      -71.288      -22.942      163.438      164.267       75.551    26712.008    26983.797     5707.906       15.449        2.970      499.070       73.969        0.022      337.622        9.719      857.055
05/06/2013  21:05:00     -366.628      -83.184      -20.279      126.918      117.425       58.110    16108.117    13788.537     3376.808        8.750        1.664      375.946       57.270        0.023      337.610        9.698      857.073
05/06/2013  21:06:00     -404.830      -90.107       -4.493      184.836      157.213       77.468    34164.257    24715.910     6001.306       11.844        3.244      414.737       70.489        0.029      337.592        9.667      857.116
05/06/2013  21:07:00     -465.828      -55.065      -21.908      189.492      117.465       80.268    35907.261    13798.068     6443.019       13.832        2.807      469.071       92.291        0.039      337.598        9.677      857.136
05/06/2013  21:08:00     -367.790      -34.641      -26.712      183.119      145.269       65.588    33532.609    21103.216     4301.796        9.805        2.947      369.417       71.955        0.038      337.587        9.660      857.112
05/06/2013  21:09:00     -349.503     -120.156      -12.237      196.088      134.430       76.416    38450.481    18071.524     5839.354        9.954        3.118      369.581       67.439        0.033      337.562        9.615      857.108
05/06/2013  21:10:00     -451.647     -111.297      -29.157      166.239      157.808       83.116    27635.552    24903.517     6908.298       13.832        2.972      465.158       82.858        0.032      337.602        9.683      857.108
05/06/2013  21:11:00     -405.751      -22.882      -14.122      172.074      141.356       77.088    29609.331    19981.583     5942.558       11.044        2.777      406.396       91.591        0.051      337.594        9.672      857.137
05/06/2013  21:12:00     -389.879      -48.605      -15.146      198.057      168.559       84.547    39226.394    28412.232     7148.130       11.468        3.739      392.897       88.570        0.051      337.617        9.708      857.126
05/06/2013  21:13:00     -416.755      -39.249      -29.996      168.709      138.432       83.821    28462.564    19163.496     7026.004       11.538        2.733      418.599       83.993        0.040      337.560        9.613      857.134
05/06/2013  21:14:00     -507.947      -84.172      -34.557      137.586      139.471       69.327    18929.815    19452.099     4806.236       15.473        2.159      514.874       66.009        0.016      337.557        9.607      857.117
05/06/2013  21:15:00     -316.628     -133.261       -0.095      131.526      140.957       60.795    17299.130    19868.847     3695.978        7.943        2.043      343.529       57.669        0.028      337.558        9.609      857.123
05/06/2013  21:16:00     -413.337       -9.036      -11.483      182.781      162.606       89.372    33408.772    26440.817     7987.350       11.944        3.392      413.436       97.620        0.056      337.554        9.602      857.142
05/06/2013  21:17:00     -335.577     -115.531        1.912      142.599      108.242       66.411    20334.541    11716.379     4410.416        8.121        1.823      354.908       63.024        0.032      337.533        9.568      857.173
05/06/2013  21:18:00     -296.507      -59.320      -17.028      131.817       89.012       55.557    17375.831     7923.078     3086.609        6.005        1.419      302.382       37.318        0.015      337.539        9.577      857.154
05/06/2013  21:19:00     -360.766     -104.694      -21.697      166.340      148.420       79.470    27669.153    22028.606     6315.479        9.879        2.801      375.650       80.995        0.046      337.518        9.542      857.150
05/06/2013  21:20:00     -485.521     -107.873      -23.563      175.058      154.828       80.745    30645.180    23971.849     6519.831       15.452        3.057      497.361       80.636        0.026      337.474        9.470      857.130
05/06/2013  21:21:00     -473.604     -116.431      -16.945      179.193      142.281       82.477    32110.045    20243.847     6802.397       14.864        2.958      487.706       77.549        0.025      337.459        9.444      857.168
05/06/2013  21:22:00     -522.201      -39.487      -40.223      186.580      159.660       85.429    34812.257    25491.390     7298.171       17.173        3.380      523.692       85.963        0.027      337.435        9.402      857.191
05/06/2013  21:23:00     -389.412       20.262      -55.001      157.677      102.452       64.507    24862.117    10496.362     4161.205        9.729        1.976      389.938       67.880        0.030      337.434        9.402      857.193
05/06/2013  21:24:00     -456.867      -73.653       -2.374      149.990      148.928       85.211    22497.037    22179.502     7260.894       13.304        2.597      462.766       81.706        0.031      337.422        9.382      857.161
05/06/2013  21:25:00     -485.986      -74.330      -32.736      129.910      162.365       68.996    16876.633    26362.482     4760.400       14.538        2.400      491.637       62.181        0.016      337.436        9.405      857.154
05/06/2013  21:26:00     -415.909      -72.755      -18.142      163.347      161.073       75.505    26682.295    25944.464     5701.035       11.846        2.916      422.224       77.226        0.033      337.440        9.412      857.182
05/06/2013  21:27:00     -375.817      -77.046      -16.649      205.530      188.359       83.275    42242.518    35479.014     6934.673       11.604        4.233      383.634       90.604        0.056      337.486        9.488      857.160
05/06/2013  21:28:00     -594.193      -36.507      -36.573      194.420      173.227       86.293    37799.141    30007.718     7446.471       21.548        3.763      595.314       72.601        0.015      337.514        9.535      857.152
05/06/2013  21:29:00     -357.921     -104.477        1.666      208.090      177.127      101.007    43301.472    31374.021    10202.372       11.194        4.244      372.858      107.595        0.083      337.535        9.570      857.146
05/06/2013  21:30:00     -591.854      -60.995      -51.702      220.102      188.273       90.220    48444.789    35446.749     8139.662       22.434        4.602      594.988      101.586        0.029      337.514        9.534      857.142
05/06/2013  21:31:00     -466.178      -42.650      -29.197      176.462      163.043       85.856    31138.775    26582.970     7371.262       14.253        3.255      468.125       86.553        0.034      337.517        9.540      857.138
05/06/2013  21:32:00     -455.177     -147.362      -12.889      225.912      185.248      107.479    51036.202    34316.972    11551.698       16.297        4.845      478.437      103.898        0.047      337.554        9.602      857.155
05/06/2013  21:33:00     -518.322      -74.632      -35.206      183.239      145.221       69.013    33576.587    21089.245     4762.738       16.744        2.971      523.668       63.719        0.015      337.557        9.607      857.211
05/06/2013  21:34:00     -406.610       11.329      -25.736      179.564      138.589       84.671    32243.362    19207.036     7169.152       11.236        2.931      406.768       93.798        0.053      337.537        9.572      857.233
05/06/2013  21:35:00     -383.242     -140.749       -2.731      213.021      154.622       94.006    45377.995    23908.073     8837.138       12.239        3.906      408.270       97.845        0.057      337.547        9.589      857.199
05/06/2013  21:36:00     -471.202      -47.524      -45.580      141.608      156.115       79.703    20052.866    24371.874     6352.628       13.856        2.539      473.593       61.255        0.017      337.550        9.594      857.215
05/06/2013  21:37:00     -511.749     -173.394      -15.339      163.935      146.340       86.916    26874.752    21415.374     7554.317       17.401        2.792      540.326       80.839        0.022      337.553        9.600      857.196
05/06/2013  21:38:00     -383.794     -154.698       -0.275      169.233      154.662       86.743    28639.764    23920.240     7524.395       11.565        3.004      413.798       81.869        0.039      337.582        9.649      857.218
05/06/2013  21:39:00     -600.953      -93.192      -25.961      160.560      131.758       92.859    25779.472    17360.180     8622.741       21.112        2.588      608.136       92.381        0.023      337.559        9.611      857.234
05/06/2013  21:40:00     -630.403     -190.427      -27.772      154.416      145.607       78.168    23844.346    21201.442     6110.302       24.279        2.558      658.537       69.001        0.011      337.548        9.591      857.243
05/06/2013  21:41:00     -441.841      -50.351      -33.837      240.653      154.651       93.028    57913.822    23917.050     8654.234       14.468        4.524      444.701      107.971        0.059      337.567        9.624      857.242
05/06/2013  21:42:00     -543.795      -24.000      -23.248      174.463      163.170       88.454    30437.374    26624.396     7824.067       18.085        3.244      544.325       91.193        0.028      337.557        9.606      857.253
05/06/2013  21:43:00     -388.924     -102.065        3.709      209.224      162.202       91.348    43774.528    26309.634     8344.467       12.005        3.921      402.093      105.709        0.069      337.563        9.617      857.232
05/06/2013  21:44:00     -479.413      -50.202      -18.716      270.937      180.536      113.978    73407.120    32593.102    12991.045       17.583        5.950      482.034      141.014        0.086      337.564        9.618      857.256
05/06/2013  21:45:00     -555.598     -116.490      -25.707      218.762      179.184       98.914    47856.840    32106.901     9783.936       20.632        4.487      567.679      105.723        0.035      337.539        9.577      857.272
05/06/2013  21:46:00     -584.880     -123.883      -26.700      170.303      174.147       84.330    29003.222    30327.006     7111.547       21.228        3.322      597.856       88.470        0.022      337.538        9.574      857.279
05/06/2013  21:47:00     -413.568      -81.016      -11.488      219.566      127.853       88.231    48209.378    16346.449     7784.788       12.503        3.617      421.428      106.804        0.064      337.547        9.590      857.289
05/06/2013  21:48:00     -499.312     -123.561      -32.652      156.698      137.478       73.299    24554.266    18900.317     5372.752       15.723        2.441      514.373       60.105        0.014      337.522        9.548      857.288
05/06/2013  21:49:00     -372.184      -67.709        0.946      190.222      147.669       89.257    36184.252    21806.113     7966.808       10.452        3.298      378.293       90.758        0.058      337.541        9.581      857.314
05/06/2013  21:50:00     -435.276     -122.519      -33.242      199.009      165.836       71.911    39604.465    27501.655     5171.260       13.892        3.614      452.190       65.308        0.021      337.543        9.584      857.339
05/06/2013  21:51:00     -430.648      -33.458      -28.464      185.088      180.774       98.710    34257.719    32679.177     9743.629       13.202        3.834      431.946      104.472        0.058      337.521        9.546      857.366
05/06/2013  21:52:00     -470.681     -126.067       -7.944      216.707      150.336       80.853    46961.885    22600.819     6537.202       15.679        3.805      487.272       96.757        0.039      337.539        9.577      857.380
05/06/2013  21:53:00     -386.347      -90.690      -18.835      197.349      149.381       88.678    38946.591    22314.730     7863.798       11.347        3.456      396.848       76.431        0.037      337.568        9.627      857.377
05/06/2013  21:54:00     -515.897     -125.669      -24.746      203.906      187.463       96.579    41577.771    35142.509     9327.551       18.429        4.302      530.982       77.560        0.021      337.542        9.582      857.380
05/06/2013  21:55:00     -356.275     -151.267      -16.364      188.723      146.778       93.895    35616.265    21543.683     8816.217       10.802        3.299      387.058       83.979        0.047      337.538        9.576      857.376
05/06/2013  21:56:00     -475.065      -63.806      -29.775      188.427      158.685       81.978    35504.871    25181.059     6720.352       14.901        3.370      479.331       91.224        0.036      337.559        9.610      857.388
05/06/2013  21:57:00     -483.600      -12.838      -35.289      161.932      147.550       82.483    26221.978    21770.922     6803.411       14.503        2.740      483.771       77.932        0.026      337.558        9.608      857.374
05/06/2013  21:58:00     -471.229      -56.986      -31.912      165.927      141.103       91.008    27531.772    19910.083     8282.427       14.101        2.786      474.662       96.583        0.041      337.542        9.582      857.393
05/06/2013  21:59:00     -465.635      -45.963      -32.481      202.524      213.530       94.285    41016.046    45595.266     8889.668       15.773        4.775      467.898       92.081        0.039      337.546        9.589      857.390
05/06/2013  22:00:00     -425.706     -133.622      -10.085      227.524      171.697       98.992    51767.181    29479.978     9799.405       14.510        4.552      446.184      110.919        0.062      337.561        9.614      857.402
05/06/2013  22:01:00     -506.559     -114.186      -27.369      204.112      185.805       81.972    41661.873    34523.682     6719.336       17.663        4.145      519.269       87.812        0.029      337.572        9.632      857.418
05/06/2013  22:02:00     -379.968     -111.729      -35.232      169.809      151.592       76.368    28835.220    22980.187     5832.007       10.786        2.882      396.054       69.503        0.031      337.571        9.631      857.453
05/06/2013  22:03:00     -635.495     -115.355      -37.482      190.841      152.983       89.297    36420.153    23403.860     7973.932       24.317        3.390      645.880       84.557        0.017      337.565        9.620      857.472
05/06/2013  22:04:00     -545.395      -71.549      -47.669      156.333      137.151       86.141    24439.949    18810.349     7420.266       17.775        2.534      550.068       88.230        0.026      337.562        9.615      857.526
05/06/2013  22:05:00     -470.071     -110.538       -3.940      190.463      151.302       75.703    36276.148    22892.170     5730.964       14.904        3.245      482.893       80.308        0.028      337.544        9.586      857.589
05/06/2013  22:06:00     -420.235      -98.452      -14.025      234.948      138.469       82.823    55200.469    19173.802     6859.690       13.385        4.062      431.613      113.177        0.069      337.557        9.608      857.628
05/06/2013  22:07:00     -533.311      -81.459      -43.251      222.829      175.621       94.825    49652.862    30842.728     8991.826       19.119        4.474      539.496      104.148        0.037      337.571        9.630      857.692
05/06/2013  22:08:00     -578.431      -57.797      -31.903      207.962      203.616       95.578    43248.073    41459.549     9135.204       21.638        4.692      581.312       94.747        0.027      337.571        9.632      857.724
05/06/2013  22:09:00     -449.464     -186.481      -16.483      212.479      148.404       89.597    45147.498    22023.870     8027.640       15.612        3.760      486.613       98.826        0.041      337.582        9.649      857.753
05/06/2013  22:10:00     -465.609     -103.152      -33.669      205.729      152.340       81.409    42324.536    23207.533     6627.447       15.035        3.608      476.898       84.766        0.032      337.593        9.669      857.799
05/06/2013  22:11:00     -568.521      -94.680      -44.815      229.295      169.346       89.624    52576.397    28678.111     8032.477       21.172        4.464      576.351      106.787        0.034      337.617        9.711      857.806
05/06/2013  22:12:00     -485.876     -113.441       -4.237      177.019      140.426       78.785    31335.687    19719.550     6207.118       15.310        2.863      498.943       72.799        0.021      337.616        9.707      857.795
05/06/2013  22:13:00     -453.336      -89.558      -33.147      171.679      151.253       92.697    29473.628    22877.390     8592.652       13.778        3.047      462.097       90.904        0.039      337.610        9.697      857.812
05/06/2013  22:14:00     -374.276     -102.561      -15.116      198.665      140.761       82.387    39467.702    19813.520     6787.643       10.844        3.303      388.074       93.329        0.058      337.658        9.778      857.823
05/06/2013  22:15:00     -482.599      -82.134      -35.601      152.903      201.539       86.077    23379.427    40617.803     7409.285       15.615        3.570      489.538       77.445        0.025      337.629        9.730      857.820
05/06/2013  22:16:00     -319.069      -97.792       -3.484      211.872      141.101       77.458    44889.673    19909.482     5999.733        9.108        3.540      333.719       88.652        0.071      337.641        9.750      857.816
05/06/2013  22:17:00     -459.245     -114.837       -7.154      212.835      210.257      105.388    45298.833    44207.874    11106.578       16.236        5.031      473.385      118.813        0.063      337.626        9.724      857.822
05/06/2013  22:18:00     -356.193      -80.378        2.187      160.685      179.106       82.029    25819.786    32078.938     6728.839        9.897        3.231      365.150       83.750        0.053      337.652        9.768      857.827
05/06/2013  22:19:00     -316.537      -79.091        0.564      248.756      121.086       92.189    61879.588    14661.796     8498.760        9.573        4.252      326.268      126.920        0.151      337.666        9.792      857.850
05/06/2013  22:20:00     -399.233      -73.862      -36.306      167.403      118.695       70.274    28023.615    14088.506     4938.389       10.660        2.353      406.008       80.494        0.039      337.653        9.770      857.851
05/06/2013  22:21:00     -356.578      -61.907      -21.549       97.465       96.926       56.016     9499.368     9394.575     3137.808        7.673        1.102      361.912       48.672        0.018      337.661        9.783      857.864
05/06/2013  22:22:00     -515.983       -3.417      -28.641      252.489      201.177       90.121    63750.815    40472.002     8121.744       18.969        5.617      515.994      111.059        0.046      337.650        9.764      857.874
05/06/2013  22:23:00     -356.298      -27.788      -17.578      171.251      155.670       77.262    29326.774    24233.106     5969.414        9.377        2.976      357.380       66.270        0.034      337.675        9.807      857.884
05/06/2013  22:24:00     -364.454     -121.708      -12.219      180.100      161.144       86.442    32435.911    25967.247     7472.196       10.682        3.294      384.239       90.085        0.055      337.682        9.818      857.903
05/06/2013  22:25:00     -468.813      -54.958       -8.281      173.272      190.208       73.542    30023.220    36179.249     5408.498       14.723        3.581      472.023       67.837        0.021      337.660        9.782      857.958
05/06/2013  22:26:00     -378.090      -76.442      -13.005      181.631      121.005       65.288    32989.722    14642.178     4262.472       10.042        2.595      385.740       75.882        0.039      337.654        9.772      857.971
05/06/2013  22:27:00     -388.272     -135.757      -42.706      175.888      132.657       67.633    30936.761    17597.787     4574.175       11.205        2.655      411.321       54.927        0.018      337.687        9.828      857.963
05/06/2013  22:28:00     -571.768     -177.995      -27.324      150.712      126.881       71.970    22714.227    16098.800     5179.752       20.166        2.200      598.833       55.014        0.008      337.678        9.812      857.974
05/06/2013  22:29:00     -475.110      -54.486      -17.331      173.115      164.791       80.278    29968.701    27156.118     6444.605       14.627        3.178      478.224       88.224        0.034      337.654        9.771      857.983
05/06/2013  22:30:00     -274.897      -72.937       -7.041      142.093      165.506       67.768    20190.312    27392.244     4592.497        6.655        2.609      284.408       67.300        0.056      337.677        9.811      857.976
05/06/2013  22:31:00     -405.348      -53.805      -38.369      137.442      110.185       68.589    18890.262    12140.827     4704.487       10.220        1.787      408.904       72.355        0.031      337.667        9.793      858.001
05/06/2013  22:32:00     -308.127      -51.907      -14.967      122.944      116.988       66.363    15115.110    13686.214     4404.014        6.553        1.660      312.468       57.527        0.034      337.666        9.790      858.006
05/06/2013  22:33:00     -264.628      -88.380       17.091      163.217      135.515       69.077    26639.717    18364.337     4771.569        6.394        2.489      278.996       79.410        0.081      337.680        9.815      858.012
05/06/2013  22:34:00     -380.995     -157.716        5.027      166.025      154.316       76.071    27564.299    23813.470     5786.803       11.360        2.858      412.349       82.764        0.040      337.660        9.781      858.005
05/06/2013  22:35:00     -417.907       11.518      -34.555      166.106      157.940       81.074    27591.201    24944.897     6573.011       11.753        2.955      418.066       79.523        0.036      337.691        9.834      858.027
05/06/2013  22:36:00     -414.115     -129.390      -21.251      165.419      125.051       75.064    27363.388    15637.761     5634.637       11.865        2.432      433.858       78.953        0.033      337.665        9.791      858.016
05/06/2013  22:37:00     -336.489      -48.721       -5.774      144.646      137.568       78.071    20922.609    18925.056     6095.025        8.078        2.297      339.998       70.605        0.043      337.681        9.816      857.997
05/06/2013  22:38:00     -426.980      -42.308      -35.118      187.219      179.138       92.899    35050.834    32090.354     8630.224       13.054        3.789      429.071       84.292        0.039      337.649        9.764      857.998
05/06/2013  22:39:00     -554.751      -55.310      -40.294      200.558      152.439       82.448    40223.422    23237.519     6797.603       19.133        3.513      557.501       89.678        0.026      337.660        9.781      857.993
05/06/2013  22:40:00     -463.002     -170.719      -11.196      176.007      128.306       84.899    30978.605    16462.522     7207.822       14.914        2.732      493.474       89.291        0.033      337.673        9.803      857.991
05/06/2013  22:41:00     -474.858      -91.483      -34.094      157.526      165.736       79.204    24814.423    27468.552     6273.195       14.678        2.928      483.590       85.390        0.031      337.671        9.800      858.017
05/06/2013  22:42:00     -382.901      -79.155      -35.159      127.329      158.657       65.636    16212.558    25172.149     4308.121        9.990        2.285      390.997       60.988        0.024      337.677        9.808      858.007
05/06/2013  22:43:00     -496.926      -14.672      -35.013      173.349      200.208       89.914    30049.760    40083.237     8084.612       16.328        3.911      497.143       90.130        0.033      337.625        9.723      857.980
05/06/2013  22:44:00     -463.171     -133.328      -27.199      208.532      193.065       95.653    43485.391    37273.938     9149.583       16.146        4.495      481.979       85.416        0.031      337.629        9.729      857.978
05/06/2013  22:45:00     -405.953      -92.793      -30.119      215.616      132.290       69.109    46490.192    17500.685     4776.088       12.153        3.438      416.423       78.549        0.036      337.635        9.740      857.975
05/06/2013  22:46:00     -447.637     -136.074      -10.904      197.481      146.374       89.810    38998.789    21425.441     8065.814       14.374        3.425      467.862       92.345        0.039      337.644        9.755      857.962
05/06/2013  22:47:00     -407.092      -73.495      -28.646      210.872      156.856       88.062    44467.081    24603.926     7754.881       12.437        3.841      413.673       98.079        0.056      337.679        9.813      857.987
05/06/2013  22:48:00     -509.281      -52.880      -36.271      165.473      123.710       65.724    27381.438    15304.049     4319.702       15.523        2.350      512.019       60.259        0.014      337.671        9.800      858.006
05/06/2013  22:49:00     -365.977      -81.071       -8.330      148.938      121.935       73.677    22182.420    14868.250     5428.248        9.152        2.124      374.849       78.380        0.044      337.662        9.786      858.005
05/06/2013  22:50:00     -307.219      -77.321      -22.571      133.517      116.905       65.217    17826.900    13666.685     4253.272        6.830        1.787      316.800       74.897        0.056      337.669        9.798      857.979
05/06/2013  22:51:00     -471.643     -104.950      -27.461      218.700      151.150       90.618    47829.508    22846.426     8211.550       15.654        3.944      483.179      108.870        0.051      337.632        9.735      857.964
05/06/2013  22:52:00     -409.184      -89.346      -13.815      216.333      149.275       86.371    46799.828    22283.007     7459.948       12.606        3.827      418.824      111.458        0.071      337.620        9.716      857.959
05/06/2013  22:53:00     -283.902      -80.536       -8.314      140.741      129.156       77.113    19807.975    16681.371     5946.421        6.479        2.122      295.104       72.335        0.060      337.609        9.695      857.960
05/06/2013  22:54:00     -341.021      -61.130       -8.389      129.369      131.228       72.424    16736.314    17220.811     5245.272        7.965        1.960      346.457       74.575        0.046      337.591        9.666      857.959
05/06/2013  22:55:00     -378.482      -76.763      -19.617      139.110      111.703       64.492    19351.483    12477.522     4159.211        9.275        1.799      386.188       69.385        0.032      337.560        9.613      857.966
05/06/2013  22:56:00     -303.120      -80.730       -6.131      180.114      103.987       60.718    32440.885    10813.255     3686.672        7.268        2.347      313.687       78.538        0.063      337.565        9.621      857.950
05/06/2013  22:57:00     -276.428     -123.667       -3.402      173.027      162.126       87.198    29938.385    26284.820     7603.520        7.776        3.191      302.830       92.012        0.092      337.548        9.592      857.933
05/06/2013  22:58:00     -360.468      -18.880       -1.443      180.362      145.340       81.981    32530.288    21123.760     6720.954        9.533        3.019      360.962       92.998        0.066      337.504        9.519      857.943
05/06/2013  22:59:00     -398.776       -2.753       -9.400      164.251      114.609       72.894    26978.471    13135.148     5313.488       10.227        2.271      398.785       82.618        0.043      337.464        9.452      857.943
05/06/2013  23:00:00     -361.449      -30.575      -28.693      187.907      136.799       70.993    35309.130    18713.871     5039.981        9.572        2.953      362.739       84.916        0.055      337.467        9.457      857.935
05/06/2013  23:01:00     -449.729      -81.091      -21.901      135.705      145.799       71.283    18415.976    21257.239     5081.240       12.703        2.238      456.981       74.920        0.027      337.452        9.432      857.934
05/06/2013  23:02:00     -248.537      -35.758       -5.489      153.147      110.145       68.899    23453.975    12131.902     4747.056        5.170        2.017      251.096       81.823        0.106      337.473        9.466      857.944
05/06/2013  23:03:00     -242.727      -56.659        5.400      168.568      139.092       72.168    28415.087    19346.540     5208.203        5.755        2.648      249.252       78.585        0.099      337.472        9.466      857.927
05/06/2013  23:04:00     -217.323      -86.278       -2.366      154.421      105.948       75.077    23845.695    11225.019     5636.582        4.769        2.035      233.823       82.487        0.124      337.442        9.416      857.934
05/06/2013  23:05:00     -295.997      -82.313      -17.754      131.959      103.422       64.908    17413.265    10696.104     4213.037        6.351        1.616      307.229       59.474        0.037      337.445        9.420      857.952
05/06/2013  23:06:00     -362.575     -111.538      -25.735      178.781      126.161       73.259    31962.609    15916.670     5366.916        9.890        2.662      379.343       81.098        0.046      337.481        9.480      857.938
05/06/2013  23:07:00     -218.033     -117.311       -6.212      135.583      120.272       55.202    18382.687    14465.417     3047.274        4.861        1.795      247.589       56.401        0.052      337.479        9.477      857.941
05/06/2013  23:08:00     -299.479      -66.698      -14.850      133.427       87.777       53.485    17802.768     7704.836     2860.624        6.136        1.418      306.816       56.933        0.034      337.471        9.465      857.930
05/06/2013  23:09:00     -290.512       12.124        2.064      122.534      111.847       64.140    15014.554    12509.718     4113.919        5.809        1.582      290.765       51.801        0.032      337.475        9.469      857.909
05/06/2013  23:10:00     -320.215     -102.307      -16.707      138.256      124.108       76.520    19114.712    15402.914     5855.324        7.682        2.019      336.161       46.860        0.019      337.517        9.540      857.892
05/06/2013  23:11:00     -429.805      -87.114      -14.212      151.554      161.287       80.526    22968.577    26013.566     6484.468       12.399        2.773      438.544       77.296        0.031      337.559        9.611      857.875
05/06/2013  23:12:00     -358.175      -58.200      -10.769      142.388      109.309       63.808    20274.468    11948.561     4071.425        8.404        1.815      362.873       66.377        0.033      337.565        9.620      857.886
05/06/2013  23:13:00     -215.621     -168.780       -2.654      180.415      102.737       68.464    32549.616    10554.895     4687.280        6.138        2.390      273.823       87.171        0.101      337.612        9.699      857.873
05/06/2013  23:14:00     -367.647     -145.062      -17.681      165.318      128.466       83.830    27330.160    16503.453     7027.428       10.368        2.543      395.230       85.807        0.047      337.612        9.702      857.887
05/06/2013  23:15:00     -293.545     -190.870       -5.989      160.114      111.488       69.478    25636.385    12429.593     4827.164        8.276        2.145      350.143       72.577        0.043      337.632        9.734      857.887
05/06/2013  23:16:00     -269.040     -147.443      -22.272      129.049      141.653       64.250    16653.735    20065.436     4128.077        6.773        2.042      306.793       66.354        0.047      337.619        9.713      857.904
05/06/2013  23:17:00     -305.734     -132.082      -17.313      126.604      124.845       69.238    16028.581    15586.189     4793.850        7.381        1.820      333.045       62.664        0.035      337.606        9.689      857.911
05/06/2013  23:18:00     -167.903     -113.235       -2.797      119.924      104.369       70.851    14381.692    10892.938     5019.857        3.565        1.515      202.518       68.377        0.114      337.628        9.728      857.891
05/06/2013  23:19:00     -268.161     -121.183       -3.585      145.567      134.561       75.598    21189.658    18106.734     5715.021        6.580        2.251      294.271       67.274        0.052      337.624        9.720      857.882
05/06/2013  23:20:00     -301.812     -129.629      -13.644      152.425      121.405       73.492    23233.328    14739.135     5401.131        7.572        2.169      328.473       87.898        0.072      337.632        9.736      857.904
05/06/2013  23:21:00     -147.457      -25.921      -21.454      102.568       58.519       40.633    10520.234     3424.511     1651.010        1.923        0.780      149.718       40.754        0.074      337.635        9.742      857.896
05/06/2013  23:22:00     -304.065     -122.079      -12.627      115.503       94.433       57.037    13340.973     8917.507     3253.237        6.651        1.276      327.656       53.641        0.027      337.635        9.739      857.876
05/06/2013  23:23:00     -296.021      -67.467       -4.953      170.146      112.172       71.522    28949.761    12582.486     5115.380        6.942        2.332      303.612       81.544        0.072      337.643        9.753      857.883
05/06/2013  23:24:00     -205.533     -106.193        2.108      198.192      102.909       68.480    39280.040    10590.361     4689.569        5.403        2.728      231.345       89.066        0.148      337.688        9.829      857.888
05/06/2013  23:25:00     -212.046     -135.062       14.605      176.684      119.791       77.652    31217.279    14349.975     6029.909        5.750        2.580      251.407       90.777        0.130      337.674        9.806      857.856
05/06/2013  23:26:00     -119.114     -172.374       11.372      138.076      132.555       79.153    19065.114    17570.764     6265.276        4.346        2.145      209.526       90.001        0.185      337.697        9.843      857.839
05/06/2013  23:27:00     -178.229      -89.519        2.744      104.206       92.740       61.604    10858.799     8600.730     3795.068        3.152        1.163      199.447       58.536        0.086      337.675        9.808      857.850
05/06/2013  23:28:00     -161.859     -113.725        4.551      163.322      111.914       79.586    26674.176    12524.645     6333.964        4.234        2.277      197.818       90.823        0.211      337.696        9.842      857.848
05/06/2013  23:29:00     -169.820     -153.235        3.512      154.564      127.627       70.152    23890.175    16288.661     4921.234        4.871        2.255      228.735       84.311        0.136      337.722        9.887      857.856
05/06/2013  23:30:00      -90.384      -49.455       22.134      149.933       80.896       62.672    22479.878     6544.134     3927.730        2.202        1.648      103.029       83.244        0.653      337.771        9.969      857.879
05/06/2013  23:31:00     -240.825      -99.340        1.038      119.952       99.565       54.407    14388.427     9913.134     2960.086        4.756        1.363      260.509       49.317        0.036      337.712        9.868      857.896
05/06/2013  23:32:00     -248.500     -108.774      -20.646      144.237      104.842       62.416    20804.224    10991.854     3895.812        5.485        1.785      271.263       59.768        0.049      337.725        9.891      857.898
05/06/2013  23:33:00     -201.779     -109.793       -7.366      136.532       94.988       50.031    18640.993     9022.660     2503.104        4.149        1.508      229.715       39.134        0.029      337.743        9.921      857.901
05/06/2013  23:34:00     -211.092     -143.115       -5.432      121.622      109.199       56.157    14791.930    11924.349     3153.562        4.747        1.493      255.033       59.610        0.055      337.752        9.935      857.907
05/06/2013  23:35:00     -157.531     -118.591       11.812      115.727      117.114       54.482    13392.763    13715.735     2968.326        3.454        1.504      197.180       47.722        0.059      337.770        9.967      857.907
05/06/2013  23:36:00     -287.356       -3.281      -24.099      152.942      114.887       55.620    23391.282    13198.909     3093.623        6.142        1.984      287.375       51.509        0.032      337.733        9.905      857.900
05/06/2013  23:37:00     -302.978     -135.906      -19.234      142.692      102.397       65.751    20361.050    10485.186     4323.241        7.290        1.758      332.063       65.129        0.038      337.750        9.933      857.903
05/06/2013  23:38:00     -206.623      -59.178       -1.913      104.065       99.135       50.582    10829.553     9827.761     2558.510        3.470        1.161      214.930       57.111        0.071      337.762        9.954      857.888
05/06/2013  23:39:00     -319.970     -204.261      -11.269      170.253      158.749       84.969    28986.199    25201.210     7219.659       10.281        3.070      379.609       77.145        0.041      337.762        9.953      857.878
05/06/2013  23:40:00     -304.844      -51.467      -20.692      120.232      133.265       50.790    14455.762    17759.449     2579.618        6.539        1.740      309.158       53.575        0.030      337.728        9.894      857.920
05/06/2013  23:41:00     -200.564      -69.053       -4.795      108.948      110.767       51.215    11869.638    12269.267     2622.939        3.589        1.338      212.118       56.243        0.070      337.716        9.876      857.914
05/06/2013  23:42:00     -170.483      -75.177       -3.110       76.203       80.008       44.397     5806.949     6401.260     1971.077        2.445        0.709      186.322       47.415        0.065      337.712        9.869      857.897
05/06/2013  23:43:00     -272.196     -109.008      -11.745      127.625       83.195       53.257    16288.043     6921.440     2836.303        5.607        1.302      293.212       50.714        0.030      337.696        9.840      857.894
05/06/2013  23:44:00     -140.903      -65.752        3.828      115.156       76.100       55.103    13260.816     5791.145     3036.298        2.314        1.104      155.490       62.636        0.162      337.694        9.840      857.910
05/06/2013  23:45:00     -375.116      -30.112      -10.649      153.842      100.881       66.657    23667.478    10177.000     4443.150        9.000        1.914      376.323       69.483        0.034      337.653        9.769      857.914
05/06/2013  23:46:00     -255.115      -40.079       -5.050      155.312       94.205       59.794    24121.920     8874.633     3575.332        5.164        1.829      258.244       69.411        0.072      337.646        9.759      857.924
05/06/2013  23:47:00     -174.332      -71.155        6.787      144.745       95.938       54.267    20951.223     9204.114     2944.861        3.429        1.655      188.294       66.388        0.124      337.679        9.814      857.931
05/06/2013  23:48:00     -179.035      -69.058        8.348      133.303      114.300       50.877    17769.687    13064.487     2588.431        3.515        1.671      191.892       56.454        0.087      337.646        9.758      857.930
05/06/2013  23:49:00     -133.834      -63.652      -14.006      109.470       96.395       56.296    11983.709     9292.019     3169.234        2.330        1.222      148.199       42.589        0.083      337.650        9.767      857.904
05/06/2013  23:50:00     -161.443      -48.938        9.528      176.824       77.869       60.094    31266.671     6063.587     3611.257        3.474        2.047      168.697       83.475        0.245      337.617        9.710      857.896
05/06/2013  23:51:00     -225.857        0.572        3.000      142.259       84.433       58.057    20237.610     7128.973     3370.594        4.087        1.537      225.858       66.037        0.085      337.567        9.626      857.889
05/06/2013  23:52:00     -271.463     -170.637       -5.820      144.906      145.285       72.390    20997.715    21107.801     5240.370        7.509        2.367      320.639       83.516        0.068      337.617        9.710      857.873
05/06/2013  23:53:00     -202.552      -95.900       -4.239      111.786      115.755       55.432    12496.020    13399.259     3072.694        3.960        1.448      224.107       57.910        0.067      337.605        9.689      857.875
05/06/2013  23:54:00     -258.717        1.173      -12.385       90.721       79.226       38.283     8230.312     6276.704     1465.608        4.153        0.799      258.719       24.677        0.009      337.539        9.579      857.886
05/06/2013  23:55:00     -283.311      -59.610        1.535      128.654      104.797       53.471    16551.947    10982.359     2859.173        5.710        1.520      289.514       63.597        0.048      337.549        9.593      857.883
05/06/2013  23:56:00     -342.893      -48.310       -7.864      126.236       87.063       63.565    15935.600     7579.904     4040.477        7.376        1.378      346.280       61.162        0.031      337.492        9.498      857.891
05/06/2013  23:57:00     -213.000      -95.592       15.809      116.267       98.733       64.135    13518.130     9748.242     4113.325        4.106        1.369      233.467       62.854        0.072      337.503        9.518      857.890
05/06/2013  23:58:00     -249.926      -67.664       -5.440      129.659      112.922       56.814    16811.329    12751.417     3227.814        4.993        1.640      258.924       58.485        0.051      337.461        9.448      857.891
05/06/2013  23:59:00     -323.853     -104.715       -1.524      137.554      115.660       68.396    18921.039    13377.162     4678.017        7.641        1.849      340.361       70.016        0.042      337.469        9.460      857.882
